[[{"header":{"parameterUnit":"m.s-1","parameterCategory":1,"la1":31.0,"la2":29.5877,"lo1":-88.7671,"lo2":-86.6584,"dx":0.0162,"dy":0.0185,"nx":115,"ny":88,"refTime":"2023-01-12T06:00:00:Z","depth":0,"parameterNumber":2,"parameterNumberName":"U-component_of_WINDS"},"data":[0.0,0.0,0.0,0.0,0.0,0.0,0.0,0.0,0.0,0.0,0.0,0.0,0.0,0.0,0.0,0.0,0.0,0.0,0.0,0.0,0.0,0.0,0.0,0.0,0.0,0.0,0.0,0.0,0.0,0.0,0.0,0.0,0.0,0.0,0.0,0.0,0.0,0.0,0.0,0.0,0.0,0.0,0.0,0.0,0.0,0.0,0.0,0.0,0.0,0.0,0.0,0.0,0.0,0.0,0.0,0.0,0.0,0.0,0.0,0.0,0.0,0.0,0.0,0.0,0.0,0.0,0.0,0.0,0.0,0.0,0.0,0.0,0.0,0.0,0.0,0.0,0.0,0.0,0.0,0.0,0.0,0.0,0.0,0.0,0.0,0.0,0.0,0.0,0.0,0.0,0.0,0.0,0.0,0.0,0.0,0.0,0.0,0.0,0.0,0.0,0.0,0.0,0.0,0.0,0.0,0.0,0.0,0.0,0.0,0.0,0.0,0.0,0.0,0.0,0.0,0.0,0.0,0.0,0.0,0.0,0.0,0.0,0.0,0.0,0.0,0.0,0.0,0.0,0.0,0.0,0.0,0.0,0.0,0.0,0.0,0.0,0.0,0.0,0.0,0.0,0.0,0.0,0.0,0.0,0.0,0.0,0.0,0.0,0.0,0.0,0.0,0.0,0.0,0.0,0.0,0.0,0.0,0.0,0.0,0.0,0.0,0.0,0.0,0.0,0.0,0.0,0.0,0.0,0.0,0.0,0.0,0.0,0.0,0.0,0.0,0.0,0.0,0.0,0.0,0.0,0.0,0.0,0.0,0.0,0.0,0.0,0.0,0.0,0.0,0.0,0.0,0.0,0.0,0.0,0.0,0.0,0.0,0.0,0.0,0.0,0.0,0.0,0.0,0.0,0.0,0.0,0.0,0.0,0.0,0.0,0.0,0.0,0.0,0.0,0.0,0.0,0.0,0.0,0.0,0.0,0.0,0.0,0.0,0.0,0.0,0.0,0.0,0.0,0.0,0.0,0.0,0.0,0.0,0.0,0.0,0.0,0.0,0.0,0.0,0.0,0.0,0.0,0.0,0.0,0.0,0.0,0.0,0.0,0.0,0.0,0.0,0.0,0.0,0.0,0.0,0.0,0.0,0.0,0.0,0.0,0.0,0.0,0.0,0.0,0.0,0.0,0.0,0.0,0.0,0.0,0.0,0.0,0.0,0.0,0.0,0.0,0.0,0.0,0.0,0.0,0.0,0.0,0.0,0.0,0.0,0.0,0.0,0.0,0.0,0.0,0.0,0.0,0.0,0.0,0.0,0.0,0.0,0.0,0.0,0.0,0.0,0.0,0.0,0.0,0.0,0.0,0.0,0.0,0.0,0.0,0.0,0.0,0.0,0.0,0.0,0.0,0.0,0.0,0.0,0.0,0.0,0.0,0.0,0.0,0.0,0.0,0.0,0.0,0.0,0.0,0.0,0.0,0.0,0.0,0.0,0.0,0.0,0.0,0.0,0.0,0.0,0.0,0.0,0.0,0.0,0.0,0.0,0.0,0.0,0.0,0.0,0.0,0.0,0.0,0.0,0.0,0.0,0.0,0.0,0.0,0.0,0.0,0.0,0.0,0.0,0.0,0.0,0.0,0.0,0.0,0.0,0.0,0.0,0.0,0.0,0.0,0.0,0.0,0.0,0.0,0.0,0.0,0.0,0.0,0.0,0.0,0.0,0.0,0.0,0.0,0.0,0.0,0.0,0.0,0.0,0.0,0.0,0.0,0.0,0.0,0.0,0.0,0.0,0.0,0.0,0.0,0.0,0.0,0.0,0.0,0.0,0.0,0.0,0.0,0.0,0.0,0.0,0.0,0.0,0.0,0.0,0.0,0.0,0.0,0.0,0.0,0.0,0.0,0.0,0.0,0.0,0.0,0.0,0.0,0.0,0.0,0.0,0.0,0.0,0.0,0.0,0.0,0.0,0.0,0.0,0.0,0.0,0.0,0.0,0.0,0.0,0.0,0.0,0.0,0.0,0.0,0.0,0.0,0.0,0.0,0.0,0.0,0.0,0.0,0.0,0.0,0.0,0.0,0.0,0.0,0.0,0.0,0.0,0.0,0.0,0.0,0.0,0.0,0.0,0.0,0.0,0.0,0.0,0.0,0.0,0.0,0.0,0.0,0.0,0.0,0.0,0.0,0.0,0.0,0.0,0.0,0.0,0.0,0.0,0.0,0.0,0.0,0.0,0.0,0.0,0.0,0.0,0.0,0.0,0.0,0.0,0.0,0.0,0.0,0.0,0.0,0.0,0.0,0.0,0.0,0.0,0.0,0.0,0.0,0.0,0.0,0.0,0.0,0.0,0.0,0.0,0.0,0.0,0.0,0.0,0.0,0.0,0.0,0.0,0.0,0.0,0.0,0.0,0.0,0.0,0.0,0.0,0.0,0.0,0.0,0.0,0.0,0.0,0.0,0.0,0.0,0.0,0.0,0.0,0.0,0.0,0.0,0.0,0.0,0.0,0.0,0.0,0.0,0.0,0.0,0.0,0.0,0.0,0.0,0.0,0.0,0.0,0.0,0.0,0.0,0.0,0.0,0.0,0.0,0.0,0.0,0.0,0.0,0.0,0.0,0.0,0.0,0.0,0.0,0.0,0.0,0.0,0.0,0.0,0.0,0.0,0.0,0.0,0.0,0.0,0.0,0.0,0.0,0.0,0.0,0.0,0.0,0.0,0.0,0.0,0.0,0.0,0.0,0.0,0.0,0.0,0.0,0.0,0.0,0.0,0.0,0.0,0.0,0.0,0.0,0.0,0.0,0.0,0.0,0.0,0.0,0.0,0.0,0.0,0.0,0.0,0.0,0.0,0.0,0.0,0.0,0.0,0.0,0.0,0.0,0.0,0.0,0.0,0.0,0.0,0.0,0.0,0.0,0.0,0.0,0.0,0.0,0.0,0.0,0.0,0.0,0.0,0.0,0.0,0.0,0.0,0.0,0.0,0.0,0.0,0.0,0.0,0.0,0.0,0.0,0.0,0.0,0.0,0.0,0.0,0.0,0.0,0.0,0.0,0.0,0.0,0.0,0.0,0.0,0.0,0.0,0.0,0.0,0.0,0.0,0.0,0.0,0.0,0.0,0.0,0.0,0.0,0.0,0.0,0.0,0.0,0.0,0.0,0.0,0.0,0.0,0.0,0.0,0.0,0.0,0.0,0.0,0.0,0.0,0.0,0.0,0.0,0.0,0.0,0.0,0.0,0.0,0.0,0.0,0.0,0.0,0.0,0.0,0.0,0.0,0.0,0.0,0.0,0.0,0.0,0.0,0.0,0.0,0.0,0.0,0.0,0.0,0.0,0.0,0.0,0.0,0.0,0.0,0.0,0.0,0.0,0.0,0.0,0.0,0.0,0.0,0.0,0.0,0.0,0.0,0.0,0.0,0.0,0.0,0.0,0.0,0.0,0.0,0.0,0.0,0.0,0.0,0.0,0.0,0.0,0.0,0.0,0.0,0.0,0.0,0.0,0.0,0.0,0.0,0.0,0.0,0.0,0.0,0.0,0.0,0.0,0.0,0.0,0.0,0.0,0.0,0.0,0.0,0.0,0.0,0.0,0.0,0.0,0.0,0.0,0.0,0.0,0.0,0.0,0.0,0.0,0.0,0.0,0.0,0.0,0.0,0.0,0.0,0.0,0.0,0.0,0.0,0.0,0.0,0.0,0.0,0.0,0.0,0.0,0.0,0.0,0.0,0.0,0.0,0.0,0.0,0.0,0.0,0.0,0.0,0.0,0.0,0.0,0.0,0.0,0.0,0.0,0.0,0.0,0.0,0.0,0.0,0.0,0.0,0.0,0.0,0.0,0.0,0.0,0.0,0.0,0.0,0.0,0.0,0.0,0.0,0.0,0.0,0.0,0.0,0.0,0.0,0.0,0.0,0.0,0.0,0.0,0.0,0.0,0.0,0.0,0.0,0.0,0.0,0.0,0.0,0.0,0.0,0.0,0.0,0.0,0.0,0.0,0.0,0.0,0.0,0.0,0.0,0.0,0.0,0.0,0.0,0.0,0.0,0.0,0.0,0.0,0.0,0.0,0.0,0.0,0.0,0.0,0.0,0.0,0.0,0.0,0.0,0.0,0.0,0.0,0.0,0.0,0.0,0.0,0.0,0.0,0.0,0.0,0.0,0.0,0.0,0.0,0.0,0.0,0.0,0.0,0.0,0.0,0.0,0.0,0.0,0.0,0.0,0.0,0.0,0.0,0.0,0.0,0.0,0.0,0.0,4.4381,0.0,0.0,0.0,4.3864,0.0,0.0,0.0,0.0,0.0,0.0,0.0,0.0,0.0,0.0,0.0,0.0,0.0,0.0,0.0,0.0,0.0,0.0,0.0,0.0,0.0,0.0,0.0,0.0,0.0,0.0,0.0,0.0,0.0,0.0,0.0,0.0,0.0,0.0,0.0,0.0,0.0,0.0,0.0,0.0,0.0,0.0,0.0,0.0,0.0,0.0,0.0,0.0,0.0,0.0,0.0,0.0,0.0,0.0,0.0,0.0,0.0,0.0,0.0,0.0,0.0,0.0,0.0,0.0,0.0,0.0,0.0,0.0,0.0,0.0,0.0,0.0,0.0,0.0,0.0,0.0,0.0,0.0,0.0,0.0,0.0,0.0,0.0,0.0,0.0,0.0,0.0,0.0,0.0,0.0,0.0,0.0,0.0,0.0,0.0,0.0,0.0,0.0,0.0,0.0,0.0,0.0,0.0,0.0,0.0,0.0,0.0,0.0,0.0,0.0,4.4746,4.3571,4.5553,4.5663,4.3608,0.0,0.0,0.0,0.0,0.0,0.0,0.0,0.0,0.0,0.0,0.0,0.0,0.0,0.0,0.0,0.0,0.0,0.0,0.0,0.0,0.0,0.0,0.0,0.0,0.0,0.0,0.0,0.0,0.0,0.0,0.0,0.0,0.0,0.0,0.0,0.0,0.0,0.0,0.0,0.0,0.0,0.0,0.0,0.0,0.0,0.0,0.0,0.0,0.0,0.0,0.0,0.0,0.0,0.0,0.0,0.0,0.0,0.0,0.0,0.0,0.0,0.0,0.0,0.0,0.0,0.0,0.0,0.0,0.0,0.0,0.0,0.0,0.0,0.0,0.0,0.0,0.0,0.0,0.0,0.0,0.0,0.0,0.0,0.0,0.0,0.0,0.0,0.0,0.0,0.0,0.0,0.0,0.0,0.0,0.0,0.0,0.0,0.0,0.0,0.0,0.0,0.0,0.0,0.0,0.0,0.0,0.0,0.0,0.0,0.0,0.0,0.0,4.6617,4.6874,4.4416,0.0,0.0,0.0,0.0,0.0,0.0,0.0,0.0,0.0,0.0,0.0,0.0,0.0,0.0,0.0,0.0,0.0,0.0,0.0,0.0,0.0,0.0,0.0,0.0,0.0,0.0,0.0,0.0,0.0,0.0,0.0,0.0,0.0,0.0,0.0,0.0,0.0,0.0,0.0,0.0,0.0,0.0,0.0,0.0,0.0,0.0,0.0,0.0,0.0,0.0,0.0,0.0,0.0,0.0,0.0,0.0,0.0,0.0,0.0,0.0,0.0,0.0,0.0,0.0,0.0,0.0,0.0,0.0,0.0,0.0,0.0,0.0,0.0,0.0,0.0,0.0,0.0,0.0,0.0,0.0,0.0,0.0,0.0,0.0,0.0,0.0,0.0,0.0,0.0,0.0,0.0,0.0,0.0,0.0,0.0,0.0,0.0,0.0,0.0,0.0,0.0,0.0,0.0,0.0,0.0,0.0,0.0,0.0,0.0,0.0,4.4272,4.559,4.6654,0.0,4.6652,0.0,0.0,0.0,0.0,0.0,0.0,0.0,0.0,0.0,0.0,0.0,0.0,0.0,0.0,0.0,0.0,0.0,0.0,0.0,0.0,0.0,0.0,0.0,0.0,0.0,0.0,0.0,0.0,0.0,0.0,0.0,0.0,0.0,0.0,0.0,0.0,0.0,0.0,0.0,0.0,0.0,0.0,0.0,0.0,0.0,0.0,0.0,0.0,0.0,0.0,0.0,0.0,0.0,0.0,0.0,0.0,0.0,0.0,0.0,0.0,0.0,0.0,0.0,0.0,0.0,0.0,0.0,0.0,0.0,0.0,0.0,0.0,0.0,0.0,0.0,0.0,0.0,0.0,0.0,0.0,0.0,0.0,0.0,0.0,0.0,0.0,0.0,0.0,0.0,0.0,0.0,0.0,0.0,0.0,0.0,0.0,0.0,0.0,0.0,0.0,0.0,0.0,0.0,0.0,0.0,0.0,0.0,0.0,0.0,0.0,4.5407,4.6543,4.691,4.6874,0.0,0.0,0.0,0.0,0.0,0.0,0.0,0.0,0.0,0.0,0.0,0.0,0.0,0.0,0.0,0.0,0.0,0.0,0.0,0.0,0.0,0.0,0.0,0.0,0.0,0.0,0.0,0.0,0.0,0.0,0.0,0.0,0.0,0.0,0.0,0.0,0.0,0.0,0.0,0.0,0.0,0.0,0.0,0.0,0.0,0.0,0.0,0.0,0.0,0.0,0.0,0.0,0.0,0.0,0.0,0.0,0.0,0.0,0.0,0.0,0.0,0.0,0.0,0.0,0.0,0.0,0.0,0.0,0.0,0.0,0.0,0.0,0.0,0.0,0.0,0.0,0.0,0.0,0.0,0.0,0.0,0.0,0.0,0.0,0.0,0.0,0.0,0.0,0.0,0.0,0.0,0.0,0.0,0.0,0.0,0.0,0.0,0.0,0.0,0.0,0.0,0.0,0.0,0.0,0.0,0.0,0.0,0.0,0.0,0.0,4.581,4.68,4.8012,4.7644,4.7019,4.6138,0.0,0.0,0.0,0.0,0.0,0.0,0.0,0.0,0.0,0.0,0.0,0.0,0.0,0.0,0.0,0.0,0.0,0.0,0.0,0.0,0.0,0.0,0.0,0.0,0.0,0.0,0.0,0.0,0.0,0.0,0.0,0.0,0.0,0.0,0.0,0.0,0.0,0.0,0.0,0.0,0.0,0.0,0.0,0.0,0.0,0.0,0.0,0.0,0.0,0.0,0.0,0.0,0.0,0.0,0.0,0.0,0.0,0.0,0.0,0.0,0.0,0.0,0.0,0.0,0.0,0.0,0.0,0.0,0.0,0.0,0.0,0.0,0.0,0.0,0.0,0.0,0.0,0.0,0.0,0.0,0.0,0.0,0.0,0.0,0.0,0.0,0.0,0.0,0.0,0.0,0.0,0.0,0.0,0.0,0.0,0.0,0.0,0.0,0.0,0.0,0.0,0.0,0.0,0.0,0.0,0.0,0.0,0.0,4.8773,4.7641,4.8155,5.0472,4.9035,4.7748,0.0,0.0,0.0,0.0,0.0,0.0,0.0,0.0,0.0,0.0,0.0,0.0,0.0,0.0,0.0,0.0,0.0,0.0,0.0,0.0,0.0,0.0,0.0,0.0,0.0,0.0,0.0,0.0,0.0,0.0,0.0,0.0,0.0,0.0,0.0,0.0,0.0,0.0,0.0,0.0,0.0,0.0,0.0,0.0,0.0,0.0,0.0,0.0,0.0,0.0,0.0,0.0,0.0,0.0,0.0,0.0,0.0,0.0,0.0,0.0,0.0,0.0,0.0,0.0,0.0,0.0,0.0,0.0,0.0,0.0,0.0,0.0,0.0,0.0,0.0,0.0,0.0,0.0,0.0,0.0,0.0,0.0,0.0,0.0,0.0,0.0,0.0,0.0,0.0,0.0,0.0,0.0,0.0,0.0,0.0,0.0,0.0,0.0,0.0,0.0,0.0,0.0,0.0,0.0,0.0,0.0,0.0,0.0,0.0,4.559,4.658,4.8488,5.1316,4.8928,4.7826,0.0,0.0,0.0,0.0,0.0,0.0,0.0,0.0,0.0,0.0,0.0,0.0,0.0,0.0,0.0,0.0,0.0,0.0,0.0,0.0,0.0,0.0,0.0,0.0,0.0,0.0,0.0,0.0,0.0,0.0,0.0,0.0,0.0,0.0,0.0,0.0,0.0,0.0,0.0,0.0,0.0,0.0,0.0,0.0,0.0,0.0,0.0,0.0,0.0,0.0,0.0,0.0,0.0,0.0,0.0,0.0,0.0,0.0,0.0,0.0,0.0,0.0,0.0,0.0,0.0,0.0,0.0,0.0,0.0,0.0,0.0,0.0,0.0,0.0,0.0,0.0,0.0,0.0,0.0,0.0,0.0,0.0,0.0,0.0,0.0,0.0,0.0,0.0,0.0,0.0,0.0,0.0,0.0,0.0,0.0,0.0,0.0,0.0,0.0,0.0,0.0,0.0,0.0,0.0,0.0,0.0,0.0,0.0,0.0,4.6103,4.8818,5.0839,5.183,4.9627,4.8047,0.0,0.0,0.0,0.0,0.0,0.0,0.0,0.0,0.0,0.0,0.0,0.0,0.0,0.0,0.0,0.0,0.0,0.0,0.0,0.0,0.0,0.0,0.0,0.0,0.0,0.0,0.0,0.0,0.0,0.0,0.0,0.0,0.0,0.0,0.0,0.0,0.0,0.0,0.0,0.0,0.0,0.0,0.0,0.0,0.0,0.0,0.0,0.0,0.0,0.0,0.0,0.0,0.0,0.0,0.0,0.0,0.0,0.0,0.0,0.0,0.0,0.0,0.0,0.0,0.0,0.0,0.0,0.0,0.0,0.0,0.0,0.0,0.0,0.0,0.0,0.0,0.0,0.0,0.0,0.0,0.0,0.0,0.0,0.0,0.0,0.0,0.0,0.0,0.0,0.0,0.0,0.0,0.0,0.0,0.0,0.0,0.0,0.0,0.0,0.0,0.0,0.0,0.0,0.0,0.0,0.0,0.0,0.0,4.5867,5.1353,5.4752,5.4913,5.216,5.1169,4.8526,0.0,0.0,0.0,0.0,0.0,0.0,0.0,0.0,0.0,0.0,0.0,0.0,0.0,0.0,0.0,0.0,0.0,0.0,0.0,0.0,0.0,0.0,0.0,0.0,0.0,0.0,0.0,0.0,0.0,0.0,0.0,0.0,0.0,0.0,0.0,0.0,0.0,0.0,0.0,0.0,0.0,0.0,0.0,0.0,0.0,0.0,0.0,0.0,0.0,0.0,0.0,0.0,0.0,0.0,0.0,0.0,0.0,0.0,0.0,0.0,0.0,0.0,0.0,0.0,0.0,0.0,0.0,0.0,0.0,0.0,0.0,0.0,0.0,0.0,0.0,0.0,0.0,0.0,0.0,0.0,0.0,0.0,0.0,0.0,0.0,0.0,0.0,0.0,0.0,0.0,0.0,0.0,0.0,0.0,0.0,0.0,0.0,0.0,0.0,0.0,0.0,0.0,0.0,0.0,0.0,0.0,0.0,0.0,0.0,4.9354,5.259,5.4363,5.4363,5.1536,4.9774,0.0,0.0,0.0,0.0,0.0,0.0,0.0,0.0,0.0,0.0,0.0,0.0,0.0,0.0,0.0,0.0,0.0,0.0,0.0,0.0,0.0,0.0,0.0,0.0,0.0,0.0,0.0,0.0,0.0,0.0,0.0,0.0,0.0,0.0,0.0,0.0,0.0,0.0,0.0,0.0,0.0,0.0,0.0,0.0,0.0,0.0,0.0,0.0,0.0,0.0,0.0,0.0,0.0,0.0,0.0,0.0,0.0,0.0,0.0,0.0,0.0,0.0,0.0,0.0,0.0,0.0,0.0,0.0,0.0,0.0,0.0,0.0,0.0,0.0,0.0,0.0,0.0,0.0,0.0,0.0,0.0,0.0,0.0,0.0,0.0,0.0,0.0,0.0,0.0,0.0,0.0,0.0,0.0,0.0,0.0,0.0,0.0,0.0,0.0,0.0,0.0,0.0,0.0,0.0,0.0,0.0,0.0,0.0,0.0,5.2864,5.5962,5.7593,5.7373,5.3775,5.172,5.1463,0.0,0.0,0.0,0.0,0.0,0.0,0.0,0.0,0.0,0.0,0.0,0.0,0.0,0.0,0.0,0.0,0.0,0.0,0.0,0.0,0.0,0.0,0.0,0.0,0.0,0.0,0.0,0.0,0.0,0.0,0.0,0.0,0.0,0.0,0.0,0.0,0.0,0.0,0.0,0.0,0.0,0.0,0.0,0.0,0.0,0.0,0.0,0.0,0.0,0.0,0.0,0.0,0.0,0.0,0.0,0.0,0.0,0.0,0.0,0.0,0.0,0.0,0.0,0.0,0.0,0.0,0.0,0.0,0.0,0.0,0.0,0.0,0.0,0.0,0.0,0.0,0.0,0.0,0.0,0.0,0.0,0.0,0.0,0.0,0.0,0.0,0.0,0.0,0.0,0.0,0.0,0.0,0.0,0.0,0.0,0.0,0.0,0.0,0.0,0.0,0.0,0.0,0.0,0.0,0.0,0.0,0.0,0.0,6.0368,6.3804,6.3943,6.075,5.7483,5.4326,0.0,0.0,0.0,0.0,0.0,0.0,0.0,0.0,0.0,0.0,0.0,0.0,0.0,0.0,0.0,0.0,0.0,0.0,0.0,0.0,0.0,0.0,0.0,0.0,0.0,0.0,0.0,0.0,0.0,0.0,0.0,0.0,0.0,0.0,0.0,0.0,0.0,0.0,0.0,0.0,0.0,0.0,0.0,0.0,0.0,0.0,0.0,0.0,0.0,0.0,0.0,0.0,0.0,0.0,0.0,0.0,0.0,0.0,0.0,0.0,0.0,0.0,0.0,0.0,0.0,0.0,0.0,0.0,0.0,0.0,0.0,0.0,0.0,0.0,0.0,0.0,0.0,0.0,0.0,0.0,0.0,0.0,0.0,0.0,0.0,0.0,0.0,0.0,0.0,0.0,0.0,0.0,0.0,0.0,0.0,0.0,0.0,0.0,0.0,0.0,0.0,0.0,0.0,0.0,0.0,0.0,0.0,0.0,0.0,6.3701,6.712,6.7283,6.409,6.0309,5.7042,0.0,0.0,0.0,0.0,0.0,0.0,0.0,0.0,0.0,0.0,0.0,0.0,0.0,0.0,0.0,0.0,0.0,0.0,0.0,0.0,0.0,0.0,0.0,0.0,0.0,0.0,0.0,0.0,0.0,0.0,0.0,0.0,0.0,0.0,0.0,0.0,0.0,0.0,0.0,0.0,0.0,0.0,0.0,0.0,0.0,0.0,0.0,0.0,0.0,0.0,0.0,0.0,0.0,0.0,0.0,0.0,0.0,0.0,0.0,0.0,0.0,0.0,0.0,0.0,0.0,0.0,0.0,0.0,0.0,0.0,0.0,0.0,0.0,0.0,0.0,0.0,0.0,0.0,0.0,0.0,0.0,0.0,0.0,0.0,0.0,0.0,0.0,0.0,0.0,0.0,0.0,0.0,0.0,0.0,0.0,0.0,0.0,0.0,0.0,0.0,0.0,0.0,0.0,0.0,0.0,0.0,0.0,0.0,6.2384,6.7524,6.9907,7.022,6.8385,6.3759,6.0126,0.0,0.0,0.0,0.0,0.0,0.0,0.0,0.0,0.0,0.0,0.0,0.0,0.0,0.0,0.0,0.0,0.0,0.0,0.0,0.0,0.0,0.0,0.0,0.0,0.0,0.0,0.0,0.0,0.0,0.0,0.0,0.0,0.0,0.0,0.0,0.0,0.0,0.0,0.0,0.0,0.0,0.0,0.0,0.0,0.0,0.0,0.0,0.0,0.0,0.0,0.0,0.0,0.0,0.0,0.0,0.0,0.0,0.0,0.0,0.0,0.0,0.0,0.0,0.0,0.0,0.0,0.0,0.0,0.0,0.0,0.0,0.0,0.0,0.0,0.0,0.0,0.0,0.0,0.0,0.0,0.0,0.0,0.0,0.0,0.0,0.0,0.0,0.0,0.0,0.0,0.0,0.0,0.0,0.0,0.0,0.0,0.0,0.0,0.0,0.0,0.0,0.0,0.0,0.0,0.0,0.0,0.0,0.0,6.5677,7.1113,7.2218,7.2753,7.2606,6.743,6.3282,0.0,0.0,0.0,0.0,0.0,0.0,0.0,0.0,0.0,0.0,0.0,0.0,0.0,0.0,0.0,0.0,0.0,0.0,0.0,0.0,0.0,0.0,0.0,0.0,0.0,0.0,0.0,0.0,0.0,0.0,0.0,0.0,0.0,0.0,0.0,0.0,0.0,0.0,0.0,0.0,0.0,0.0,0.0,0.0,0.0,0.0,0.0,0.0,0.0,0.0,0.0,0.0,0.0,0.0,0.0,0.0,0.0,0.0,0.0,0.0,0.0,0.0,0.0,0.0,0.0,0.0,0.0,0.0,0.0,0.0,0.0,0.0,0.0,0.0,0.0,0.0,0.0,0.0,0.0,0.0,0.0,0.0,0.0,0.0,0.0,0.0,0.0,0.0,0.0,0.0,0.0,0.0,0.0,0.0,0.0,0.0,0.0,0.0,0.0,0.0,0.0,0.0,0.0,0.0,0.0,0.0,0.0,0.0,6.7689,7.2071,7.367,7.4404,7.4368,7.0146,6.5521,0.0,0.0,0.0,0.0,0.0,0.0,0.0,0.0,0.0,0.0,0.0,0.0,0.0,0.0,0.0,0.0,0.0,0.0,0.0,0.0,0.0,0.0,0.0,0.0,0.0,0.0,0.0,0.0,0.0,0.0,0.0,0.0,0.0,0.0,0.0,0.0,0.0,0.0,0.0,0.0,0.0,0.0,0.0,0.0,0.0,0.0,0.0,0.0,4.8485,0.0,0.0,0.0,0.0,0.0,0.0,0.0,0.0,0.0,0.0,0.0,0.0,0.0,0.0,0.0,0.0,0.0,0.0,0.0,0.0,0.0,0.0,0.0,0.0,0.0,0.0,0.0,0.0,0.0,0.0,0.0,0.0,0.0,0.0,0.0,0.0,0.0,0.0,0.0,0.0,0.0,0.0,0.0,0.0,0.0,0.0,0.0,0.0,0.0,0.0,0.0,0.0,0.0,0.0,0.0,0.0,0.0,0.0,0.0,6.91,7.3487,7.4845,7.5469,7.5395,7.3413,6.9265,0.0,0.0,0.0,0.0,0.0,0.0,0.0,0.0,0.0,0.0,0.0,0.0,0.0,0.0,0.0,0.0,0.0,0.0,0.0,0.0,0.0,0.0,0.0,0.0,0.0,0.0,0.0,0.0,0.0,0.0,0.0,0.0,0.0,0.0,0.0,0.0,0.0,0.0,0.0,0.0,0.0,0.0,0.0,0.0,0.0,0.0,0.0,0.0,0.0,0.0,0.0,0.0,0.0,0.0,0.0,0.0,0.0,0.0,0.0,0.0,0.0,0.0,0.0,0.0,0.0,0.0,0.0,0.0,0.0,0.0,0.0,0.0,0.0,0.0,0.0,0.0,0.0,0.0,0.0,0.0,0.0,0.0,0.0,0.0,0.0,0.0,0.0,0.0,0.0,0.0,0.0,0.0,0.0,0.0,0.0,0.0,0.0,0.0,0.0,0.0,0.0,0.0,0.0,0.0,0.0,0.0,0.0,6.5018,7.022,7.4882,7.5873,7.6276,7.6276,7.6166,7.2826,6.5962,0.0,0.0,0.0,0.0,0.0,0.0,0.0,0.0,0.0,0.0,0.0,0.0,0.0,0.0,0.0,0.0,0.0,0.0,0.0,0.0,0.0,0.0,0.0,0.0,0.0,0.0,0.0,0.0,0.0,0.0,0.0,0.0,0.0,0.0,0.0,0.0,0.0,0.0,4.4708,4.901,0.0,0.0,0.0,0.0,0.0,0.0,0.0,0.0,5.0401,0.0,0.0,0.0,0.0,0.0,0.0,0.0,0.0,0.0,0.0,0.0,0.0,0.0,0.0,0.0,0.0,0.0,0.0,0.0,0.0,0.0,0.0,0.0,0.0,0.0,0.0,0.0,0.0,0.0,0.0,0.0,0.0,0.0,0.0,0.0,0.0,0.0,0.0,0.0,0.0,0.0,0.0,0.0,0.0,0.0,0.0,0.0,0.0,0.0,0.0,0.0,0.0,0.0,0.0,0.0,0.0,6.3709,6.7048,7.1027,7.5763,7.668,7.7121,7.7121,7.646,7.334,6.754,0.0,0.0,0.0,0.0,0.0,0.0,0.0,0.0,0.0,0.0,0.0,0.0,0.0,0.0,0.0,0.0,0.0,0.0,0.0,0.0,0.0,0.0,0.0,0.0,0.0,0.0,0.0,0.0,0.0,0.0,0.0,0.0,0.0,0.0,0.0,0.0,0.0,0.0,0.0,5.3485,5.5073,0.0,0.0,0.0,0.0,0.0,0.0,0.0,0.0,5.1772,0.0,0.0,0.0,0.0,0.0,0.0,0.0,0.0,0.0,0.0,0.0,0.0,0.0,0.0,0.0,0.0,0.0,0.0,0.0,0.0,0.0,0.0,0.0,0.0,0.0,0.0,0.0,0.0,0.0,0.0,0.0,0.0,0.0,0.0,0.0,0.0,0.0,0.0,0.0,0.0,0.0,0.0,0.0,0.0,0.0,0.0,0.0,0.0,0.0,0.0,0.0,0.0,0.0,0.0,0.0,6.3221,6.864,7.2936,7.5983,7.69,7.7341,7.7304,7.6937,7.3891,0.0,0.0,0.0,0.0,0.0,0.0,0.0,0.0,0.0,0.0,0.0,0.0,0.0,0.0,0.0,0.0,0.0,0.0,0.0,0.0,0.0,0.0,0.0,0.0,0.0,0.0,0.0,0.0,0.0,0.0,0.0,0.0,0.0,0.0,0.0,0.0,0.0,0.0,0.0,0.0,5.5918,5.819,6.0511,0.0,0.0,0.0,0.0,0.0,0.0,5.5509,5.4074,0.0,0.0,0.0,0.0,0.0,0.0,0.0,0.0,0.0,0.0,0.0,0.0,0.0,0.0,0.0,0.0,0.0,0.0,0.0,0.0,0.0,0.0,0.0,0.0,0.0,0.0,0.0,0.0,0.0,0.0,0.0,0.0,0.0,0.0,0.0,0.0,0.0,0.0,0.0,0.0,0.0,0.0,0.0,0.0,0.0,0.0,0.0,0.0,0.0,0.0,0.0,0.0,0.0,0.0,0.0,6.2349,6.9482,7.4294,7.6497,7.7231,7.7671,7.7818,7.7671,7.4551,0.0,0.0,0.0,0.0,0.0,0.0,0.0,0.0,0.0,0.0,0.0,0.0,0.0,0.0,0.0,0.0,0.0,0.0,0.0,0.0,0.0,0.0,0.0,0.0,0.0,0.0,0.0,0.0,0.0,0.0,0.0,0.0,0.0,0.0,0.0,0.0,0.0,0.0,0.0,0.0,0.0,6.0782,6.2985,6.1865,0.0,0.0,0.0,0.0,5.8702,5.8846,0.0,0.0,0.0,0.0,0.0,0.0,0.0,0.0,0.0,0.0,0.0,0.0,0.0,0.0,0.0,0.0,0.0,0.0,0.0,0.0,0.0,0.0,0.0,0.0,0.0,0.0,0.0,0.0,0.0,0.0,0.0,0.0,0.0,0.0,0.0,0.0,0.0,0.0,0.0,0.0,0.0,0.0,0.0,0.0,0.0,0.0,0.0,0.0,0.0,0.0,0.0,0.0,0.0,0.0,0.0,0.0,6.3434,6.8769,7.378,7.8038,7.8405,7.8809,7.947,7.8809,7.5395,0.0,0.0,0.0,0.0,0.0,0.0,0.0,0.0,0.0,0.0,0.0,0.0,0.0,0.0,0.0,0.0,0.0,0.0,0.0,0.0,0.0,0.0,0.0,0.0,0.0,0.0,0.0,0.0,0.0,0.0,0.0,0.0,0.0,0.0,0.0,0.0,0.0,0.0,0.0,0.0,0.0,6.2116,6.3722,6.3159,6.2682,0.0,0.0,6.4039,6.595,6.6333,0.0,0.0,0.0,0.0,0.0,0.0,0.0,0.0,0.0,0.0,0.0,0.0,0.0,0.0,0.0,0.0,0.0,0.0,0.0,0.0,0.0,0.0,0.0,0.0,0.0,0.0,0.0,0.0,0.0,0.0,0.0,0.0,0.0,0.0,0.0,0.0,0.0,0.0,0.0,0.0,0.0,0.0,0.0,0.0,0.0,0.0,0.0,0.0,0.0,0.0,0.0,0.0,0.0,0.0,0.0,5.9323,6.4437,7.1207,7.5983,7.8479,7.9029,7.9433,7.9764,7.9433,7.6019,0.0,0.0,0.0,0.0,0.0,0.0,0.0,0.0,0.0,0.0,0.0,0.0,0.0,0.0,0.0,0.0,0.0,0.0,0.0,0.0,0.0,0.0,0.0,0.0,0.0,0.0,0.0,0.0,0.0,0.0,0.0,0.0,0.0,0.0,0.0,0.0,0.0,0.0,0.0,0.0,0.0,0.0,6.7744,6.71,0.0,0.0,0.0,6.6973,6.7415,0.0,0.0,0.0,0.0,0.0,0.0,0.0,0.0,0.0,0.0,0.0,0.0,0.0,0.0,0.0,0.0,0.0,0.0,0.0,0.0,0.0,0.0,0.0,0.0,0.0,0.0,0.0,0.0,0.0,0.0,0.0,0.0,0.0,0.0,0.0,0.0,0.0,0.0,0.0,0.0,0.0,0.0,0.0,0.0,0.0,0.0,0.0,0.0,0.0,0.0,0.0,0.0,0.0,0.0,0.0,0.0,0.0,6.4931,7.3296,7.8038,7.8883,7.969,8.0167,8.0388,8.0204,0.0,0.0,0.0,0.0,0.0,0.0,0.0,0.0,0.0,0.0,0.0,0.0,0.0,0.0,0.0,0.0,0.0,0.0,0.0,0.0,0.0,0.0,0.0,0.0,0.0,0.0,0.0,4.0492,0.0,0.0,0.0,0.0,0.0,0.0,0.0,0.0,0.0,0.0,0.0,0.0,0.0,0.0,6.5826,7.0344,7.033,7.0347,0.0,0.0,6.9981,6.9705,7.1264,7.0376,0.0,0.0,0.0,0.0,0.0,0.0,0.0,0.0,0.0,0.0,0.0,0.0,0.0,0.0,0.0,0.0,0.0,0.0,0.0,0.0,0.0,0.0,0.0,0.0,0.0,0.0,0.0,0.0,0.0,0.0,0.0,0.0,0.0,0.0,0.0,0.0,0.0,0.0,0.0,0.0,0.0,0.0,0.0,0.0,0.0,0.0,0.0,0.0,0.0,0.0,0.0,0.0,0.0,0.0,0.0,6.504,7.3882,7.8919,7.969,8.0498,8.1269,8.2003,8.1342,7.7524,0.0,0.0,0.0,0.0,0.0,0.0,0.0,0.0,0.0,0.0,0.0,0.0,0.0,0.0,0.0,0.0,0.0,0.0,0.0,0.0,0.0,0.0,0.0,0.0,0.0,0.0,0.0,0.0,0.0,0.0,0.0,0.0,0.0,0.0,0.0,0.0,0.0,0.0,0.0,0.0,0.0,6.5654,6.965,7.1394,7.2826,0.0,0.0,7.3891,7.5322,7.5616,7.3634,6.7249,0.0,0.0,0.0,0.0,0.0,0.0,0.0,0.0,0.0,0.0,0.0,0.0,0.0,0.0,0.0,0.0,0.0,0.0,0.0,0.0,0.0,0.0,0.0,0.0,0.0,0.0,0.0,0.0,0.0,0.0,0.0,0.0,0.0,0.0,0.0,0.0,0.0,0.0,0.0,0.0,0.0,0.0,0.0,0.0,0.0,0.0,0.0,0.0,0.0,0.0,0.0,0.0,0.0,6.2427,6.5715,7.4652,7.9727,8.0534,8.1819,8.2627,8.2957,8.2663,7.9984,0.0,0.0,0.0,0.0,0.0,0.0,0.0,0.0,0.0,0.0,0.0,0.0,0.0,0.0,0.0,0.0,0.0,0.0,0.0,0.0,0.0,0.0,0.0,0.0,0.0,0.0,0.0,0.0,4.935,4.9888,4.794,0.0,0.0,0.0,0.0,0.0,0.0,0.0,0.0,0.0,0.0,6.9163,7.2526,7.4001,0.0,0.0,7.646,7.6497,7.8112,7.7084,7.4762,7.087,6.7932,0.0,0.0,0.0,0.0,0.0,0.0,0.0,0.0,0.0,0.0,0.0,0.0,0.0,0.0,0.0,0.0,0.0,0.0,0.0,0.0,0.0,0.0,0.0,0.0,0.0,0.0,0.0,0.0,0.0,0.0,0.0,0.0,0.0,0.0,0.0,0.0,0.0,0.0,0.0,0.0,0.0,0.0,0.0,0.0,0.0,0.0,0.0,0.0,0.0,0.0,0.0,0.0,6.3012,6.6537,7.5299,8.0314,8.1342,8.27,8.3508,8.3765,8.3765,8.1746,0.0,0.0,0.0,0.0,0.0,0.0,0.0,0.0,0.0,0.0,0.0,0.0,0.0,0.0,0.0,0.0,0.0,0.0,0.0,0.0,0.0,0.0,0.0,0.0,0.0,0.0,0.0,0.0,5.2009,5.1883,4.9495,0.0,0.0,0.0,0.0,0.0,0.0,0.0,0.0,0.0,0.0,7.2,7.5189,7.613,7.6974,7.8369,7.7855,7.7635,7.8552,7.7635,7.5898,7.3031,0.0,0.0,0.0,0.0,0.0,0.0,0.0,0.0,0.0,0.0,0.0,0.0,0.0,0.0,0.0,0.0,0.0,0.0,0.0,0.0,0.0,0.0,0.0,0.0,0.0,0.0,0.0,0.0,0.0,0.0,4.543,0.0,0.0,0.0,0.0,0.0,0.0,0.0,0.0,0.0,0.0,0.0,0.0,0.0,0.0,0.0,0.0,0.0,0.0,0.0,0.0,0.0,0.0,6.3356,6.7488,7.5629,8.0571,8.215,8.2994,8.3801,8.4535,8.4572,8.2296,7.7451,0.0,0.0,0.0,0.0,0.0,0.0,0.0,0.0,0.0,0.0,0.0,0.0,0.0,0.0,0.0,0.0,0.0,0.0,0.0,0.0,0.0,0.0,0.0,0.0,0.0,0.0,4.871,5.0582,5.1522,0.0,0.0,0.0,0.0,0.0,0.0,0.0,0.0,0.0,0.0,6.9535,7.367,7.679,7.7304,7.7708,7.8552,7.7965,7.7157,7.657,7.7561,7.7194,0.0,0.0,0.0,0.0,0.0,0.0,0.0,0.0,0.0,0.0,0.0,0.0,0.0,0.0,0.0,0.0,0.0,0.0,0.0,0.0,0.0,0.0,0.0,0.0,0.0,0.0,0.0,5.1767,5.0524,0.0,0.0,0.0,0.0,0.0,0.0,0.0,0.0,0.0,0.0,0.0,6.3635,6.4442,0.0,0.0,0.0,0.0,0.0,0.0,0.0,0.0,0.0,0.0,0.0,0.0,6.4725,6.8513,7.6913,8.1929,8.2994,8.4315,8.5123,8.538,8.538,8.2847,7.7488,0.0,0.0,0.0,0.0,0.0,0.0,0.0,0.0,0.0,0.0,0.0,0.0,0.0,0.0,0.0,0.0,0.0,0.0,0.0,0.0,0.0,0.0,0.0,0.0,0.0,5.1573,0.0,0.0,0.0,0.0,0.0,0.0,0.0,0.0,0.0,0.0,0.0,6.5555,6.893,7.3003,7.6313,7.7928,7.9543,8.0645,0.0,0.0,0.0,0.0,0.0,0.0,0.0,0.0,0.0,0.0,0.0,0.0,0.0,0.0,6.586,5.904,5.7056,5.6402,5.6127,0.0,0.0,0.0,0.0,0.0,0.0,0.0,0.0,0.0,0.0,0.0,0.0,0.0,0.0,0.0,0.0,5.555,0.0,0.0,0.0,0.0,0.0,0.0,0.0,0.0,6.527,6.745,6.9082,6.9853,6.9669,0.0,6.7834,6.4677,0.0,0.0,0.0,0.0,0.0,0.0,0.0,0.0,6.6719,7.0951,7.8306,8.2737,8.3838,8.538,8.6334,8.6628,8.6371,8.4499,8.0791,7.7781,7.4478,0.0,0.0,0.0,0.0,0.0,0.0,0.0,0.0,0.0,0.0,0.0,0.0,0.0,0.0,0.0,0.0,0.0,0.0,0.0,0.0,0.0,0.0,0.0,5.484,0.0,0.0,0.0,0.0,0.0,0.0,0.0,0.0,0.0,5.969,6.5084,7.0168,7.3003,7.5946,7.8259,7.9653,0.0,0.0,0.0,0.0,0.0,0.0,0.0,8.0534,8.1342,7.9066,7.6349,7.4133,7.3931,7.3567,7.1837,0.0,0.0,6.5225,6.3233,6.269,6.2415,6.3526,6.4289,6.3658,6.5095,6.6323,0.0,0.0,0.0,0.0,0.0,0.0,0.0,0.0,6.2732,6.3025,0.0,6.2045,0.0,0.0,0.0,0.0,0.0,6.2054,0.0,0.0,7.2108,7.4625,7.6019,7.5359,7.5836,7.7194,7.4882,7.301,7.1211,6.5999,0.0,0.0,0.0,0.0,0.0,0.0,6.9301,7.4882,7.9837,8.3104,8.4682,8.6261,8.7435,8.8169,8.7472,8.7031,8.6811,8.1782,7.8038,7.6203,6.8715,0.0,0.0,0.0,0.0,0.0,0.0,0.0,0.0,0.0,0.0,0.0,0.0,0.0,0.0,0.0,0.0,0.0,0.0,0.0,0.0,5.785,0.0,0.0,0.0,0.0,0.0,0.0,0.0,0.0,0.0,0.0,6.5162,6.8766,7.3042,7.6778,0.0,0.0,0.0,0.0,8.2039,8.4352,8.4095,8.3654,8.3691,8.4792,8.5453,8.4829,0.0,0.0,7.8862,7.9711,7.954,7.4843,7.6491,7.7418,7.4445,7.1926,7.0291,6.9682,7.0061,7.0532,7.0739,7.2329,7.4184,6.9009,0.0,0.0,0.0,0.0,6.431,6.5632,6.7724,6.8531,6.8238,6.7136,6.69,0.0,0.0,0.0,0.0,0.0,0.0,6.9174,7.2291,7.4441,7.657,7.8699,7.8516,7.8626,7.9029,7.8369,7.7818,7.7304,7.5726,6.9082,5.7886,0.0,0.0,0.0,0.0,7.3208,7.6717,8.2003,8.527,8.6297,8.7325,8.8243,8.905,8.8867,8.8463,8.7839,8.5747,8.2774,7.8883,7.4845,0.0,0.0,0.0,0.0,0.0,0.0,0.0,0.0,0.0,0.0,0.0,0.0,0.0,0.0,0.0,0.0,0.0,0.0,0.0,5.4473,5.9538,6.1374,0.0,0.0,0.0,0.0,0.0,0.0,0.0,0.0,0.0,7.2629,7.4934,7.6972,0.0,0.0,8.1195,8.1305,8.3618,8.5527,8.6224,8.7105,0.0,8.7692,8.6628,8.6297,8.7802,8.7766,8.6786,8.4646,8.439,8.3546,8.0962,8.1221,8.1353,7.9939,7.7143,7.5275,7.5512,7.5481,7.5257,7.5361,7.6376,7.7078,7.5285,7.1578,6.9155,6.8825,6.9853,7.0183,7.1505,7.3523,7.4331,7.4111,7.3193,7.2899,7.1138,6.8311,6.6843,0.0,0.0,0.0,7.3487,7.6644,7.7598,7.9176,8.1122,8.1195,8.1379,8.1672,8.1048,8.1085,8.1672,8.0718,7.5542,6.6476,0.0,0.0,6.6806,7.2275,7.6644,7.9764,8.4058,8.6518,8.6995,8.8426,8.9528,9.0335,9.0041,8.9638,8.916,8.839,8.6334,8.281,8.0021,7.646,0.0,0.0,0.0,0.0,0.0,0.0,0.0,0.0,0.0,0.0,0.0,5.1661,4.8712,0.0,0.0,0.0,5.6887,5.8731,6.1337,6.4824,0.0,0.0,0.0,0.0,0.0,0.0,0.0,7.0881,7.3964,7.6533,7.8295,7.9653,8.0388,8.0057,8.1562,8.2847,8.3324,0.0,8.7325,8.828,8.9271,9.0005,9.0298,8.9124,8.861,8.9674,8.9491,8.8871,8.807,8.7559,8.6752,8.5556,8.5175,8.4996,8.4565,8.2453,8.0316,7.9457,7.8868,7.8499,7.821,7.8741,7.9028,8.0167,7.9764,7.5322,7.4184,7.5359,7.6093,7.7304,7.8809,7.9543,7.991,7.991,7.9213,7.7635,7.5359,7.3193,0.0,7.5506,7.6313,7.8295,8.1195,8.1269,8.2076,8.3471,8.3508,8.3875,8.4535,8.3104,8.3141,8.4425,8.2443,8.0608,7.914,7.6974,7.6019,7.635,7.7341,7.98,8.3654,8.593,8.7178,8.7325,8.9528,9.1069,9.1767,9.1106,9.0702,9.0665,8.9931,8.883,8.7288,8.4278,8.0865,7.7121,0.0,0.0,0.0,0.0,0.0,0.0,0.0,0.0,0.0,0.0,0.0,0.0,0.0,0.0,0.0,6.743,0.0,7.2202,7.1872,0.0,0.0,0.0,6.7063,6.7504,7.1358,7.4404,7.5469,0.0,0.0,8.237,8.3177,8.3434,8.2774,8.3251,8.4499,8.6701,8.7178,8.8096,9.0188,9.0629,9.0959,9.151,9.151,9.1253,9.0776,9.0702,9.0408,8.975,8.9566,8.9276,8.8313,8.8309,8.8237,8.82,8.7205,8.5823,8.2143,8.143,8.1086,8.0588,8.0836,8.1251,8.3471,8.3361,8.2186,8.0534,7.8662,7.8809,7.947,8.0424,8.0645,8.1048,8.1599,8.1415,8.1012,8.0424,7.9874,7.991,8.0498,8.1305,8.2076,8.2847,8.3471,8.3948,8.4315,8.4315,8.4425,8.4572,8.4205,8.4242,8.4609,8.4646,8.4462,8.4095,8.4095,8.2076,7.8295,8.1232,8.3948,8.6151,8.7325,8.85,8.9711,9.0922,9.162,9.1803,9.162,9.151,9.151,9.0739,9.0152,8.9711,8.7252,8.5416,8.4389,7.5909,0.0,0.0,0.0,0.0,0.0,0.0,0.0,0.0,0.0,5.9575,5.5076,0.0,6.2449,0.0,7.3171,7.4992,7.1064,7.2716,0.0,0.0,7.1248,7.1872,7.613,7.6533,7.7708,8.1048,8.226,8.3361,8.4756,8.5637,8.6334,8.6664,8.6407,8.6371,8.6995,8.8647,8.9931,9.0519,9.1106,9.1583,9.1767,9.1803,9.1803,9.1546,9.151,9.1436,9.1253,9.1216,9.096,9.0228,8.9972,8.9752,8.924,8.8911,8.8283,8.6679,8.5857,8.5309,8.5138,8.5194,8.504,8.5453,8.5123,8.5123,8.3911,8.1929,8.1929,8.2186,8.259,8.259,8.2847,8.3287,8.3251,8.3251,8.3251,8.3251,8.3251,8.3287,8.3765,8.4132,8.4499,8.4903,8.549,8.6187,8.6224,8.6371,8.6738,8.6738,8.6738,8.6775,8.7178,8.7399,8.7399,8.7839,8.6518,8.3618,8.527,8.6481,8.6995,8.85,8.9858,9.1069,9.1583,9.1473,9.0812,9.1436,9.1473,9.0776,9.0996,9.0482,8.905,8.7729,8.6518,8.538,7.991,7.613,0.0,0.0,0.0,0.0,0.0,0.0,0.0,0.0,0.0,0.0,0.0,6.6976,7.0254,7.6069,7.8075,7.4221,7.646,7.7965,7.7524,7.7011,7.7965,8.1085,8.0901,8.1562,8.4168,8.4792,8.549,8.6701,8.7582,8.8353,8.916,8.8904,8.861,8.8683,8.9821,9.0739,9.1106,9.151,9.195,9.2317,9.2684,9.2905,9.2905,9.2905,9.2905,9.2868,9.2611,9.2207,9.1803,9.14,9.0996,9.0592,9.0482,9.0301,8.9895,8.9366,8.8526,8.7145,8.7001,8.708,8.6921,8.6261,8.6261,8.5857,8.5233,8.5233,8.5086,8.4903,8.4903,8.5013,8.5196,8.5123,8.5123,8.5196,8.5013,8.5013,8.5196,8.5123,8.549,8.6224,8.6261,8.6995,8.8353,8.8353,8.872,8.9417,8.9417,8.9417,8.9417,8.9528,8.9564,8.9564,8.9674,8.9638,8.9417,8.8904,8.828,8.7509,8.9564,9.0922,9.162,9.173,9.1069,8.9711,9.1143,9.1253,8.9821,9.1069,9.0519,8.7839,8.7509,8.6518,8.4462,8.3765,8.1122,0.0,7.5102,0.0,0.0,0.0,0.0,0.0,0.0,0.0,0.0,7.2175,7.2578,7.2422,7.7928,8.0901,7.9507,8.1269,8.2553,8.2663,8.3287,8.3801,8.4022,8.4646,8.538,8.6151,8.6885,8.7619,8.8426,8.9124,8.9858,9.0555,9.0665,9.0592,9.0702,9.0739,9.1033,9.173,9.1877,9.2354,9.3088,9.3786,9.4189,9.4226,9.4189,9.4299,9.4189,9.3675,9.3235,9.3161,9.2648,9.217,9.2134,9.2134,9.2097,9.206,9.2024,9.1027,8.8554,8.811,8.8338,8.8867,8.8757,8.872,8.8647,8.85,8.85,8.7766,8.6554,8.6554,8.7288,8.8426,8.7802,8.7876,8.839,8.7142,8.7288,8.8463,8.7839,8.7949,8.8757,8.872,8.8904,8.9197,8.9197,8.9271,8.9417,8.9417,8.9417,8.9417,9.0078,9.0372,9.0408,9.1033,9.0702,8.9564,0.0,0.0,0.0,9.0372,9.0665,9.0849,9.1473,9.1363,9.0482,9.1987,0.0,9.1436,9.1657,9.151,9.0922,9.0262,0.0,0.0,0.0,0.0,0.0,0.0,0.0,0.0,0.0,0.0,0.0,7.4822,7.4249,7.3347,7.795,8.025,7.8516,8.1709,8.3801,8.3508,8.3875,8.4425,8.5013,8.5233,8.5857,8.7105,8.7435,8.7839,8.861,8.8867,8.9271,9.0005,9.0298,9.0665,9.14,9.1583,9.1583,9.1583,9.1583,9.162,9.1803,9.2464,9.3161,9.3932,9.4226,9.4446,9.4299,9.4299,9.4336,9.4373,9.4226,9.4079,9.4079,9.3932,9.3786,9.3786,9.3822,9.3712,9.3786,9.3786,9.3234,9.1287,9.0956,9.0878,9.0372,0.0,9.0005,8.9784,0.0,8.9417,8.9197,8.8757,8.839,8.8647,8.9381,8.8977,8.9014,8.9381,8.8573,8.8647,8.9417,8.8977,8.9014,8.9417,8.9417,8.9638,9.0005,9.0005,9.0225,9.0592,9.0592,9.0592,9.0629,9.0996,9.1179,9.1179,9.1583,9.14,9.0665,9.1803,9.2244,9.184,9.184,9.2024,9.2427,9.2831,9.2427,9.1326,9.2794,0.0,0.0,0.0,0.0,0.0,0.0,0.0,0.0,0.0,0.0,8.4535,8.226,8.0498,7.9727,7.9286,7.9947,8.1929,8.248,8.1489,7.8673,8.1864,8.3838,8.3434,8.4866,8.6114,8.6885,8.6958,8.7142,8.7509,8.7582,8.7949,8.8647,8.8793,8.9124,8.9821,9.0005,9.0298,9.1106,9.1179,9.1326,9.1767,9.217,9.2464,9.2427,9.2427,9.2537,9.2978,9.3749,9.441,9.4813,9.5254,9.5474,9.5474,9.5474,9.5474,9.5474,9.5144,9.4887,9.485,9.4593,9.4299,9.4299,9.4299,9.4299,9.4299,9.4299,9.4079,9.3161,9.3051,9.2941,9.151,9.1033,9.1033,9.0665,9.0078,9.0078,9.0445,9.0996,0.0,0.0,0.0,8.9711,8.9711,8.9821,8.9528,8.9564,8.9821,8.9674,8.9711,8.9858,9.0005,9.0408,9.1033,9.1179,9.1583,9.2207,9.2244,9.2244,9.2244,9.2244,9.217,9.206,9.217,9.2244,9.2281,9.2941,9.3382,9.3492,9.3235,9.3418,9.4042,9.4226,9.3565,9.206,9.3639,9.3492,9.1363,9.2574,9.206,8.9454,8.9271,8.8904,8.8133,8.8096,8.8243,8.8573,8.861,8.828,8.7509,8.7435,8.7435,8.7435,8.8023,8.7252,8.4462,8.5013,8.6004,8.7325,8.7435,8.7986,8.9271,8.9417,8.9491,8.9601,8.9638,8.9674,8.9821,8.9821,9.0152,9.0665,9.0812,9.1033,9.1657,9.1913,9.2024,9.2134,9.2794,9.3418,9.3492,9.3418,9.3565,9.4299,9.4923,9.5474,9.5768,9.6171,9.6722,9.6832,9.6869,9.6942,9.6979,9.6575,9.6208,9.6282,9.5474,9.5107,9.496,9.496,9.474,9.474,9.4703,9.474,9.4703,9.4703,9.4593,9.217,9.2758,9.2758,9.2684,9.2574,9.2574,9.2648,9.2684,9.184,9.1473,9.1436,9.0739,9.0812,9.14,9.0005,9.0188,9.14,9.0739,9.0812,0.0,9.2244,9.2648,9.2794,9.3455,9.3822,9.3932,9.3932,9.3932,9.3932,9.3932,9.3602,9.3088,9.3602,9.3932,9.3969,9.4079,9.4483,9.5107,9.3822,9.3161,9.3272,9.3932,9.3859,9.3051,9.452,9.4887,9.3859,9.3969,9.3932,9.3455,9.3455,9.3088,9.2317,9.2207,9.1657,9.0408,9.0262,8.9931,8.916,8.9087,8.905,8.9087,8.9197,8.8757,8.7692,8.828,8.883,8.9087,8.905,8.916,8.9417,8.9491,8.9784,9.0335,9.0445,9.0702,9.1289,9.1363,9.14,9.1546,9.162,9.1657,9.1877,9.2464,9.2905,9.3051,9.3602,9.4336,9.485,9.4556,9.452,9.5144,9.5437,9.5768,9.6392,9.6612,9.7016,9.764,9.775,9.7933,9.8484,9.8411,9.83,9.8521,9.7713,9.7346,9.7273,9.6795,9.6392,9.6282,9.6245,9.6208,9.6171,9.6208,9.5878,9.2978,9.3712,9.3749,9.3749,9.3749,9.3749,9.3749,9.3712,9.3308,9.3161,9.3088,9.2758,9.2794,9.3088,9.2391,9.2464,9.3125,9.2758,9.2794,9.3161,9.3565,9.3749,9.3786,9.4116,9.4299,9.4299,9.4299,9.4299,9.4299,9.4299,9.4116,9.3786,9.4116,9.4299,9.4336,9.474,9.5144,9.5474,9.4777,9.463,9.507,9.5437,9.5401,9.507,9.5804,9.5804,9.4997,9.496,9.474,9.4299,9.4299,9.4116,9.3786,9.3749,9.3382,9.2648,9.2207,9.1803,9.1436,9.0959,9.0702,9.0702,9.0702,9.0555,9.0188,8.9674,8.9601,9.0005,9.0078,9.0262,9.0665,9.0702,9.0849,9.1216,9.1253,9.14,9.1693,9.1803,9.1803,9.184,9.2244,9.2501,9.2501,9.3235,9.3749,9.3822,9.4446,9.5254,9.6025,9.5878,9.5731,9.6098,9.6171,9.6502,9.7163,9.7346,9.7676,9.8411,9.8557,9.8704,9.9071,9.9145,9.9145,9.9108,9.8778,9.8594,9.8557,9.7897,9.7456,9.7309,9.6942,9.6759,9.6722,9.7016,9.6906,9.3859,9.4556,9.4556,9.4556,9.4556,9.4373,9.4373,9.4556,9.4556,9.4666,9.4777,9.4483,9.4299,9.4299,9.4299,9.4299,9.4299,9.4299,9.4299,9.4299,9.4483,9.4556,9.4593,9.474,9.485,9.485,9.485,9.485,9.4813,9.485,9.485,9.4813,9.4666,9.4666,9.485,9.5474,9.5768,9.5804,9.5768,9.6098,9.6685,9.6722,9.6722,9.6722,9.6685,9.6392,9.5804,9.5768,9.5474,9.4887,9.485,9.474,9.4593,9.4556,9.4483,9.4263,9.3712,9.3382,9.3345,9.2758,9.2281,9.2097,9.2097,9.1987,9.173,9.0702,9.0188,9.0776,9.0886,9.1143,9.162,9.195,9.206,9.2097,9.2244,9.2427,9.2391,9.2354,9.2354,9.2427,9.2978,9.3382,9.3492,9.4079,9.463,9.4923,9.5511,9.6282,9.6832,9.7089,9.7236,9.7199,9.7089,9.7199,9.7823,9.8043,9.8484,9.9218,9.9548,9.9695,9.9805,9.9805,9.9805,9.9842,9.9512,9.9402,9.9328,9.8741,9.8264,9.8117,9.775,9.7383,9.7419,9.7787,9.797,9.4666,9.5364,9.5401,9.5401,9.5327,9.463,9.4777,9.5364,9.5364,9.5804,9.6245,9.496,9.4336,9.4299,9.4336,9.4373,9.4373,9.4299,9.4336,9.4446,9.507,9.5401,9.5474,9.6098,9.6465,9.6428,9.6392,9.6355,9.6355,9.6392,9.6465,9.6392,9.5768,9.5731,9.6355,9.6502,9.6575,9.6612,9.6612,9.6612,9.6685,9.6722,9.6722,9.6722,9.6722,9.6685,9.6612,9.6575,9.6575,9.6502,9.6428,9.6135,9.5511,9.5401,9.507,9.4373,9.4226,9.4189,9.4153,9.4116,9.3712,9.3088,9.2978,9.2648,9.1987,9.1693,9.1583,9.173,9.1693,9.173,9.184,9.2501,9.2941,9.3015,9.3529,9.4079,9.3969,9.4079,9.4079,9.4079,9.4042,9.4189,9.4263,9.496,9.5694,9.6282,9.7016,9.7566,9.7787,9.8264,9.8631,9.8631,9.83,9.7897,9.8117,9.8557,9.9255,10.0062,10.0796,10.1053,10.1164,10.1641,10.2155,10.109,10.0686,10.0319,10.0026,9.9585,9.9035,9.8961,9.8851,9.8814,9.8888,9.8924,9.8888,9.5474,9.6208,9.6208,9.6208,9.6171,9.5841,9.5914,9.6208,9.6208,9.6392,9.6612,9.5988,9.5694,9.5731,9.5694,9.5731,9.5731,9.5731,9.5694,9.5731,9.6098,9.6208,9.6245,9.6539,9.6722,9.6722,9.6722,9.6722,9.6722,9.6722,9.6722,9.6685,9.6355,9.6392,9.6685,9.6722,9.6722,9.6722,9.6722,9.6906,9.7309,9.6942,9.6722,9.6759,9.7163,9.7419,9.7383,9.7419,9.7419,9.7346,9.6979,9.6575,9.6245,9.6208,9.6061,9.5731,9.5254,9.4813,9.4336,9.4299,9.4153,9.3822,9.3822,9.3639,9.3345,9.3272,9.3272,9.3235,9.2868,9.2574,9.2648,9.3308,9.3786,9.3859,9.4116,9.4299,9.4299,9.4299,9.4299,9.4299,9.4703,9.4997,9.5217,9.6135,9.6979,9.7456,9.808,9.8594,9.8631,9.8924,9.9071,9.9145,9.9181,9.9328,9.9328,9.9548,10.0172,10.0796,10.1274,10.1567,10.2191,10.2375,10.2522,10.2228,10.1861,10.142,10.1053,10.0393,9.9805,9.9769,9.9365,9.9218,9.9695,9.9805,9.9952,9.6171,9.6649,9.6722,9.6722,9.6722,9.6722,9.6722,9.6722,9.6722,9.6722,9.6722,9.6722,9.6722,9.6722,9.6722,9.6722,9.6722,9.6722,9.6722,9.6722,9.6722,9.6722,9.6722,9.6722,9.6722,9.6722,9.6722,9.6722,9.6722,9.6722,9.6722,9.6722,9.6722,9.6722,9.6722,9.6722,9.6722,9.6722,9.6906,9.7309,9.775,9.753,9.7346,9.7419,9.7933,9.8227,9.819,9.8007,9.7897,9.786,9.7126,9.6722,9.6722,9.6722,9.6722,9.6685,9.6171,9.5584,9.4997,9.496,9.485,9.4666,9.463,9.452,9.4336,9.4299,9.4299,9.4226,9.3969,9.3712,9.3529,9.4153,9.4593,9.463,9.4777,9.496,9.4997,9.496,9.4997,9.4997,9.5547,9.5951,9.6245,9.7126,9.786,9.8227,9.8924,9.9438,9.9512,9.9622,9.9842,9.9769,10.0283,10.0429,10.0393,10.0503,10.0943,10.1604,10.2008,10.2485,10.2999,10.3146,10.3146,10.3182,10.2962,10.2558,10.1934,10.1237,10.0613,10.0503,10.0209,9.9952,10.0503,10.0613,10.0833,9.6685,9.6722,9.6722,9.6722,9.6722,9.6722,9.6722,9.6722,9.6722,9.6722,9.6722,9.6722,9.6722,9.6722,9.6722,9.6722,9.6722,9.6722,9.6722,9.6722,9.6722,9.6722,9.6722,9.6722,9.6722,9.6722,9.6722,9.6722,9.6722,9.6722,9.6722,9.6722,9.6722,9.6722,9.6759,9.6759,9.6722,9.6832,9.7419,9.786,9.8007,9.8668,9.8961,9.8998,9.9035,9.9071,9.8998,9.8337,9.7933,9.7933,9.7236,9.6795,9.6722,9.6722,9.6722,9.6685,9.6649,9.6612,9.6502,9.6428,9.6171,9.5584,9.5437,9.5144,9.4593,9.452,9.452,9.4336,9.4997,9.5034,9.452,9.5034,9.5437,9.5511,9.6098,9.6428,9.6502,9.6355,9.6575,9.6502,9.6539,9.6869,9.7566,9.7823,9.8374,9.8998,9.9732,10.0246,10.0319,10.0833,10.1127,10.1164,10.1237,10.1164,10.0576,10.1017,10.1751,10.2301,10.2852,10.366,10.4063,10.432,10.421,10.399,10.3476,10.3036,10.2632,10.2155,10.1604,10.142,10.1384,10.1384,10.1677,10.1531,10.1714,9.6722,9.6722,9.6722,9.6722,9.6722,9.6722,9.6722,9.6722,9.6722,9.6722,9.6722,9.6722,9.6722,9.6722,9.6722,9.6722,9.6722,9.6722,9.6722,9.6722,9.6722,9.6722,9.6722,9.6722,9.6722,9.6722,9.6722,9.6722,9.6722,9.6722,9.6979,9.7309,9.6942,9.6942,9.7273,9.6942,9.6942,9.7419,9.7787,9.8374,9.9328,9.9732,10.0099,10.0576,10.0136,9.9879,9.9879,9.9585,9.9438,9.9438,9.8668,9.8007,9.7493,9.6979,9.6722,9.6722,9.6722,9.6722,9.6722,9.6722,9.6575,9.6318,9.6282,9.6135,9.5914,9.5841,9.5841,9.5878,9.6025,9.6061,9.5988,9.6135,9.6282,9.6318,9.6539,9.6722,9.6722,9.6722,9.6722,9.6795,9.7126,9.7603,9.8043,9.8778,9.9512,9.9879,10.054,10.0943,10.1053,10.1347,10.1494,10.1494,10.1494,10.1604,10.1934,10.2045,10.2448,10.2779,10.3293,10.4027,10.4577,10.4834,10.4798,10.4798,10.4247,10.377,10.3439,10.2815,10.2375,10.2265,10.2265,10.2448,10.2925,10.2669,10.2779,9.6869,9.7052,9.7089,9.7236,9.7456,9.7493,9.7456,9.7493,9.7493,9.7493,9.7493,9.7456,9.7493,9.7493,9.7456,9.7493,9.7419,9.7236,9.7236,9.7456,9.7456,9.7456,9.7493,9.7493,9.7456,9.7493,9.7493,9.7383,9.7163,9.7346,9.775,9.8227,9.7713,9.775,9.8117,9.775,9.7787,9.8227,9.8521,9.9218,10.0209,10.0576,10.0907,10.131,10.0943,10.0686,10.065,10.0429,10.0319,10.0209,9.9512,9.8851,9.83,9.7787,9.7493,9.7493,9.7493,9.7346,9.7126,9.7089,9.6979,9.6722,9.6722,9.6722,9.6722,9.6722,9.6722,9.6722,9.6722,9.6759,9.7016,9.7089,9.6979,9.6795,9.6722,9.6832,9.7052,9.7089,9.7236,9.7566,9.797,9.8337,9.8704,9.9622,10.0283,10.0613,10.12,10.1457,10.1494,10.1494,10.1494,10.1531,10.1788,10.2118,10.2595,10.2999,10.3513,10.388,10.3953,10.4614,10.5091,10.5348,10.5458,10.5458,10.5201,10.4687,10.4137,10.3513,10.3219,10.3109,10.3072,10.3219,10.3513,10.3733,10.3733,9.7199,9.786,9.7897,9.83,9.8851,9.8888,9.9035,9.8998,9.9035,9.9035,9.9108,9.9071,9.8961,9.9035,9.8888,9.8998,9.8888,9.8337,9.8337,9.8851,9.8924,9.8924,9.8888,9.8851,9.8851,9.8851,9.8998,9.8631,9.797,9.8521,9.8924,9.9071,9.8998,9.8888,9.9108,9.8961,9.8998,9.9218,9.9732,10.0209,10.0393,10.1017,10.142,10.1494,10.142,10.1384,10.142,10.076,10.0429,10.0319,9.9695,9.9181,9.9145,9.8961,9.8998,9.8888,9.8998,9.8631,9.8007,9.7897,9.7603,9.7126,9.6832,9.6979,9.7052,9.6979,9.6942,9.6869,9.6942,9.7089,9.7676,9.786,9.7676,9.6942,9.7016,9.7309,9.7713,9.7897,9.819,9.8778,9.9035,9.9438,10.0026,10.0356,10.0723,10.131,10.1604,10.1751,10.1861,10.1898,10.1641,10.1788,10.2265,10.2852,10.3403,10.3953,10.4577,10.5091,10.5091,10.5385,10.5752,10.6046,10.5972,10.5972,10.5715,10.5238,10.4541,10.399,10.399,10.3917,10.3917,10.4027,10.4394,10.4614,10.4394,9.8007,9.8704,9.8741,9.8851,9.9108,9.9108,9.9402,9.9916,9.9916,10.0246,10.0576,10.0172,9.9916,9.9769,9.9402,9.9438,9.9879,9.9659,9.9402,9.9181,9.9145,9.9145,9.9145,9.9145,9.9108,9.9108,9.9108,9.8998,9.8851,9.9035,9.9365,9.9732,9.9365,9.9438,9.9879,9.9402,9.9328,9.9916,10.0172,10.054,10.1053,10.1347,10.1494,10.1494,10.1494,10.1494,10.1457,10.1237,10.1127,10.109,10.087,10.0503,9.9989,9.9402,9.9108,9.9108,9.9108,9.9035,9.8778,9.8741,9.8631,9.8374,9.8337,9.8374,9.8374,9.83,9.8043,9.7713,9.8007,9.8337,9.8043,9.8411,9.8594,9.8374,9.8374,9.8374,9.8668,9.8778,9.8814,9.9108,9.9585,10.0026,10.0356,10.0686,10.142,10.2118,10.2301,10.2448,10.2962,10.2962,10.3146,10.3219,10.3513,10.366,10.4173,10.4651,10.5165,10.5605,10.5752,10.5752,10.6156,10.6376,10.6376,10.6302,10.6046,10.5678,10.5018,10.4724,10.4724,10.4724,10.4761,10.5054,10.5458,10.5458,10.5201,9.8814,9.9512,9.9548,9.9732,9.9989,9.9989,10.0283,10.0686,10.076,10.1053,10.131,10.098,10.076,10.065,10.0209,10.0283,10.0723,10.0723,10.0466,10.0062,9.9989,9.9989,9.9989,9.9989,9.9805,9.9659,9.9842,9.9842,9.9585,9.9879,10.0246,10.054,10.0246,10.0246,10.0686,10.0283,10.0283,10.0686,10.076,10.098,10.142,10.1788,10.1934,10.1971,10.2228,10.2228,10.2008,10.1934,10.1788,10.1531,10.1494,10.12,10.0723,10.0283,9.9989,9.9989,9.9952,9.9916,9.9622,9.9548,9.9365,9.9181,9.9108,9.9071,9.9108,9.9108,9.8814,9.8557,9.8741,9.8998,9.8924,9.9218,9.9659,9.9952,9.9365,9.9292,9.9475,9.9842,9.9989,10.0172,10.0466,10.0686,10.0907,10.1457,10.2081,10.2632,10.2962,10.3219,10.377,10.3843,10.3917,10.4063,10.421,10.4467,10.4944,10.5385,10.5789,10.6046,10.6229,10.6192,10.6339,10.6376,10.6376,10.6376,10.6229,10.6156,10.5605,10.5605,10.5605,10.5605,10.5532,10.5752,10.6009,10.6119,10.5972,9.9622,10.0319,10.0356,10.076,10.131,10.1347,10.142,10.1531,10.1567,10.1641,10.1714,10.1641,10.1567,10.1567,10.131,10.1347,10.1567,10.1567,10.1531,10.1457,10.1457,10.1384,10.1237,10.12,10.087,10.054,10.1017,10.098,10.0429,10.0943,10.1494,10.1347,10.131,10.142,10.1347,10.1457,10.131,10.1347,10.142,10.1457,10.1531,10.2265,10.2632,10.2669,10.3293,10.3403,10.2889,10.2742,10.2375,10.1641,10.1494,10.1457,10.1457,10.1457,10.131,10.1274,10.142,10.1017,10.054,10.0356,10.0136,9.9585,9.9512,9.9218,9.9475,9.9548,9.9438,9.9218,9.9365,9.9585,10.0026,10.0319,10.065,10.1127,10.0246,9.9842,10.0319,10.098,10.1127,10.1274,10.1457,10.1531,10.1531,10.2191,10.2632,10.3109,10.3623,10.399,10.4284,10.4467,10.4173,10.443,10.4944,10.5165,10.5605,10.5752,10.6119,10.6192,10.6376,10.6413,10.6413,10.6413,10.6376,10.6376,10.6523,10.6449,10.6339,10.6192,10.6156,10.6082,10.6119,10.6339,10.6376,10.6376,10.6376,10.0466,10.1164,10.1164,10.131,10.1494,10.1494,10.1824,10.2338,10.2338,10.2558,10.2999,10.2632,10.2338,10.2338,10.1788,10.1788,10.2265,10.2375,10.2375,10.2375,10.2375,10.2008,10.1604,10.1494,10.1384,10.12,10.1347,10.1384,10.12,10.1384,10.1494,10.1494,10.1494,10.1494,10.1494,10.1494,10.1494,10.1494,10.1494,10.1494,10.1641,10.2338,10.2669,10.2779,10.3513,10.3806,10.3586,10.3586,10.2889,10.1641,10.1494,10.1494,10.1494,10.1494,10.1494,10.1494,10.1494,10.142,10.12,10.1127,10.1017,10.0907,10.0686,10.0833,10.087,10.087,10.0576,10.0283,10.0466,10.065,10.0503,10.0796,10.1237,10.1384,10.1017,10.087,10.109,10.131,10.1494,10.1494,10.1494,10.1788,10.2228,10.2669,10.3219,10.41,10.4614,10.4944,10.5238,10.5422,10.5311,10.5605,10.5972,10.6009,10.6156,10.6266,10.6339,10.6339,10.6376,10.6413,10.6449,10.6486,10.6449,10.6376,10.6816,10.689,10.6596,10.6339,10.6413,10.6559,10.6413,10.6413,10.6376,10.6376,10.6376,10.1053,10.1494,10.1494,10.1494,10.1494,10.1494,10.1751,10.2118,10.2191,10.2412,10.2779,10.2815,10.2705,10.2669,10.2558,10.2742,10.3146,10.3219,10.3182,10.3219,10.3219,10.2558,10.1751,10.1494,10.1494,10.1494,10.1494,10.1494,10.1457,10.1494,10.1494,10.1494,10.1494,10.1494,10.1494,10.1494,10.1494,10.1494,10.1494,10.1604,10.2008,10.2815,10.3403,10.377,10.4467,10.4834,10.4467,10.41,10.3146,10.1934,10.1751,10.1861,10.1531,10.1494,10.1494,10.1494,10.1494,10.1494,10.1494,10.1494,10.1494,10.1494,10.1494,10.1494,10.1457,10.1494,10.12,10.0943,10.1274,10.12,10.1017,10.1237,10.1457,10.1531,10.1788,10.1824,10.1531,10.1457,10.1494,10.1567,10.1824,10.2155,10.2742,10.3256,10.4063,10.4871,10.5385,10.5789,10.6156,10.6339,10.6376,10.6376,10.6376,10.6302,10.6266,10.6339,10.6376,10.6376,10.6559,10.6559,10.6853,10.689,10.7073,10.7147,10.7294,10.733,10.7183,10.7037,10.6963,10.6963,10.667,10.6449,10.6449,10.6706,10.667,10.1494,10.1494,10.1494,10.1531,10.1641,10.1604,10.1824,10.1824,10.1971,10.1971,10.2155,10.2595,10.2925,10.2889,10.3403,10.388,10.399,10.4027,10.4027,10.399,10.3806,10.3109,10.2118,10.1824,10.1788,10.1714,10.1567,10.1494,10.1494,10.1494,10.1494,10.1494,10.1494,10.1494,10.1494,10.1494,10.1494,10.1494,10.1494,10.1861,10.2558,10.3329,10.4063,10.4834,10.5642,10.5642,10.5091,10.4504,10.3549,10.1861,10.2448,10.2448,10.1898,10.1751,10.1641,10.1641,10.1604,10.1494,10.1494,10.1494,10.1494,10.1494,10.1494,10.1494,10.1494,10.1494,10.1457,10.1347,10.1457,10.1531,10.1641,10.1641,10.1824,10.2045,10.2522,10.2412,10.1971,10.1751,10.1714,10.1751,10.2448,10.2779,10.3293,10.41,10.5128,10.5422,10.5862,10.6119,10.6339,10.6376,10.6376,10.6376,10.6376,10.6376,10.6376,10.6376,10.6376,10.6413,10.6706,10.6926,10.7477,10.7697,10.8028,10.8175,10.8064,10.8138,10.8321,10.8101,10.7697,10.7367,10.7037,10.678,10.6633,10.7147,10.733,10.1494,10.1494,10.1494,10.1861,10.2375,10.2448,10.2779,10.3293,10.3329,10.3219,10.3403,10.3549,10.366,10.366,10.3953,10.421,10.4798,10.4871,10.4871,10.4761,10.4137,10.3806,10.3219,10.2815,10.2485,10.2338,10.1788,10.1531,10.1567,10.1677,10.1494,10.1531,10.1604,10.1494,10.1494,10.1494,10.1494,10.1494,10.1494,10.1971,10.2779,10.3549,10.4357,10.5165,10.5972,10.5899,10.5458,10.5605,10.5018,10.388,10.3549,10.3586,10.3182,10.2742,10.2448,10.2338,10.1861,10.1567,10.1531,10.1641,10.1531,10.1641,10.1641,10.1494,10.1494,10.1494,10.1494,10.1494,10.1494,10.1751,10.2228,10.2412,10.2632,10.3036,10.3439,10.3586,10.3403,10.3329,10.3219,10.3329,10.3476,10.3843,10.443,10.4724,10.5422,10.5935,10.6192,10.6339,10.6376,10.6376,10.6376,10.6376,10.6376,10.6376,10.6376,10.6376,10.6376,10.6523,10.6816,10.733,10.7918,10.8358,10.8615,10.8688,10.8688,10.8909,10.9276,10.8321,10.7734,10.7587,10.7477,10.722,10.722,10.7661,10.7954,10.1494,10.1531,10.1898,10.2301,10.2742,10.3109,10.3513,10.3843,10.388,10.388,10.399,10.4284,10.4467,10.4541,10.4908,10.5385,10.5605,10.5715,10.5715,10.5642,10.5238,10.5091,10.4871,10.4247,10.3696,10.3293,10.2889,10.2632,10.2632,10.2522,10.2485,10.2081,10.2045,10.1824,10.1531,10.1531,10.1494,10.1604,10.1898,10.2448,10.3256,10.4027,10.4871,10.5568,10.6156,10.6119,10.5825,10.6119,10.5862,10.5311,10.5018,10.4651,10.399,10.3513,10.3293,10.3182,10.2925,10.2632,10.2632,10.2632,10.2669,10.2558,10.2301,10.2118,10.1934,10.1751,10.1494,10.1494,10.1567,10.1824,10.2558,10.2669,10.3109,10.377,10.4284,10.443,10.4394,10.4137,10.388,10.399,10.4173,10.4577,10.4981,10.5348,10.5715,10.6229,10.6229,10.6376,10.6376,10.6376,10.6376,10.6376,10.6376,10.6376,10.6376,10.6376,10.6376,10.6633,10.7,10.7661,10.8395,10.8799,10.9129,10.9386,10.9716,10.9973,11.0083,10.8982,10.8138,10.8101,10.8028,10.7771,10.7771,10.8138,10.8395,10.1531,10.1714,10.2412,10.2852,10.3182,10.3806,10.421,10.432,10.4284,10.4467,10.4394,10.5018,10.5311,10.5458,10.5972,10.6339,10.6339,10.6339,10.6229,10.6192,10.6156,10.6082,10.5972,10.5458,10.4908,10.4284,10.3806,10.377,10.3733,10.3843,10.3329,10.2962,10.2889,10.2669,10.2045,10.1898,10.2045,10.2191,10.2632,10.3293,10.399,10.4724,10.5422,10.6119,10.6339,10.6376,10.6266,10.6339,10.6339,10.6376,10.6376,10.5605,10.4687,10.41,10.41,10.4063,10.3843,10.3623,10.3586,10.3696,10.3733,10.3843,10.3293,10.2925,10.2742,10.2412,10.2045,10.1824,10.1861,10.2228,10.2925,10.3293,10.3623,10.4284,10.4981,10.5238,10.5201,10.4651,10.4504,10.4541,10.4981,10.5422,10.5605,10.5862,10.6156,10.6376,10.6376,10.6376,10.6376,10.6376,10.6376,10.6376,10.6376,10.6376,10.6376,10.6376,10.6376,10.6706,10.711,10.7954,10.8799,10.9533,11.0047,11.056,11.0928,11.1001,11.0671,10.9753,10.9129,10.8909,10.8725,10.8615,10.8652,10.8688,10.8982,10.1898,10.2522,10.2669,10.3439,10.4614,10.4871,10.5311,10.5935,10.5825,10.5935,10.5935,10.6082,10.6119,10.6192,10.6266,10.6376,10.6376,10.6376,10.6376,10.6376,10.6376,10.6376,10.6302,10.6156,10.5935,10.5605,10.4798,10.4137,10.4063,10.3843,10.399,10.377,10.3696,10.3549,10.3403,10.3476,10.3256,10.3219,10.3549,10.41,10.4651,10.5128,10.5568,10.6302,10.6376,10.6376,10.6376,10.6376,10.6376,10.6376,10.6376,10.6192,10.5752,10.5238,10.4981,10.4798,10.443,10.421,10.4173,10.4027,10.3953,10.388,10.377,10.3733,10.366,10.3476,10.2999,10.2632,10.2595,10.3072,10.4577,10.4467,10.5054,10.5678,10.5935,10.6082,10.6046,10.5899,10.5715,10.5642,10.5935,10.6082,10.6082,10.6119,10.6266,10.6376,10.6376,10.6376,10.6376,10.6376,10.6376,10.6376,10.6376,10.6376,10.6376,10.6376,10.6413,10.6816,10.733,10.8248,10.9166,11.0267,11.0964,11.1148,11.1221,11.1148,11.0744,11.0193,10.9863,10.9459,10.9459,10.9496,10.9496,10.9533,11.0193,10.2338,10.2779,10.3586,10.4394,10.5128,10.5605,10.6009,10.6339,10.6376,10.6376,10.6376,10.6376,10.6376,10.6376,10.6376,10.6376,10.6376,10.6376,10.6376,10.6376,10.6376,10.6376,10.6376,10.6376,10.6376,10.6156,10.5532,10.5128,10.5201,10.5201,10.4908,10.4577,10.4541,10.432,10.3953,10.3806,10.3917,10.399,10.432,10.4724,10.5165,10.5458,10.6046,10.6229,10.6376,10.6376,10.6376,10.6376,10.6376,10.6376,10.6376,10.6376,10.6266,10.6046,10.5752,10.5678,10.5348,10.5165,10.5165,10.5165,10.5238,10.5165,10.4798,10.4541,10.4394,10.4137,10.377,10.3476,10.3366,10.3806,10.4944,10.5128,10.5532,10.6156,10.6376,10.6376,10.6376,10.6376,10.6376,10.6376,10.6302,10.6266,10.6302,10.6339,10.6376,10.6376,10.6376,10.6376,10.6376,10.6376,10.6376,10.6376,10.6376,10.6376,10.6376,10.6376,10.6523,10.6926,10.7551,10.8468,10.9349,11.034,11.0891,11.1184,11.1221,11.1221,11.0928,11.045,11.023,11.001,10.9936,10.99,11.012,11.0487,11.0964,10.2889,10.3293,10.4577,10.5201,10.5495,10.6082,10.6376,10.6376,10.6376,10.6376,10.6376,10.6376,10.6376,10.6376,10.6376,10.6376,10.6376,10.6376,10.6376,10.6376,10.6376,10.6376,10.6376,10.6376,10.6376,10.6376,10.6266,10.6376,10.6156,10.6156,10.5899,10.5568,10.5348,10.5091,10.4614,10.4651,10.4394,10.4577,10.4981,10.5348,10.5532,10.5972,10.6376,10.6376,10.6376,10.6376,10.6376,10.6376,10.6376,10.6376,10.6376,10.6376,10.6376,10.6376,10.6376,10.6376,10.6376,10.6376,10.6339,10.6266,10.6119,10.6046,10.5715,10.5458,10.5165,10.4798,10.4247,10.432,10.421,10.4504,10.5311,10.5385,10.5715,10.6119,10.6376,10.6376,10.6376,10.6376,10.6376,10.6376,10.6376,10.6376,10.6376,10.6376,10.6376,10.6376,10.6376,10.6376,10.6376,10.6376,10.6376,10.6376,10.6376,10.6376,10.6376,10.6376,10.6633,10.7037,10.7844,10.8799,10.9533,11.0304,11.0781,11.1221,11.1221,11.1184,11.0928,11.0817,11.0634,11.0487,11.0304,11.034,11.0597,11.0781,11.1074,10.3549,10.4834,10.5054,10.5532,10.6156,10.6339,10.6376,10.6376,10.6376,10.6376,10.6376,10.6376,10.6376,10.6376,10.6376,10.6376,10.6376,10.6376,10.6376,10.6376,10.6376,10.6376,10.6376,10.6376,10.6376,10.6376,10.6376,10.6376,10.6376,10.6376,10.6339,10.6156,10.6082,10.6119,10.5789,10.5715,10.6082,10.6082,10.6119,10.6192,10.6192,10.6302,10.6376,10.6376,10.6376,10.6376,10.6376,10.6376,10.6376,10.6376,10.6376,10.6376,10.6376,10.6376,10.6376,10.6376,10.6376,10.6376,10.6376,10.6376,10.6376,10.6376,10.6192,10.6229,10.5935,10.5495,10.5238,10.6009,10.5422,10.5275,10.5899,10.6156,10.6302,10.6302,10.6376,10.6376,10.6376,10.6376,10.6376,10.6376,10.6376,10.6376,10.6376,10.6376,10.6376,10.6376,10.6376,10.6376,10.6376,10.6376,10.6376,10.6376,10.6376,10.6376,10.6376,10.6376,10.6743,10.7183,10.8064,10.9019,10.9716,11.0377,11.0891,11.1221,11.1221,11.1221,11.1111,11.1038,11.1001,11.0928,11.0744,11.0891,11.1111,11.1221,11.1221,10.4467,10.5128,10.5642,10.6046,10.6376,10.6376,10.6376,10.6376,10.6376,10.6376,10.6376,10.6376,10.6376,10.6376,10.6376,10.6376,10.6376,10.6376,10.6376,10.6376,10.6376,10.6376,10.6376,10.6376,10.6376,10.6376,10.6376,10.6376,10.6376,10.6376,10.6376,10.6376,10.6376,10.6339,10.6376,10.6376,10.6339,10.6339,10.6376,10.6376,10.6376,10.6376,10.6376,10.6376,10.6376,10.6376,10.6376,10.6376,10.6376,10.6376,10.6376,10.6376,10.6376,10.6376,10.6376,10.6376,10.6376,10.6376,10.6376,10.6376,10.6376,10.6376,10.6376,10.6339,10.6302,10.6082,10.5899,10.6302,10.6082,10.6046,10.6266,10.6376,10.6376,10.6376,10.6376,10.6376,10.6376,10.6376,10.6376,10.6376,10.6376,10.6376,10.6376,10.6376,10.6376,10.6376,10.6376,10.6376,10.6376,10.6376,10.6376,10.6376,10.6376,10.6376,10.6376,10.6376,10.6853,10.7367,10.8138,10.9055,10.9826,11.0487,11.0964,11.1221,11.1221,11.1221,11.1221,11.1184,11.1111,11.1148,11.1221,11.1221,11.1221,11.1221,11.1221,10.5422,10.5495,10.6119,10.6376,10.6376,10.6376,10.6376,10.6376,10.6376,10.6376,10.6376,10.6376,10.6376,10.6376,10.6376,10.6376,10.6376,10.6376,10.6376,10.6376,10.6376,10.6376,10.6376,10.6376,10.6376,10.6376,10.6376,10.6376,10.6376,10.6376,10.6376,10.6376,10.6376,10.6376,10.6376,10.6376,10.6376,10.6376,10.6376,10.6376,10.6376,10.6376,10.6376,10.6376,10.6376,10.6376,10.6376,10.6376,10.6376,10.6376,10.6376,10.6376,10.6376,10.6376,10.6376,10.6376,10.6376,10.6376,10.6376,10.6376,10.6376,10.6376,10.6376,10.6376,10.6376,10.6376,10.6376,10.6376,10.6339,10.6302,10.6376,10.6376,10.6376,10.6376,10.6376,10.6376,10.6376,10.6376,10.6376,10.6376,10.6376,10.6376,10.6376,10.6376,10.6376,10.6376,10.6376,10.6376,10.6376,10.6376,10.6376,10.6376,10.6376,10.6376,10.6376,10.6523,10.6963,10.7587,10.8358,10.9276,11.0193,11.0671,11.1111,11.1221,11.1221,11.1221,11.1221,11.1221,11.1221,11.1221,11.1221,11.1221,11.1221,11.1221,11.1221,10.6302,10.6302,10.6376,10.6376,10.6376,10.6376,10.6413,10.6376,10.6376,10.6376,10.6376,10.6376,10.6376,10.6376,10.6376,10.6376,10.6376,10.6376,10.6376,10.6376,10.6376,10.6376,10.6376,10.6376,10.6376,10.6376,10.6376,10.6376,10.6376,10.6376,10.6376,10.6376,10.6376,10.6376,10.6376,10.6376,10.6376,10.6376,10.6376,10.6376,10.6376,10.6376,10.6376,10.6376,10.6376,10.6376,10.6376,10.6376,10.6376,10.6376,10.6376,10.6376,10.6376,10.6376,10.6376,10.6376,10.6376,10.6376,10.6376,10.6376,10.6376,10.6376,10.6376,10.6376,10.6376,10.6376,10.6376,10.6376,10.6376,10.6376,10.6376,10.6376,10.6376,10.6376,10.6376,10.6376,10.6376,10.6376,10.6376,10.6376,10.6376,10.6376,10.6376,10.6376,10.6376,10.6376,10.6376,10.6376,10.6376,10.6376,10.6376,10.6376,10.6376,10.6376,10.6376,10.6633,10.7,10.7771,10.8578,10.9679,11.0781,11.1111,11.1221,11.1221,11.1221,11.1221,11.1221,11.1221,11.1221,11.1221,11.1221,11.1221,11.1221,11.1221,11.1221,10.667,10.7073,10.6596,10.6376,10.6413,10.6926,10.6853,10.6413,10.6376,10.6376,10.6376,10.6376,10.6376,10.6376,10.6376,10.6376,10.6376,10.6376,10.6376,10.6376,10.6376,10.6376,10.6376,10.6376,10.6376,10.6376,10.6376,10.6376,10.6376,10.6376,10.6376,10.6376,10.6376,10.6376,10.6376,10.6376,10.6376,10.6376,10.6376,10.6376,10.6376,10.6376,10.6376,10.6376,10.6376,10.6376,10.6376,10.6376,10.6376,10.6376,10.6376,10.6376,10.6376,10.6376,10.6376,10.6376,10.6376,10.6376,10.6376,10.6376,10.6376,10.6376,10.6376,10.6376,10.6376,10.6376,10.6376,10.6376,10.6376,10.6376,10.6376,10.6376,10.6376,10.6376,10.6376,10.6376,10.6376,10.6376,10.6376,10.6376,10.6376,10.6376,10.6376,10.6376,10.6376,10.6376,10.6376,10.6376,10.6376,10.6376,10.6376,10.6376,10.6376,10.6376,10.6376,10.667,10.7037,10.7918,10.8799,10.9826,11.0817,11.1111,11.1221,11.1221,11.1221,11.1221,11.1221,11.1221,11.1221,11.1221,11.1221,11.1221,11.1221,11.1221,11.1221,10.6706,10.7147,10.689,10.6596,10.6486,10.7,10.689,10.6449,10.6376,10.6376,10.6376,10.6376,10.6376,10.6376,10.6376,10.6376,10.6376,10.6376,10.6376,10.6376,10.6376,10.6376,10.6376,10.6376,10.6376,10.6376,10.6376,10.6376,10.6376,10.6376,10.6376,10.6376,10.6376,10.6376,10.6376,10.6376,10.6376,10.6376,10.6376,10.6376,10.6376,10.6376,10.6376,10.6376,10.6376,10.6376,10.6376,10.6376,10.6376,10.6376,10.6376,10.6376,10.6376,10.6376,10.6376,10.6376,10.6376,10.6376,10.6376,10.6376,10.6376,10.6376,10.6376,10.6376,10.6376,10.6376,10.6376,10.6376,10.6376,10.6376,10.6376,10.6376,10.6376,10.6376,10.6376,10.6376,10.6376,10.6376,10.6376,10.6376,10.6376,10.6376,10.6376,10.6376,10.6376,10.6376,10.6376,10.6376,10.6376,10.6376,10.6376,10.6376,10.6376,10.6376,10.6413,10.6596,10.6926,10.8101,10.8982,10.9753,11.0524,11.0928,11.1221,11.1221,11.1221,11.1221,11.1221,11.1221,11.1221,11.1221,11.1221,11.1221,11.1221,11.1221,11.1221,10.6413,10.6523,10.7183,10.7037,10.6449,10.6413,10.6449,10.6376,10.6376,10.6376,10.6376,10.6376,10.6376,10.6376,10.6376,10.6376,10.6376,10.6376,10.6376,10.6376,10.6376,10.6376,10.6376,10.6376,10.6376,10.6376,10.6376,10.6376,10.6376,10.6376,10.6376,10.6376,10.6376,10.6376,10.6376,10.6376,10.6376,10.6376,10.6376,10.6376,10.6376,10.6376,10.6376,10.6376,10.6376,10.6376,10.6376,10.6376,10.6376,10.6376,10.6376,10.6376,10.6376,10.6376,10.6376,10.6376,10.6376,10.6376,10.6376,10.6376,10.6376,10.6376,10.6376,10.6376,10.6376,10.6376,10.6376,10.6376,10.6376,10.6376,10.6376,10.6376,10.6376,10.6376,10.6376,10.6376,10.6376,10.6376,10.6376,10.6376,10.6376,10.6376,10.6376,10.6376,10.6376,10.6376,10.6376,10.6376,10.6376,10.6376,10.6376,10.6376,10.6376,10.6376,10.6376,10.6376,10.689,10.8138,10.9092,10.9753,11.045,11.1038,11.1221,11.1221,11.1221,11.1221,11.1221,11.1221,11.1221,11.1221,11.1221,11.1221,11.1221,11.1221,11.1221,10.6706,10.7147,10.689,10.6633,10.6486,10.6963,10.689,10.6449,10.6376,10.6376,10.6376,10.6376,10.6376,10.6376,10.6376,10.6376,10.6376,10.6376,10.6376,10.6376,10.6376,10.6376,10.6376,10.6376,10.6376,10.6376,10.6376,10.6376,10.6376,10.6376,10.6376,10.6376,10.6376,10.6376,10.6376,10.6376,10.6376,10.6376,10.6376,10.6376,10.6376,10.6376,10.6376,10.6376,10.6376,10.6376,10.6376,10.6376,10.6376,10.6376,10.6376,10.6376,10.6376,10.6376,10.6376,10.6376,10.6376,10.6376,10.6376,10.6376,10.6376,10.6376,10.6376,10.6376,10.6376,10.6376,10.6376,10.6376,10.6376,10.6376,10.6376,10.6376,10.6376,10.6376,10.6376,10.6376,10.6376,10.6376,10.6376,10.6376,10.6376,10.6376,10.6376,10.6376,10.6376,10.6376,10.6376,10.6376,10.6376,10.6376,10.6376,10.6376,10.6376,10.6376,10.6376,10.6376,10.7073,10.8358,10.9055,10.9569,11.0267,11.1074,11.1221,11.1221,11.1221,11.1221,11.1221,11.1221,11.1221,11.1221,11.1221,11.1221,11.1221,11.1221,11.1221,10.6706,10.711,10.6596,10.6376,10.6486,10.6963,10.6853,10.6413,10.6376,10.6376,10.6376,10.6376,10.6376,10.6376,10.6376,10.6376,10.6376,10.6376,10.6376,10.6376,10.6376,10.6376,10.6376,10.6376,10.6376,10.6376,10.6376,10.6376,10.6376,10.6376,10.6376,10.6376,10.6376,10.6376,10.6376,10.6376,10.6376,10.6376,10.6376,10.6376,10.6376,10.6376,10.6376,10.6376,10.6376,10.6376,10.6376,10.6376,10.6376,10.6376,10.6376,10.6376,10.6376,10.6376,10.6376,10.6376,10.6376,10.6376,10.6376,10.6376,10.6376,10.6376,10.6376,10.6376,10.6376,10.6376,10.6376,10.6376,10.6376,10.6376,10.6376,10.6376,10.6376,10.6376,10.6376,10.6376,10.6376,10.6376,10.6413,10.6413,10.6523,10.6486,10.6449,10.6376,10.6376,10.6376,10.6376,10.6376,10.6376,10.6376,10.6376,10.6376,10.6376,10.6376,10.6376,10.6376,10.7257,10.8578,10.9129,10.9533,11.0414,11.1221,11.1221,11.1221,11.1221,11.1221,11.1221,11.1221,11.1221,11.1221,11.1221,11.1221,11.1221,11.1221,11.1221,10.6376,10.6376,10.6376,10.6376,10.6376,10.6449,10.6413,10.6376,10.6376,10.6376,10.6376,10.6376,10.6376,10.6376,10.6376,10.6376,10.6376,10.6376,10.6376,10.6376,10.6376,10.6376,10.6376,10.6376,10.6376,10.6376,10.6376,10.6376,10.6376,10.6376,10.6376,10.6376,10.6376,10.6376,10.6376,10.6376,10.6376,10.6376,10.6376,10.6376,10.6376,10.6376,10.6376,10.6376,10.6376,10.6376,10.6376,10.6376,10.6376,10.6376,10.6376,10.6376,10.6376,10.6376,10.6376,10.6376,10.6376,10.6376,10.6376,10.6376,10.6376,10.6376,10.6376,10.6376,10.6376,10.6376,10.6376,10.6376,10.6376,10.6376,10.6376,10.6376,10.6376,10.6376,10.6376,10.6376,10.6376,10.6413,10.6486,10.6559,10.678,10.6816,10.6706,10.6633,10.6633,10.6376,10.6376,10.6376,10.6376,10.6376,10.6376,10.6376,10.6376,10.6376,10.6413,10.6523,10.733,10.8615,10.9129,10.9606,11.0487,11.1221,11.1221,11.1221,11.1221,11.1221,11.1221,11.1221,11.1221,11.1221,11.1221,11.1221,11.1221,11.1221,11.1221,10.6376,10.6376,10.6376,10.6376,10.6376,10.6376,10.6376,10.6376,10.6376,10.6376,10.6376,10.6376,10.6376,10.6376,10.6376,10.6376,10.6376,10.6376,10.6376,10.6376,10.6376,10.6376,10.6376,10.6376,10.6376,10.6376,10.6376,10.6376,10.6376,10.6376,10.6376,10.6376,10.6376,10.6376,10.6376,10.6376,10.6376,10.6376,10.6376,10.6376,10.6376,10.6376,10.6376,10.6376,10.6376,10.6376,10.6376,10.6376,10.6376,10.6376,10.6376,10.6376,10.6376,10.6376,10.6376,10.6376,10.6376,10.6376,10.6376,10.6376,10.6376,10.6376,10.6376,10.6376,10.6376,10.6376,10.6376,10.6376,10.6376,10.6376,10.6376,10.6376,10.6376,10.6376,10.6376,10.6376,10.6413,10.6559,10.667,10.7257,10.744,10.7367,10.7257,10.711,10.7037,10.6633,10.6376,10.6413,10.6523,10.6559,10.6413,10.6413,10.6559,10.6596,10.6706,10.6816,10.7697,10.8542,10.9092,10.9753,11.0671,11.1221,11.1221,11.1221,11.1221,11.1221,11.1221,11.1221,11.1221,11.1221,11.1221,11.1221,11.1221,11.1221,11.1221,10.6376,10.6376,10.6376,10.6376,10.6376,10.6376,10.6376,10.6376,10.6376,10.6376,10.6376,10.6376,10.6376,10.6376,10.6376,10.6376,10.6376,10.6376,10.6376,10.6376,10.6376,10.6376,10.6376,10.6376,10.6376,10.6376,10.6376,10.6376,10.6376,10.6376,10.6376,10.6376,10.6376,10.6376,10.6376,10.6376,10.6376,10.6376,10.6376,10.6376,10.6376,10.6376,10.6376,10.6376,10.6376,10.6376,10.6376,10.6376,10.6376,10.6376,10.6376,10.6376,10.6486,10.6633,10.6559,10.6596,10.678,10.6633,10.6486,10.6376,10.6376,10.6376,10.6376,10.6376,10.6376,10.6376,10.6376,10.6376,10.6376,10.6376,10.6376,10.6376,10.6376,10.6376,10.6376,10.6376,10.6523,10.6743,10.7294,10.7954,10.8138,10.8064,10.7954,10.7734,10.733,10.6706,10.6523,10.667,10.6853,10.7037,10.6706,10.6449,10.6706,10.6926,10.7,10.7147,10.7881,10.8652,10.9386,11.0083,11.0928,11.1221,11.1221,11.1221,11.1221,11.1221,11.1221,11.1221,11.1221,11.1221,11.1221,11.1221,11.1221,11.1221,11.1221,10.6376,10.6376,10.6376,10.6376,10.6376,10.6376,10.6376,10.6376,10.6376,10.6376,10.6376,10.6376,10.6376,10.6376,10.6376,10.6376,10.6376,10.6376,10.6376,10.6376,10.6376,10.6376,10.6376,10.6376,10.6376,10.6376,10.6376,10.6376,10.6376,10.6376,10.6376,10.6376,10.6376,10.6376,10.6376,10.6376,10.6376,10.6376,10.6376,10.6376,10.6376,10.6376,10.6376,10.6376,10.6376,10.6376,10.6376,10.6376,10.6376,10.6376,10.6376,10.6376,10.678,10.7073,10.6963,10.6963,10.7147,10.689,10.6596,10.6376,10.6376,10.6376,10.6376,10.6376,10.6376,10.6376,10.6376,10.6706,10.678,10.7037,10.7147,10.722,10.7257,10.722,10.722,10.722,10.7294,10.7661,10.8321,10.8835,10.8945,10.8799,10.8175,10.7918,10.7294,10.667,10.667,10.6963,10.733,10.7587,10.744,10.6926,10.6963,10.722,10.7183,10.744,10.8028,10.8762,10.9569,11.0267,11.1038,11.1221,11.1221,11.1221,11.1221,11.1221,11.1221,11.1221,11.1221,11.1221,11.1221,11.1221,11.1221,11.1221,11.1221,10.6376,10.6376,10.6376,10.6376,10.6376,10.6376,10.6376,10.6376,10.6376,10.6376,10.6376,10.6376,10.6376,10.6376,10.6376,10.6376,10.6376,10.6376,10.6376,10.6376,10.6376,10.6376,10.6376,10.6376,10.6376,10.6376,10.6376,10.6376,10.6376,10.6376,10.6376,10.6376,10.6376,10.6376,10.6376,10.6376,10.6376,10.6376,10.6376,10.6376,10.6376,10.6376,10.6376,10.6376,10.6376,10.6376,10.6376,10.6376,10.6376,10.6376,10.6376,10.6706,10.7257,10.7477,10.7477,10.7367,10.7367,10.7073,10.6633,10.6376,10.6376,10.6376,10.6376,10.6376,10.6376,10.6376,10.6596,10.7,10.733,10.7624,10.7918,10.7991,10.8101,10.8101,10.8101,10.8101,10.8101,10.8725,10.9349,10.9569,10.9679,10.9202,10.8542,10.7881,10.722,10.7073,10.7257,10.7514,10.7991,10.8321,10.8652,10.8211,10.7551,10.7551,10.7551,10.7771,10.8395,10.9166,11.001,11.0634,11.1184,11.1184,11.1221,11.1221,11.1221,11.1221,11.1221,11.1221,11.1221,11.1221,11.1221,11.1221,11.1221,11.1221,11.1221,10.6376,10.6376,10.6376,10.6376,10.6376,10.6376,10.6376,10.6376,10.6376,10.6376,10.6376,10.6376,10.6376,10.6376,10.6376,10.6376,10.6376,10.6376,10.6376,10.6376,10.6376,10.6376,10.6376,10.6376,10.6376,10.6376,10.6376,10.6376,10.6376,10.6376,10.6376,10.6376,10.6376,10.6376,10.6376,10.6376,10.6376,10.6376,10.6376,10.6376,10.6376,10.6376,10.6376,10.6376,10.6376,10.6376,10.6376,10.6376,10.6376,10.6376,10.6376,10.6486,10.6963,10.733,10.733,10.722,10.7183,10.722,10.6706,10.6486,10.6486,10.6486,10.6413,10.6413,10.6376,10.6413,10.678,10.7147,10.7404,10.7697,10.8248,10.8505,10.8505,10.8505,10.8578,10.8615,10.8909,10.9423,11.001,11.045,11.023,10.9459,10.8762,10.7954,10.733,10.6816,10.711,10.7954,10.8431,10.9055,10.9386,10.9276,10.8468,10.8138,10.8211,10.8431,10.8835,10.9606,11.0377,11.0817,11.1221,11.1221,11.1221,11.1221,11.1221,11.1221,11.1221,11.1221,11.1221,11.1221,11.1221,11.1221,11.1221,11.1221,11.1221,10.6376,10.6376,10.6376,10.6376,10.6376,10.6376,10.6376,10.6376,10.6376,10.6376,10.6376,10.6376,10.6376,10.6376,10.6376,10.6376,10.6376,10.6376,10.6376,10.6376,10.6376,10.6376,10.6376,10.6376,10.6376,10.6376,10.6376,10.6376,10.6376,10.6376,10.6376,10.6376,10.6376,10.6376,10.6376,10.6376,10.6376,10.6376,10.6376,10.6376,10.6376,10.6376,10.6376,10.6376,10.6376,10.6376,10.6376,10.6376,10.6376,10.6376,10.6413,10.6633,10.7037,10.7514,10.7477,10.7477,10.7918,10.7697,10.7147,10.7,10.6816,10.667,10.6559,10.6523,10.6523,10.6706,10.7037,10.7477,10.7697,10.8175,10.8762,10.9166,10.9166,10.9202,10.9276,10.9349,10.979,11.012,11.056,11.1074,11.0267,10.9496,10.8725,10.7918,10.7404,10.6853,10.722,10.8028,10.8835,10.9496,11.0047,10.9679,10.8945,10.8799,10.8762,10.8835,10.9019,10.979,11.0487,11.0891,11.1221,11.1221,11.1221,11.1221,11.1221,11.1221,11.1221,11.1221,11.1221,11.1221,11.1221,11.1221,11.1221,11.1221,11.1221,10.6376,10.6376,10.6376,10.6376,10.6376,10.6376,10.6376,10.6376,10.6376,10.6376,10.6376,10.6376,10.6376,10.6376,10.6376,10.6376,10.6376,10.6376,10.6376,10.6376,10.6376,10.6376,10.6376,10.6376,10.6376,10.6413,10.6449,10.6376,10.6376,10.6376,10.6376,10.6376,10.6376,10.6376,10.6376,10.6376,10.6376,10.6376,10.6376,10.6376,10.6376,10.6376,10.6376,10.6376,10.6376,10.6376,10.6376,10.6376,10.6376,10.6376,10.6486,10.678,10.7294,10.7918,10.8101,10.8175,10.8652,10.8542,10.8138,10.7954,10.7771,10.722,10.7147,10.7037,10.7073,10.7183,10.7661,10.8395,10.8762,10.9349,10.99,11.0377,11.0487,11.0487,11.056,11.056,11.0744,11.0744,11.0817,11.045,10.9643,10.8872,10.8064,10.7477,10.7061,10.6988,10.7672,10.8391,10.8819,10.9745,11.0546,10.9849,10.9152,10.9019,10.8799,10.8799,10.9055,10.9863,11.056,11.1001,11.1221,11.1221,11.1221,11.1221,11.1221,11.1221,11.1221,11.1221,11.1221,11.1221,11.1221,11.1221,11.1221,11.1221,11.1221]},{"header":{"parameterUnit":"m.s-1","parameterCategory":1,"la1":31.0,"la2":29.5877,"lo1":-88.7671,"lo2":-86.6584,"dx":0.0162,"dy":0.0185,"nx":115,"ny":88,"refTime":"2023-01-12T06:00:00:Z","depth":0,"parameterNumber":3,"parameterNumberName":"V-component_of_WINDS"},"data":[0.0,0.0,0.0,0.0,0.0,0.0,0.0,0.0,0.0,0.0,0.0,0.0,0.0,0.0,0.0,0.0,0.0,0.0,0.0,0.0,0.0,0.0,0.0,0.0,0.0,0.0,0.0,0.0,0.0,0.0,0.0,0.0,0.0,0.0,0.0,0.0,0.0,0.0,0.0,0.0,0.0,0.0,0.0,0.0,0.0,0.0,0.0,0.0,0.0,0.0,0.0,0.0,0.0,0.0,0.0,0.0,0.0,0.0,0.0,0.0,0.0,0.0,0.0,0.0,0.0,0.0,0.0,0.0,0.0,0.0,0.0,0.0,0.0,0.0,0.0,0.0,0.0,0.0,0.0,0.0,0.0,0.0,0.0,0.0,0.0,0.0,0.0,0.0,0.0,0.0,0.0,0.0,0.0,0.0,0.0,0.0,0.0,0.0,0.0,0.0,0.0,0.0,0.0,0.0,0.0,0.0,0.0,0.0,0.0,0.0,0.0,0.0,0.0,0.0,0.0,0.0,0.0,0.0,0.0,0.0,0.0,0.0,0.0,0.0,0.0,0.0,0.0,0.0,0.0,0.0,0.0,0.0,0.0,0.0,0.0,0.0,0.0,0.0,0.0,0.0,0.0,0.0,0.0,0.0,0.0,0.0,0.0,0.0,0.0,0.0,0.0,0.0,0.0,0.0,0.0,0.0,0.0,0.0,0.0,0.0,0.0,0.0,0.0,0.0,0.0,0.0,0.0,0.0,0.0,0.0,0.0,0.0,0.0,0.0,0.0,0.0,0.0,0.0,0.0,0.0,0.0,0.0,0.0,0.0,0.0,0.0,0.0,0.0,0.0,0.0,0.0,0.0,0.0,0.0,0.0,0.0,0.0,0.0,0.0,0.0,0.0,0.0,0.0,0.0,0.0,0.0,0.0,0.0,0.0,0.0,0.0,0.0,0.0,0.0,0.0,0.0,0.0,0.0,0.0,0.0,0.0,0.0,0.0,0.0,0.0,0.0,0.0,0.0,0.0,0.0,0.0,0.0,0.0,0.0,0.0,0.0,0.0,0.0,0.0,0.0,0.0,0.0,0.0,0.0,0.0,0.0,0.0,0.0,0.0,0.0,0.0,0.0,0.0,0.0,0.0,0.0,0.0,0.0,0.0,0.0,0.0,0.0,0.0,0.0,0.0,0.0,0.0,0.0,0.0,0.0,0.0,0.0,0.0,0.0,0.0,0.0,0.0,0.0,0.0,0.0,0.0,0.0,0.0,0.0,0.0,0.0,0.0,0.0,0.0,0.0,0.0,0.0,0.0,0.0,0.0,0.0,0.0,0.0,0.0,0.0,0.0,0.0,0.0,0.0,0.0,0.0,0.0,0.0,0.0,0.0,0.0,0.0,0.0,0.0,0.0,0.0,0.0,0.0,0.0,0.0,0.0,0.0,0.0,0.0,0.0,0.0,0.0,0.0,0.0,0.0,0.0,0.0,0.0,0.0,0.0,0.0,0.0,0.0,0.0,0.0,0.0,0.0,0.0,0.0,0.0,0.0,0.0,0.0,0.0,0.0,0.0,0.0,0.0,0.0,0.0,0.0,0.0,0.0,0.0,0.0,0.0,0.0,0.0,0.0,0.0,0.0,0.0,0.0,0.0,0.0,0.0,0.0,0.0,0.0,0.0,0.0,0.0,0.0,0.0,0.0,0.0,0.0,0.0,0.0,0.0,0.0,0.0,0.0,0.0,0.0,0.0,0.0,0.0,0.0,0.0,0.0,0.0,0.0,0.0,0.0,0.0,0.0,0.0,0.0,0.0,0.0,0.0,0.0,0.0,0.0,0.0,0.0,0.0,0.0,0.0,0.0,0.0,0.0,0.0,0.0,0.0,0.0,0.0,0.0,0.0,0.0,0.0,0.0,0.0,0.0,0.0,0.0,0.0,0.0,0.0,0.0,0.0,0.0,0.0,0.0,0.0,0.0,0.0,0.0,0.0,0.0,0.0,0.0,0.0,0.0,0.0,0.0,0.0,0.0,0.0,0.0,0.0,0.0,0.0,0.0,0.0,0.0,0.0,0.0,0.0,0.0,0.0,0.0,0.0,0.0,0.0,0.0,0.0,0.0,0.0,0.0,0.0,0.0,0.0,0.0,0.0,0.0,0.0,0.0,0.0,0.0,0.0,0.0,0.0,0.0,0.0,0.0,0.0,0.0,0.0,0.0,0.0,0.0,0.0,0.0,0.0,0.0,0.0,0.0,0.0,0.0,0.0,0.0,0.0,0.0,0.0,0.0,0.0,0.0,0.0,0.0,0.0,0.0,0.0,0.0,0.0,0.0,0.0,0.0,0.0,0.0,0.0,0.0,0.0,0.0,0.0,0.0,0.0,0.0,0.0,0.0,0.0,0.0,0.0,0.0,0.0,0.0,0.0,0.0,0.0,0.0,0.0,0.0,0.0,0.0,0.0,0.0,0.0,0.0,0.0,0.0,0.0,0.0,0.0,0.0,0.0,0.0,0.0,0.0,0.0,0.0,0.0,0.0,0.0,0.0,0.0,0.0,0.0,0.0,0.0,0.0,0.0,0.0,0.0,0.0,0.0,0.0,0.0,0.0,0.0,0.0,0.0,0.0,0.0,0.0,0.0,0.0,0.0,0.0,0.0,0.0,0.0,0.0,0.0,0.0,0.0,0.0,0.0,0.0,0.0,0.0,0.0,0.0,0.0,0.0,0.0,0.0,0.0,0.0,0.0,0.0,0.0,0.0,0.0,0.0,0.0,0.0,0.0,0.0,0.0,0.0,0.0,0.0,0.0,0.0,0.0,0.0,0.0,0.0,0.0,0.0,0.0,0.0,0.0,0.0,0.0,0.0,0.0,0.0,0.0,0.0,0.0,0.0,0.0,0.0,0.0,0.0,0.0,0.0,0.0,0.0,0.0,0.0,0.0,0.0,0.0,0.0,0.0,0.0,0.0,0.0,0.0,0.0,0.0,0.0,0.0,0.0,0.0,0.0,0.0,0.0,0.0,0.0,0.0,0.0,0.0,0.0,0.0,0.0,0.0,0.0,0.0,0.0,0.0,0.0,0.0,0.0,0.0,0.0,0.0,0.0,0.0,0.0,0.0,0.0,0.0,0.0,0.0,0.0,0.0,0.0,0.0,0.0,0.0,0.0,0.0,0.0,0.0,0.0,0.0,0.0,0.0,0.0,0.0,0.0,0.0,0.0,0.0,0.0,0.0,0.0,0.0,0.0,0.0,0.0,0.0,0.0,0.0,0.0,0.0,0.0,0.0,0.0,0.0,0.0,0.0,0.0,0.0,0.0,0.0,0.0,0.0,0.0,0.0,0.0,0.0,0.0,0.0,0.0,0.0,0.0,0.0,0.0,0.0,0.0,0.0,0.0,0.0,0.0,0.0,0.0,0.0,0.0,0.0,0.0,0.0,0.0,0.0,0.0,0.0,0.0,0.0,0.0,0.0,0.0,0.0,0.0,0.0,0.0,0.0,0.0,0.0,0.0,0.0,0.0,0.0,0.0,0.0,0.0,0.0,0.0,0.0,0.0,0.0,0.0,0.0,0.0,0.0,0.0,0.0,0.0,0.0,0.0,0.0,0.0,0.0,0.0,0.0,0.0,0.0,0.0,0.0,0.0,0.0,0.0,0.0,0.0,0.0,0.0,0.0,0.0,0.0,0.0,0.0,0.0,0.0,0.0,0.0,0.0,0.0,0.0,0.0,0.0,0.0,0.0,0.0,0.0,0.0,0.0,0.0,0.0,0.0,0.0,0.0,0.0,0.0,0.0,0.0,0.0,0.0,0.0,0.0,0.0,0.0,0.0,0.0,0.0,0.0,0.0,0.0,0.0,0.0,0.0,0.0,0.0,0.0,0.0,0.0,0.0,0.0,0.0,0.0,0.0,0.0,0.0,0.0,0.0,0.0,0.0,0.0,0.0,0.0,0.0,0.0,0.0,0.0,0.0,0.0,0.0,0.0,0.0,0.0,0.0,0.0,0.0,0.0,0.0,0.0,0.0,0.0,0.0,0.0,0.0,0.0,0.0,0.0,0.0,0.0,0.0,0.0,0.0,0.0,0.0,0.0,0.0,0.0,0.0,0.0,0.0,0.0,0.0,0.0,0.0,0.0,0.0,0.0,0.0,0.0,0.0,0.0,0.0,0.0,0.0,0.0,0.0,0.0,0.0,0.0,0.0,0.0,0.0,0.0,0.0,0.0,0.0,0.0,0.0,0.0,0.0,0.0,0.0,0.0,0.0,0.0,0.0,0.0,0.0,-1.6373,0.0,0.0,0.0,-1.5965,0.0,0.0,0.0,0.0,0.0,0.0,0.0,0.0,0.0,0.0,0.0,0.0,0.0,0.0,0.0,0.0,0.0,0.0,0.0,0.0,0.0,0.0,0.0,0.0,0.0,0.0,0.0,0.0,0.0,0.0,0.0,0.0,0.0,0.0,0.0,0.0,0.0,0.0,0.0,0.0,0.0,0.0,0.0,0.0,0.0,0.0,0.0,0.0,0.0,0.0,0.0,0.0,0.0,0.0,0.0,0.0,0.0,0.0,0.0,0.0,0.0,0.0,0.0,0.0,0.0,0.0,0.0,0.0,0.0,0.0,0.0,0.0,0.0,0.0,0.0,0.0,0.0,0.0,0.0,0.0,0.0,0.0,0.0,0.0,0.0,0.0,0.0,0.0,0.0,0.0,0.0,0.0,0.0,0.0,0.0,0.0,0.0,0.0,0.0,0.0,0.0,0.0,0.0,0.0,0.0,0.0,0.0,0.0,0.0,0.0,-1.6397,-1.5858,-1.658,-1.662,-1.5872,0.0,0.0,0.0,0.0,0.0,0.0,0.0,0.0,0.0,0.0,0.0,0.0,0.0,0.0,0.0,0.0,0.0,0.0,0.0,0.0,0.0,0.0,0.0,0.0,0.0,0.0,0.0,0.0,0.0,0.0,0.0,0.0,0.0,0.0,0.0,0.0,0.0,0.0,0.0,0.0,0.0,0.0,0.0,0.0,0.0,0.0,0.0,0.0,0.0,0.0,0.0,0.0,0.0,0.0,0.0,0.0,0.0,0.0,0.0,0.0,0.0,0.0,0.0,0.0,0.0,0.0,0.0,0.0,0.0,0.0,0.0,0.0,0.0,0.0,0.0,0.0,0.0,0.0,0.0,0.0,0.0,0.0,0.0,0.0,0.0,0.0,0.0,0.0,0.0,0.0,0.0,0.0,0.0,0.0,0.0,0.0,0.0,0.0,0.0,0.0,0.0,0.0,0.0,0.0,0.0,0.0,0.0,0.0,0.0,0.0,0.0,0.0,-1.6967,-1.7061,-1.6276,0.0,0.0,0.0,0.0,0.0,0.0,0.0,0.0,0.0,0.0,0.0,0.0,0.0,0.0,0.0,0.0,0.0,0.0,0.0,0.0,0.0,0.0,0.0,0.0,0.0,0.0,0.0,0.0,0.0,0.0,0.0,0.0,0.0,0.0,0.0,0.0,0.0,0.0,0.0,0.0,0.0,0.0,0.0,0.0,0.0,0.0,0.0,0.0,0.0,0.0,0.0,0.0,0.0,0.0,0.0,0.0,0.0,0.0,0.0,0.0,0.0,0.0,0.0,0.0,0.0,0.0,0.0,0.0,0.0,0.0,0.0,0.0,0.0,0.0,0.0,0.0,0.0,0.0,0.0,0.0,0.0,0.0,0.0,0.0,0.0,0.0,0.0,0.0,0.0,0.0,0.0,0.0,0.0,0.0,0.0,0.0,0.0,0.0,0.0,0.0,0.0,0.0,0.0,0.0,0.0,0.0,0.0,0.0,0.0,0.0,-1.6443,-1.6932,-1.7096,0.0,-1.7327,0.0,0.0,0.0,0.0,0.0,0.0,0.0,0.0,0.0,0.0,0.0,0.0,0.0,0.0,0.0,0.0,0.0,0.0,0.0,0.0,0.0,0.0,0.0,0.0,0.0,0.0,0.0,0.0,0.0,0.0,0.0,0.0,0.0,0.0,0.0,0.0,0.0,0.0,0.0,0.0,0.0,0.0,0.0,0.0,0.0,0.0,0.0,0.0,0.0,0.0,0.0,0.0,0.0,0.0,0.0,0.0,0.0,0.0,0.0,0.0,0.0,0.0,0.0,0.0,0.0,0.0,0.0,0.0,0.0,0.0,0.0,0.0,0.0,0.0,0.0,0.0,0.0,0.0,0.0,0.0,0.0,0.0,0.0,0.0,0.0,0.0,0.0,0.0,0.0,0.0,0.0,0.0,0.0,0.0,0.0,0.0,0.0,0.0,0.0,0.0,0.0,0.0,0.0,0.0,0.0,0.0,0.0,0.0,0.0,0.0,-1.6751,-1.7171,-1.719,-1.7177,0.0,0.0,0.0,0.0,0.0,0.0,0.0,0.0,0.0,0.0,0.0,0.0,0.0,0.0,0.0,0.0,0.0,0.0,0.0,0.0,0.0,0.0,0.0,0.0,0.0,0.0,0.0,0.0,0.0,0.0,0.0,0.0,0.0,0.0,0.0,0.0,0.0,0.0,0.0,0.0,0.0,0.0,0.0,0.0,0.0,0.0,0.0,0.0,0.0,0.0,0.0,0.0,0.0,0.0,0.0,0.0,0.0,0.0,0.0,0.0,0.0,0.0,0.0,0.0,0.0,0.0,0.0,0.0,0.0,0.0,0.0,0.0,0.0,0.0,0.0,0.0,0.0,0.0,0.0,0.0,0.0,0.0,0.0,0.0,0.0,0.0,0.0,0.0,0.0,0.0,0.0,0.0,0.0,0.0,0.0,0.0,0.0,0.0,0.0,0.0,0.0,0.0,0.0,0.0,0.0,0.0,0.0,0.0,0.0,0.0,-1.69,-1.715,-1.7475,-1.7459,-1.7346,-1.725,0.0,0.0,0.0,0.0,0.0,0.0,0.0,0.0,0.0,0.0,0.0,0.0,0.0,0.0,0.0,0.0,0.0,0.0,0.0,0.0,0.0,0.0,0.0,0.0,0.0,0.0,0.0,0.0,0.0,0.0,0.0,0.0,0.0,0.0,0.0,0.0,0.0,0.0,0.0,0.0,0.0,0.0,0.0,0.0,0.0,0.0,0.0,0.0,0.0,0.0,0.0,0.0,0.0,0.0,0.0,0.0,0.0,0.0,0.0,0.0,0.0,0.0,0.0,0.0,0.0,0.0,0.0,0.0,0.0,0.0,0.0,0.0,0.0,0.0,0.0,0.0,0.0,0.0,0.0,0.0,0.0,0.0,0.0,0.0,0.0,0.0,0.0,0.0,0.0,0.0,0.0,0.0,0.0,0.0,0.0,0.0,0.0,0.0,0.0,0.0,0.0,0.0,0.0,0.0,0.0,0.0,0.0,0.0,-1.8235,-1.7694,-1.7765,-1.837,-1.809,-1.7852,0.0,0.0,0.0,0.0,0.0,0.0,0.0,0.0,0.0,0.0,0.0,0.0,0.0,0.0,0.0,0.0,0.0,0.0,0.0,0.0,0.0,0.0,0.0,0.0,0.0,0.0,0.0,0.0,0.0,0.0,0.0,0.0,0.0,0.0,0.0,0.0,0.0,0.0,0.0,0.0,0.0,0.0,0.0,0.0,0.0,0.0,0.0,0.0,0.0,0.0,0.0,0.0,0.0,0.0,0.0,0.0,0.0,0.0,0.0,0.0,0.0,0.0,0.0,0.0,0.0,0.0,0.0,0.0,0.0,0.0,0.0,0.0,0.0,0.0,0.0,0.0,0.0,0.0,0.0,0.0,0.0,0.0,0.0,0.0,0.0,0.0,0.0,0.0,0.0,0.0,0.0,0.0,0.0,0.0,0.0,0.0,0.0,0.0,0.0,0.0,0.0,0.0,0.0,0.0,0.0,0.0,0.0,0.0,0.0,-1.6706,-1.7069,-1.7768,-1.8677,-1.7929,-1.7644,0.0,0.0,0.0,0.0,0.0,0.0,0.0,0.0,0.0,0.0,0.0,0.0,0.0,0.0,0.0,0.0,0.0,0.0,0.0,0.0,0.0,0.0,0.0,0.0,0.0,0.0,0.0,0.0,0.0,0.0,0.0,0.0,0.0,0.0,0.0,0.0,0.0,0.0,0.0,0.0,0.0,0.0,0.0,0.0,0.0,0.0,0.0,0.0,0.0,0.0,0.0,0.0,0.0,0.0,0.0,0.0,0.0,0.0,0.0,0.0,0.0,0.0,0.0,0.0,0.0,0.0,0.0,0.0,0.0,0.0,0.0,0.0,0.0,0.0,0.0,0.0,0.0,0.0,0.0,0.0,0.0,0.0,0.0,0.0,0.0,0.0,0.0,0.0,0.0,0.0,0.0,0.0,0.0,0.0,0.0,0.0,0.0,0.0,0.0,0.0,0.0,0.0,0.0,0.0,0.0,0.0,0.0,0.0,0.0,-1.7123,-1.7889,-1.8504,-1.8865,-1.8063,-1.7607,0.0,0.0,0.0,0.0,0.0,0.0,0.0,0.0,0.0,0.0,0.0,0.0,0.0,0.0,0.0,0.0,0.0,0.0,0.0,0.0,0.0,0.0,0.0,0.0,0.0,0.0,0.0,0.0,0.0,0.0,0.0,0.0,0.0,0.0,0.0,0.0,0.0,0.0,0.0,0.0,0.0,0.0,0.0,0.0,0.0,0.0,0.0,0.0,0.0,0.0,0.0,0.0,0.0,0.0,0.0,0.0,0.0,0.0,0.0,0.0,0.0,0.0,0.0,0.0,0.0,0.0,0.0,0.0,0.0,0.0,0.0,0.0,0.0,0.0,0.0,0.0,0.0,0.0,0.0,0.0,0.0,0.0,0.0,0.0,0.0,0.0,0.0,0.0,0.0,0.0,0.0,0.0,0.0,0.0,0.0,0.0,0.0,0.0,0.0,0.0,0.0,0.0,0.0,0.0,0.0,0.0,0.0,0.0,-1.8067,-1.9584,-2.0199,-1.9987,-1.8985,-1.8624,-1.7662,0.0,0.0,0.0,0.0,0.0,0.0,0.0,0.0,0.0,0.0,0.0,0.0,0.0,0.0,0.0,0.0,0.0,0.0,0.0,0.0,0.0,0.0,0.0,0.0,0.0,0.0,0.0,0.0,0.0,0.0,0.0,0.0,0.0,0.0,0.0,0.0,0.0,0.0,0.0,0.0,0.0,0.0,0.0,0.0,0.0,0.0,0.0,0.0,0.0,0.0,0.0,0.0,0.0,0.0,0.0,0.0,0.0,0.0,0.0,0.0,0.0,0.0,0.0,0.0,0.0,0.0,0.0,0.0,0.0,0.0,0.0,0.0,0.0,0.0,0.0,0.0,0.0,0.0,0.0,0.0,0.0,0.0,0.0,0.0,0.0,0.0,0.0,0.0,0.0,0.0,0.0,0.0,0.0,0.0,0.0,0.0,0.0,0.0,0.0,0.0,0.0,0.0,0.0,0.0,0.0,0.0,0.0,0.0,0.0,-1.8576,-1.9401,-1.9786,-1.9786,-1.8758,-1.8116,0.0,0.0,0.0,0.0,0.0,0.0,0.0,0.0,0.0,0.0,0.0,0.0,0.0,0.0,0.0,0.0,0.0,0.0,0.0,0.0,0.0,0.0,0.0,0.0,0.0,0.0,0.0,0.0,0.0,0.0,0.0,0.0,0.0,0.0,0.0,0.0,0.0,0.0,0.0,0.0,0.0,0.0,0.0,0.0,0.0,0.0,0.0,0.0,0.0,0.0,0.0,0.0,0.0,0.0,0.0,0.0,0.0,0.0,0.0,0.0,0.0,0.0,0.0,0.0,0.0,0.0,0.0,0.0,0.0,0.0,0.0,0.0,0.0,0.0,0.0,0.0,0.0,0.0,0.0,0.0,0.0,0.0,0.0,0.0,0.0,0.0,0.0,0.0,0.0,0.0,0.0,0.0,0.0,0.0,0.0,0.0,0.0,0.0,0.0,0.0,0.0,0.0,0.0,0.0,0.0,0.0,0.0,0.0,0.0,-1.9897,-2.0645,-2.0962,-2.0882,-1.9573,-1.8824,-1.8731,0.0,0.0,0.0,0.0,0.0,0.0,0.0,0.0,0.0,0.0,0.0,0.0,0.0,0.0,0.0,0.0,0.0,0.0,0.0,0.0,0.0,0.0,0.0,0.0,0.0,0.0,0.0,0.0,0.0,0.0,0.0,0.0,0.0,0.0,0.0,0.0,0.0,0.0,0.0,0.0,0.0,0.0,0.0,0.0,0.0,0.0,0.0,0.0,0.0,0.0,0.0,0.0,0.0,0.0,0.0,0.0,0.0,0.0,0.0,0.0,0.0,0.0,0.0,0.0,0.0,0.0,0.0,0.0,0.0,0.0,0.0,0.0,0.0,0.0,0.0,0.0,0.0,0.0,0.0,0.0,0.0,0.0,0.0,0.0,0.0,0.0,0.0,0.0,0.0,0.0,0.0,0.0,0.0,0.0,0.0,0.0,0.0,0.0,0.0,0.0,0.0,0.0,0.0,0.0,0.0,0.0,0.0,0.0,-2.3022,-2.3539,-2.3273,-2.2111,-2.0922,-1.9773,0.0,0.0,0.0,0.0,0.0,0.0,0.0,0.0,0.0,0.0,0.0,0.0,0.0,0.0,0.0,0.0,0.0,0.0,0.0,0.0,0.0,0.0,0.0,0.0,0.0,0.0,0.0,0.0,0.0,0.0,0.0,0.0,0.0,0.0,0.0,0.0,0.0,0.0,0.0,0.0,0.0,0.0,0.0,0.0,0.0,0.0,0.0,0.0,0.0,0.0,0.0,0.0,0.0,0.0,0.0,0.0,0.0,0.0,0.0,0.0,0.0,0.0,0.0,0.0,0.0,0.0,0.0,0.0,0.0,0.0,0.0,0.0,0.0,0.0,0.0,0.0,0.0,0.0,0.0,0.0,0.0,0.0,0.0,0.0,0.0,0.0,0.0,0.0,0.0,0.0,0.0,0.0,0.0,0.0,0.0,0.0,0.0,0.0,0.0,0.0,0.0,0.0,0.0,0.0,0.0,0.0,0.0,0.0,0.0,-2.3817,-2.4596,-2.4489,-2.3327,-2.1951,-2.0762,0.0,0.0,0.0,0.0,0.0,0.0,0.0,0.0,0.0,0.0,0.0,0.0,0.0,0.0,0.0,0.0,0.0,0.0,0.0,0.0,0.0,0.0,0.0,0.0,0.0,0.0,0.0,0.0,0.0,0.0,0.0,0.0,0.0,0.0,0.0,0.0,0.0,0.0,0.0,0.0,0.0,0.0,0.0,0.0,0.0,0.0,0.0,0.0,0.0,0.0,0.0,0.0,0.0,0.0,0.0,0.0,0.0,0.0,0.0,0.0,0.0,0.0,0.0,0.0,0.0,0.0,0.0,0.0,0.0,0.0,0.0,0.0,0.0,0.0,0.0,0.0,0.0,0.0,0.0,0.0,0.0,0.0,0.0,0.0,0.0,0.0,0.0,0.0,0.0,0.0,0.0,0.0,0.0,0.0,0.0,0.0,0.0,0.0,0.0,0.0,0.0,0.0,0.0,0.0,0.0,0.0,0.0,0.0,-2.3324,-2.5079,-2.5617,-2.5558,-2.489,-2.3207,-2.1884,0.0,0.0,0.0,0.0,0.0,0.0,0.0,0.0,0.0,0.0,0.0,0.0,0.0,0.0,0.0,0.0,0.0,0.0,0.0,0.0,0.0,0.0,0.0,0.0,0.0,0.0,0.0,0.0,0.0,0.0,0.0,0.0,0.0,0.0,0.0,0.0,0.0,0.0,0.0,0.0,0.0,0.0,0.0,0.0,0.0,0.0,0.0,0.0,0.0,0.0,0.0,0.0,0.0,0.0,0.0,0.0,0.0,0.0,0.0,0.0,0.0,0.0,0.0,0.0,0.0,0.0,0.0,0.0,0.0,0.0,0.0,0.0,0.0,0.0,0.0,0.0,0.0,0.0,0.0,0.0,0.0,0.0,0.0,0.0,0.0,0.0,0.0,0.0,0.0,0.0,0.0,0.0,0.0,0.0,0.0,0.0,0.0,0.0,0.0,0.0,0.0,0.0,0.0,0.0,0.0,0.0,0.0,0.0,-2.4556,-2.6411,-2.6464,-2.648,-2.6426,-2.4543,-2.3033,0.0,0.0,0.0,0.0,0.0,0.0,0.0,0.0,0.0,0.0,0.0,0.0,0.0,0.0,0.0,0.0,0.0,0.0,0.0,0.0,0.0,0.0,0.0,0.0,0.0,0.0,0.0,0.0,0.0,0.0,0.0,0.0,0.0,0.0,0.0,0.0,0.0,0.0,0.0,0.0,0.0,0.0,0.0,0.0,0.0,0.0,0.0,0.0,0.0,0.0,0.0,0.0,0.0,0.0,0.0,0.0,0.0,0.0,0.0,0.0,0.0,0.0,0.0,0.0,0.0,0.0,0.0,0.0,0.0,0.0,0.0,0.0,0.0,0.0,0.0,0.0,0.0,0.0,0.0,0.0,0.0,0.0,0.0,0.0,0.0,0.0,0.0,0.0,0.0,0.0,0.0,0.0,0.0,0.0,0.0,0.0,0.0,0.0,0.0,0.0,0.0,0.0,0.0,0.0,0.0,0.0,0.0,0.0,-2.4972,-2.641,-2.6814,-2.7081,-2.7068,-2.5531,-2.3848,0.0,0.0,0.0,0.0,0.0,0.0,0.0,0.0,0.0,0.0,0.0,0.0,0.0,0.0,0.0,0.0,0.0,0.0,0.0,0.0,0.0,0.0,0.0,0.0,0.0,0.0,0.0,0.0,0.0,0.0,0.0,0.0,0.0,0.0,0.0,0.0,0.0,0.0,0.0,0.0,0.0,0.0,0.0,0.0,0.0,0.0,0.0,0.0,-2.1714,0.0,0.0,0.0,0.0,0.0,0.0,0.0,0.0,0.0,0.0,0.0,0.0,0.0,0.0,0.0,0.0,0.0,0.0,0.0,0.0,0.0,0.0,0.0,0.0,0.0,0.0,0.0,0.0,0.0,0.0,0.0,0.0,0.0,0.0,0.0,0.0,0.0,0.0,0.0,0.0,0.0,0.0,0.0,0.0,0.0,0.0,0.0,0.0,0.0,0.0,0.0,0.0,0.0,0.0,0.0,0.0,0.0,0.0,0.0,-2.5321,-2.6747,-2.7241,-2.7468,-2.7442,-2.672,-2.5211,0.0,0.0,0.0,0.0,0.0,0.0,0.0,0.0,0.0,0.0,0.0,0.0,0.0,0.0,0.0,0.0,0.0,0.0,0.0,0.0,0.0,0.0,0.0,0.0,0.0,0.0,0.0,0.0,0.0,0.0,0.0,0.0,0.0,0.0,0.0,0.0,0.0,0.0,0.0,0.0,0.0,0.0,0.0,0.0,0.0,0.0,0.0,0.0,0.0,0.0,0.0,0.0,0.0,0.0,0.0,0.0,0.0,0.0,0.0,0.0,0.0,0.0,0.0,0.0,0.0,0.0,0.0,0.0,0.0,0.0,0.0,0.0,0.0,0.0,0.0,0.0,0.0,0.0,0.0,0.0,0.0,0.0,0.0,0.0,0.0,0.0,0.0,0.0,0.0,0.0,0.0,0.0,0.0,0.0,0.0,0.0,0.0,0.0,0.0,0.0,0.0,0.0,0.0,0.0,0.0,0.0,0.0,-2.4309,-2.5558,-2.7255,-2.7615,-2.7762,-2.7762,-2.7722,-2.6507,-2.4008,0.0,0.0,0.0,0.0,0.0,0.0,0.0,0.0,0.0,0.0,0.0,0.0,0.0,0.0,0.0,0.0,0.0,0.0,0.0,0.0,0.0,0.0,0.0,0.0,0.0,0.0,0.0,0.0,0.0,0.0,0.0,0.0,0.0,0.0,0.0,0.0,0.0,0.0,-2.5294,-2.6059,0.0,0.0,0.0,0.0,0.0,0.0,0.0,0.0,-2.2308,0.0,0.0,0.0,0.0,0.0,0.0,0.0,0.0,0.0,0.0,0.0,0.0,0.0,0.0,0.0,0.0,0.0,0.0,0.0,0.0,0.0,0.0,0.0,0.0,0.0,0.0,0.0,0.0,0.0,0.0,0.0,0.0,0.0,0.0,0.0,0.0,0.0,0.0,0.0,0.0,0.0,0.0,0.0,0.0,0.0,0.0,0.0,0.0,0.0,0.0,0.0,0.0,0.0,0.0,0.0,0.0,-2.4456,-2.4902,-2.5852,-2.7575,-2.7909,-2.807,-2.807,-2.7829,-2.6694,-2.4583,0.0,0.0,0.0,0.0,0.0,0.0,0.0,0.0,0.0,0.0,0.0,0.0,0.0,0.0,0.0,0.0,0.0,0.0,0.0,0.0,0.0,0.0,0.0,0.0,0.0,0.0,0.0,0.0,0.0,0.0,0.0,0.0,0.0,0.0,0.0,0.0,0.0,0.0,0.0,-2.7105,-2.7159,0.0,0.0,0.0,0.0,0.0,0.0,0.0,0.0,-2.278,0.0,0.0,0.0,0.0,0.0,0.0,0.0,0.0,0.0,0.0,0.0,0.0,0.0,0.0,0.0,0.0,0.0,0.0,0.0,0.0,0.0,0.0,0.0,0.0,0.0,0.0,0.0,0.0,0.0,0.0,0.0,0.0,0.0,0.0,0.0,0.0,0.0,0.0,0.0,0.0,0.0,0.0,0.0,0.0,0.0,0.0,0.0,0.0,0.0,0.0,0.0,0.0,0.0,0.0,0.0,-2.4744,-2.5664,-2.6547,-2.7655,-2.7989,-2.815,-2.8136,-2.8003,-2.6894,0.0,0.0,0.0,0.0,0.0,0.0,0.0,0.0,0.0,0.0,0.0,0.0,0.0,0.0,0.0,0.0,0.0,0.0,0.0,0.0,0.0,0.0,0.0,0.0,0.0,0.0,0.0,0.0,0.0,0.0,0.0,0.0,0.0,0.0,0.0,0.0,0.0,0.0,0.0,0.0,-2.7122,-2.698,-2.5998,0.0,0.0,0.0,0.0,0.0,0.0,-2.1726,-2.1847,0.0,0.0,0.0,0.0,0.0,0.0,0.0,0.0,0.0,0.0,0.0,0.0,0.0,0.0,0.0,0.0,0.0,0.0,0.0,0.0,0.0,0.0,0.0,0.0,0.0,0.0,0.0,0.0,0.0,0.0,0.0,0.0,0.0,0.0,0.0,0.0,0.0,0.0,0.0,0.0,0.0,0.0,0.0,0.0,0.0,0.0,0.0,0.0,0.0,0.0,0.0,0.0,0.0,0.0,0.0,-2.4717,-2.5978,-2.7041,-2.7843,-2.811,-2.827,-2.8323,-2.827,-2.7134,0.0,0.0,0.0,0.0,0.0,0.0,0.0,0.0,0.0,0.0,0.0,0.0,0.0,0.0,0.0,0.0,0.0,0.0,0.0,0.0,0.0,0.0,0.0,0.0,0.0,0.0,0.0,0.0,0.0,0.0,0.0,0.0,0.0,0.0,0.0,0.0,0.0,0.0,0.0,0.0,0.0,-2.6745,-2.5128,-2.3593,0.0,0.0,0.0,0.0,-2.224,-2.1855,0.0,0.0,0.0,0.0,0.0,0.0,0.0,0.0,0.0,0.0,0.0,0.0,0.0,0.0,0.0,0.0,0.0,0.0,0.0,0.0,0.0,0.0,0.0,0.0,0.0,0.0,0.0,0.0,0.0,0.0,0.0,0.0,0.0,0.0,0.0,0.0,0.0,0.0,0.0,0.0,0.0,0.0,0.0,0.0,0.0,0.0,0.0,0.0,0.0,0.0,0.0,0.0,0.0,0.0,0.0,0.0,-2.4191,-2.5541,-2.6854,-2.8404,-2.8537,-2.8684,-2.8925,-2.8684,-2.7442,0.0,0.0,0.0,0.0,0.0,0.0,0.0,0.0,0.0,0.0,0.0,0.0,0.0,0.0,0.0,0.0,0.0,0.0,0.0,0.0,0.0,0.0,0.0,0.0,0.0,0.0,0.0,0.0,0.0,0.0,0.0,0.0,0.0,0.0,0.0,0.0,0.0,0.0,0.0,0.0,0.0,-2.7009,-2.3983,-2.3144,-2.2969,0.0,0.0,-2.3467,-2.4494,-2.4471,0.0,0.0,0.0,0.0,0.0,0.0,0.0,0.0,0.0,0.0,0.0,0.0,0.0,0.0,0.0,0.0,0.0,0.0,0.0,0.0,0.0,0.0,0.0,0.0,0.0,0.0,0.0,0.0,0.0,0.0,0.0,0.0,0.0,0.0,0.0,0.0,0.0,0.0,0.0,0.0,0.0,0.0,0.0,0.0,0.0,0.0,0.0,0.0,0.0,0.0,0.0,0.0,0.0,0.0,0.0,-2.2475,-2.4413,-2.627,-2.7655,-2.8564,-2.8764,-2.8911,-2.9032,-2.8911,-2.7669,0.0,0.0,0.0,0.0,0.0,0.0,0.0,0.0,0.0,0.0,0.0,0.0,0.0,0.0,0.0,0.0,0.0,0.0,0.0,0.0,0.0,0.0,0.0,0.0,0.0,0.0,0.0,0.0,0.0,0.0,0.0,0.0,0.0,0.0,0.0,0.0,0.0,0.0,0.0,0.0,0.0,0.0,-2.516,-2.4422,0.0,0.0,0.0,-2.4542,-2.5038,0.0,0.0,0.0,0.0,0.0,0.0,0.0,0.0,0.0,0.0,0.0,0.0,0.0,0.0,0.0,0.0,0.0,0.0,0.0,0.0,0.0,0.0,0.0,0.0,0.0,0.0,0.0,0.0,0.0,0.0,0.0,0.0,0.0,0.0,0.0,0.0,0.0,0.0,0.0,0.0,0.0,0.0,0.0,0.0,0.0,0.0,0.0,0.0,0.0,0.0,0.0,0.0,0.0,0.0,0.0,0.0,0.0,-2.4762,-2.704,-2.8404,-2.8711,-2.9005,-2.9179,-2.9259,-2.9192,0.0,0.0,0.0,0.0,0.0,0.0,0.0,0.0,0.0,0.0,0.0,0.0,0.0,0.0,0.0,0.0,0.0,0.0,0.0,0.0,0.0,0.0,0.0,0.0,0.0,0.0,0.0,-1.6463,0.0,0.0,0.0,0.0,0.0,0.0,0.0,0.0,0.0,0.0,0.0,0.0,0.0,0.0,-2.7772,-2.6126,-2.5598,-2.5778,0.0,0.0,-2.5644,-2.5715,-2.6114,-2.6487,0.0,0.0,0.0,0.0,0.0,0.0,0.0,0.0,0.0,0.0,0.0,0.0,0.0,0.0,0.0,0.0,0.0,0.0,0.0,0.0,0.0,0.0,0.0,0.0,0.0,0.0,0.0,0.0,0.0,0.0,0.0,0.0,0.0,0.0,0.0,0.0,0.0,0.0,0.0,0.0,0.0,0.0,0.0,0.0,0.0,0.0,0.0,0.0,0.0,0.0,0.0,0.0,0.0,0.0,0.0,-2.4804,-2.7257,-2.8724,-2.9005,-2.9299,-2.9579,-2.9847,-2.9606,-2.8217,0.0,0.0,0.0,0.0,0.0,0.0,0.0,0.0,0.0,0.0,0.0,0.0,0.0,0.0,0.0,0.0,0.0,0.0,0.0,0.0,0.0,0.0,0.0,0.0,0.0,0.0,0.0,0.0,0.0,0.0,0.0,0.0,0.0,0.0,0.0,0.0,0.0,0.0,0.0,0.0,0.0,-2.6027,-2.5523,-2.5985,-2.6507,0.0,0.0,-2.6894,-2.7415,-2.7522,-2.68,-2.481,0.0,0.0,0.0,0.0,0.0,0.0,0.0,0.0,0.0,0.0,0.0,0.0,0.0,0.0,0.0,0.0,0.0,0.0,0.0,0.0,0.0,0.0,0.0,0.0,0.0,0.0,0.0,0.0,0.0,0.0,0.0,0.0,0.0,0.0,0.0,0.0,0.0,0.0,0.0,0.0,0.0,0.0,0.0,0.0,0.0,0.0,0.0,0.0,0.0,0.0,0.0,0.0,0.0,-2.3652,-2.4897,-2.7541,-2.9018,-2.9312,-2.978,-3.0074,-3.0194,-3.0087,-2.9112,0.0,0.0,0.0,0.0,0.0,0.0,0.0,0.0,0.0,0.0,0.0,0.0,0.0,0.0,0.0,0.0,0.0,0.0,0.0,0.0,0.0,0.0,0.0,0.0,0.0,0.0,0.0,0.0,-1.8697,-1.915,-1.9613,0.0,0.0,0.0,0.0,0.0,0.0,0.0,0.0,0.0,0.0,-2.7244,-2.6756,-2.6934,0.0,0.0,-2.7829,-2.7843,-2.843,-2.8056,-2.7581,-2.7382,-2.7274,0.0,0.0,0.0,0.0,0.0,0.0,0.0,0.0,0.0,0.0,0.0,0.0,0.0,0.0,0.0,0.0,0.0,0.0,0.0,0.0,0.0,0.0,0.0,0.0,0.0,0.0,0.0,0.0,0.0,0.0,0.0,0.0,0.0,0.0,0.0,0.0,0.0,0.0,0.0,0.0,0.0,0.0,0.0,0.0,0.0,0.0,0.0,0.0,0.0,0.0,0.0,0.0,-2.3873,-2.5043,-2.7593,-2.9232,-2.9606,-3.01,-3.0394,-3.0488,-3.0488,-2.9753,0.0,0.0,0.0,0.0,0.0,0.0,0.0,0.0,0.0,0.0,0.0,0.0,0.0,0.0,0.0,0.0,0.0,0.0,0.0,0.0,0.0,0.0,0.0,0.0,0.0,0.0,0.0,0.0,-1.9058,-1.9398,-1.9621,0.0,0.0,0.0,0.0,0.0,0.0,0.0,0.0,0.0,0.0,-2.7819,-2.7552,-2.7709,-2.8016,-2.8524,-2.8337,-2.8257,-2.8591,-2.8257,-2.8,-2.84,0.0,0.0,0.0,0.0,0.0,0.0,0.0,0.0,0.0,0.0,0.0,0.0,0.0,0.0,0.0,0.0,0.0,0.0,0.0,0.0,0.0,0.0,0.0,0.0,0.0,0.0,0.0,0.0,0.0,0.0,-1.7896,0.0,0.0,0.0,0.0,0.0,0.0,0.0,0.0,0.0,0.0,0.0,0.0,0.0,0.0,0.0,0.0,0.0,0.0,0.0,0.0,0.0,0.0,-2.3846,-2.5065,-2.7714,-2.9325,-2.99,-3.0207,-3.0501,-3.0768,-3.0782,-2.9953,-2.819,0.0,0.0,0.0,0.0,0.0,0.0,0.0,0.0,0.0,0.0,0.0,0.0,0.0,0.0,0.0,0.0,0.0,0.0,0.0,0.0,0.0,0.0,0.0,0.0,0.0,0.0,-1.7729,-1.841,-1.9135,0.0,0.0,0.0,0.0,0.0,0.0,0.0,0.0,0.0,0.0,-2.6171,-2.6814,-2.7949,-2.8136,-2.8283,-2.8591,-2.8377,-2.8083,-2.7869,-2.823,-2.8096,0.0,0.0,0.0,0.0,0.0,0.0,0.0,0.0,0.0,0.0,0.0,0.0,0.0,0.0,0.0,0.0,0.0,0.0,0.0,0.0,0.0,0.0,0.0,0.0,0.0,0.0,0.0,-1.9484,-1.9016,0.0,0.0,0.0,0.0,0.0,0.0,0.0,0.0,0.0,0.0,0.0,-2.3319,-2.3614,0.0,0.0,0.0,0.0,0.0,0.0,0.0,0.0,0.0,0.0,0.0,0.0,-2.42,-2.5446,-2.8184,-2.982,-3.0207,-3.0688,-3.0982,-3.1076,-3.1076,-3.0154,-2.8203,0.0,0.0,0.0,0.0,0.0,0.0,0.0,0.0,0.0,0.0,0.0,0.0,0.0,0.0,0.0,0.0,0.0,0.0,0.0,0.0,0.0,0.0,0.0,0.0,0.0,-1.8771,0.0,0.0,0.0,0.0,0.0,0.0,0.0,0.0,0.0,0.0,0.0,-2.6486,-2.6115,-2.6932,-2.7776,-2.8364,-2.8951,-2.9352,0.0,0.0,0.0,0.0,0.0,0.0,0.0,0.0,0.0,0.0,0.0,0.0,0.0,0.0,-3.5388,-3.2558,-3.1302,-3.0624,-3.0475,0.0,0.0,0.0,0.0,0.0,0.0,0.0,0.0,0.0,0.0,0.0,0.0,0.0,0.0,0.0,0.0,-2.0631,0.0,0.0,0.0,0.0,0.0,0.0,0.0,0.0,-2.4079,-2.4716,-2.5144,-2.5424,-2.5358,0.0,-2.469,-2.3541,0.0,0.0,0.0,0.0,0.0,0.0,0.0,0.0,-2.4779,-2.6175,-2.8695,-3.0114,-3.0515,-3.1076,-3.1423,-3.153,-3.1436,-3.0755,-2.9406,-2.831,-2.7108,0.0,0.0,0.0,0.0,0.0,0.0,0.0,0.0,0.0,0.0,0.0,0.0,0.0,0.0,0.0,0.0,0.0,0.0,0.0,0.0,0.0,0.0,0.0,-1.996,0.0,0.0,0.0,0.0,0.0,0.0,0.0,0.0,0.0,-2.442,-2.6296,-2.7463,-2.6932,-2.7642,-2.8484,-2.8991,0.0,0.0,0.0,0.0,0.0,0.0,0.0,-2.9312,-2.9606,-2.8778,-2.8356,-2.9015,-3.1572,-3.4305,-3.6603,0.0,0.0,-3.5414,-3.4333,-3.3861,-3.3712,-3.3955,-3.4183,-3.4205,-3.516,-3.601,0.0,0.0,0.0,0.0,0.0,0.0,0.0,0.0,-2.2832,-2.2939,0.0,-2.289,0.0,0.0,0.0,0.0,0.0,-2.3201,0.0,0.0,-2.6423,-2.7161,-2.7669,-2.7428,-2.7602,-2.8096,-2.7255,-2.6573,-2.5919,-2.4022,0.0,0.0,0.0,0.0,0.0,0.0,-2.5567,-2.7255,-2.9058,-3.0247,-3.0822,-3.1396,-3.1824,-3.2091,-3.1837,-3.1677,-3.1597,-2.9766,-2.8404,-2.7736,-2.501,0.0,0.0,0.0,0.0,0.0,0.0,0.0,0.0,0.0,0.0,0.0,0.0,0.0,0.0,0.0,0.0,0.0,0.0,0.0,0.0,-2.1056,0.0,0.0,0.0,0.0,0.0,0.0,0.0,0.0,0.0,0.0,-2.5997,-2.7609,-2.8588,-2.8325,0.0,0.0,0.0,0.0,-2.986,-3.0702,-3.0608,-3.0448,-3.0461,-3.0862,-3.1102,-3.0875,0.0,0.0,-3.0866,-3.1801,-3.3354,-3.5899,-3.7514,-3.881,-3.896,-3.8043,-3.7374,-3.6856,-3.7056,-3.7503,-3.7613,-3.8864,-4.0279,-2.5117,0.0,0.0,0.0,0.0,-2.3407,-2.3888,-2.4649,-2.4943,-2.4836,-2.4436,-2.4515,0.0,0.0,0.0,0.0,0.0,0.0,-2.5348,-2.6491,-2.7094,-2.7869,-2.8644,-2.8577,-2.8617,-2.8764,-2.8524,-2.8323,-2.8136,-2.7562,-2.5144,-2.1069,0.0,0.0,0.0,0.0,-2.6827,-2.7923,-2.9847,-3.1036,-3.141,-3.1784,-3.2118,-3.2412,-3.2345,-3.2198,-3.1971,-3.1209,-3.0127,-2.8711,-2.7241,0.0,0.0,0.0,0.0,0.0,0.0,0.0,0.0,0.0,0.0,0.0,0.0,0.0,0.0,0.0,0.0,0.0,0.0,0.0,-1.9826,-2.167,-2.2338,0.0,0.0,0.0,0.0,0.0,0.0,0.0,0.0,0.0,-2.7155,-2.8017,-2.8587,0.0,0.0,-2.9553,-2.9593,-3.0434,-3.1129,-3.1383,-3.1704,0.0,-3.1917,-3.153,-3.141,-3.1957,-3.1944,-3.2232,-3.3556,-3.3882,-3.4606,-3.6259,-3.7015,-3.7289,-3.7276,-3.9095,-3.9814,-3.8683,-3.9084,-4.0015,-4.007,-4.0824,-4.1415,-2.7402,-2.6052,-2.517,-2.505,-2.5424,-2.5545,-2.6026,-2.676,-2.7054,-2.6974,-2.664,-2.6533,-2.5892,-2.4863,-2.4329,0.0,0.0,0.0,-2.6747,-2.7896,-2.8243,-2.8818,-2.9526,-2.9553,-2.9619,-2.9726,-2.9499,-2.9513,-2.9726,-2.9379,-2.7495,-2.4195,0.0,0.0,-2.4315,-2.6306,-2.7896,-2.9032,-3.0595,-3.149,-3.1664,-3.2185,-3.2585,-3.2879,-3.2772,-3.2625,-3.2452,-3.2171,-3.1423,-3.014,-2.9125,-2.7829,0.0,0.0,0.0,0.0,0.0,0.0,0.0,0.0,0.0,0.0,0.0,-2.009,-1.8943,0.0,0.0,0.0,-2.0846,-2.1376,-2.2325,-2.3594,0.0,0.0,0.0,0.0,0.0,0.0,0.0,-2.5798,-2.6921,-2.7856,-2.8497,-2.8991,-2.9259,-2.9138,-2.9686,-3.0154,-3.0327,0.0,-3.1784,-3.2131,-3.2492,-3.2759,-3.2866,-3.2438,-3.2251,-3.2639,-3.2572,-3.2786,-3.3807,-3.383,-3.4391,-3.5876,-3.6374,-3.6298,-3.6113,-3.8448,-4.0263,-3.9184,-3.9753,-4.0647,-4.1367,-4.1867,-4.2241,-2.9179,-2.9032,-2.7415,-2.7001,-2.7428,-2.7696,-2.8136,-2.8684,-2.8951,-2.9085,-2.9085,-2.8831,-2.8257,-2.7428,-2.664,0.0,-2.7482,-2.7776,-2.8497,-2.9553,-2.9579,-2.9873,-3.0381,-3.0394,-3.0528,-3.0768,-3.0247,-3.0261,-3.0728,-3.0007,-2.9339,-2.8804,-2.8016,-2.7669,-2.7789,-2.815,-2.9045,-3.0448,-3.1276,-3.173,-3.1784,-3.2585,-3.3146,-3.34,-3.316,-3.3013,-3.3,-3.2732,-3.2332,-3.177,-3.0675,-2.9432,-2.807,0.0,0.0,0.0,0.0,0.0,0.0,0.0,0.0,0.0,0.0,0.0,0.0,0.0,0.0,0.0,-2.4543,0.0,-2.6279,-2.6159,0.0,0.0,0.0,-2.4409,-2.4569,-2.5972,-2.7081,-2.7468,0.0,0.0,-2.998,-3.0274,-3.0368,-3.0127,-3.0301,-3.0755,-3.1557,-3.173,-3.2064,-3.2826,-3.2986,-3.3106,-3.3307,-3.3307,-3.3213,-3.304,-3.3013,-3.2906,-3.2888,-3.2821,-3.3379,-3.501,-3.5232,-3.5203,-3.5188,-3.6792,-3.8211,-3.8741,-3.9058,-3.9767,-4.1283,-4.208,-4.2297,-3.0381,-3.0341,-2.9913,-2.9312,-2.8631,-2.8684,-2.8925,-2.9272,-2.9352,-2.9499,-2.97,-2.9633,-2.9486,-2.9272,-2.9072,-2.9085,-2.9299,-2.9593,-2.9873,-3.0154,-3.0381,-3.0555,-3.0688,-3.0688,-3.0728,-3.0782,-3.0648,-3.0662,-3.0795,-3.0808,-3.0742,-3.0608,-3.0608,-2.9873,-2.8497,-2.9566,-3.0555,-3.1356,-3.1784,-3.2211,-3.2652,-3.3093,-3.3347,-3.3414,-3.3347,-3.3307,-3.3307,-3.3026,-3.2812,-3.2652,-3.1757,-3.1089,-3.0715,-2.7629,0.0,0.0,0.0,0.0,0.0,0.0,0.0,0.0,0.0,-2.3018,-2.1004,0.0,-2.3816,0.0,-2.6813,-2.7295,-2.5865,-2.6466,0.0,0.0,-2.5932,-2.6159,-2.7709,-2.7856,-2.8283,-2.9499,-2.994,-3.0341,-3.0849,-3.1169,-3.1423,-3.1543,-3.145,-3.1436,-3.1664,-3.2265,-3.2732,-3.2946,-3.316,-3.3334,-3.34,-3.3414,-3.3414,-3.332,-3.3307,-3.328,-3.3213,-3.32,-3.3332,-3.3511,-3.3639,-3.3557,-3.3365,-3.3685,-3.4553,-3.6125,-3.7554,-3.8877,-3.9249,-3.9501,-4.0107,-3.1102,-3.0982,-3.0982,-3.0541,-2.982,-2.982,-2.9913,-3.006,-3.006,-3.0154,-3.0314,-3.0301,-3.0301,-3.0301,-3.0301,-3.0301,-3.0314,-3.0488,-3.0621,-3.0755,-3.0902,-3.1116,-3.137,-3.1383,-3.1436,-3.157,-3.157,-3.157,-3.1583,-3.173,-3.181,-3.181,-3.1971,-3.149,-3.0434,-3.1036,-3.1476,-3.1664,-3.2211,-3.2706,-3.3146,-3.3334,-3.3293,-3.3053,-3.328,-3.3293,-3.304,-3.312,-3.2933,-3.2412,-3.1931,-3.149,-3.1076,-2.9085,-2.7709,0.0,0.0,0.0,0.0,0.0,0.0,0.0,0.0,0.0,0.0,0.0,-2.5208,-2.5918,-2.7875,-2.8417,-2.7014,-2.7829,-2.8377,-2.8217,-2.803,-2.8377,-2.9513,-2.9446,-2.9686,-3.0635,-3.0862,-3.1116,-3.1557,-3.1877,-3.2158,-3.2452,-3.2358,-3.2251,-3.2278,-3.2692,-3.3026,-3.316,-3.3307,-3.3467,-3.3601,-3.3734,-3.3814,-3.3814,-3.3814,-3.3814,-3.3801,-3.3708,-3.3561,-3.3414,-3.3267,-3.312,-3.2973,-3.2933,-3.3314,-3.4283,-3.5428,-3.6669,-3.8118,-3.8735,-3.9227,-3.1637,-3.1396,-3.1396,-3.1249,-3.1022,-3.1022,-3.0969,-3.0902,-3.0902,-3.0942,-3.1009,-3.0982,-3.0982,-3.1009,-3.0942,-3.0942,-3.1009,-3.0982,-3.1116,-3.1383,-3.1396,-3.1664,-3.2158,-3.2158,-3.2291,-3.2545,-3.2545,-3.2545,-3.2545,-3.2585,-3.2599,-3.2599,-3.2639,-3.2625,-3.2545,-3.2358,-3.2131,-3.1851,-3.2599,-3.3093,-3.3347,-3.3387,-3.3146,-3.2652,-3.3173,-3.3213,-3.2692,-3.3146,-3.2946,-3.1971,-3.1851,-3.149,-3.0742,-3.0488,-2.9526,0.0,-2.7335,0.0,0.0,0.0,0.0,0.0,0.0,0.0,0.0,-2.6806,-2.6955,-2.636,-2.8364,-2.9446,-2.8938,-2.9579,-3.0047,-3.0087,-3.0314,-3.0501,-3.0581,-3.0808,-3.1076,-3.1356,-3.1623,-3.1891,-3.2185,-3.2438,-3.2706,-3.2959,-3.3,-3.2973,-3.3013,-3.3026,-3.3133,-3.3387,-3.344,-3.3614,-3.3881,-3.4135,-3.4282,-3.4295,-3.4282,-3.4322,-3.4282,-3.4095,-3.3935,-3.3908,-3.3721,-3.3547,-3.3534,-3.3534,-3.3521,-3.3735,-3.3721,-3.4714,-3.6907,-3.7855,-3.8411,-3.2345,-3.2305,-3.2291,-3.2265,-3.2211,-3.2211,-3.1944,-3.1503,-3.1503,-3.177,-3.2185,-3.1957,-3.1984,-3.2171,-3.1717,-3.177,-3.2198,-3.1971,-3.2011,-3.2305,-3.2291,-3.2358,-3.2465,-3.2465,-3.2492,-3.2545,-3.2545,-3.2545,-3.2545,-3.2786,-3.2893,-3.2906,-3.3133,-3.3013,-3.2599,0.0,0.0,0.0,-3.2893,-3.3,-3.3066,-3.3293,-3.3253,-3.2933,-3.348,0.0,-3.328,-3.336,-3.3307,-3.3093,-3.2853,0.0,0.0,0.0,0.0,0.0,0.0,0.0,0.0,0.0,0.0,0.0,-2.7418,-2.7392,-2.7241,-2.8757,-2.9407,-2.8577,-2.974,-3.0501,-3.0394,-3.0528,-3.0728,-3.0942,-3.1022,-3.1249,-3.1704,-3.1824,-3.1971,-3.2251,-3.2345,-3.2492,-3.2759,-3.2866,-3.3,-3.3267,-3.3334,-3.3334,-3.3334,-3.3334,-3.3347,-3.3414,-3.3654,-3.3908,-3.4189,-3.4295,-3.4376,-3.4322,-3.4322,-3.4336,-3.4349,-3.4295,-3.4242,-3.4242,-3.4189,-3.4135,-3.4135,-3.4148,-3.4108,-3.4135,-3.4135,-3.4165,-3.4358,-3.446,-3.4885,-3.2893,0.0,-3.2759,-3.2679,0.0,-3.2545,-3.2465,-3.2305,-3.2171,-3.2265,-3.2532,-3.2385,-3.2398,-3.2532,-3.2238,-3.2265,-3.2545,-3.2385,-3.2398,-3.2545,-3.2545,-3.2625,-3.2759,-3.2759,-3.2839,-3.2973,-3.2973,-3.2973,-3.2986,-3.312,-3.3187,-3.3187,-3.3334,-3.3267,-3.3,-3.3414,-3.3574,-3.3427,-3.3427,-3.3494,-3.3641,-3.3788,-3.3641,-3.324,-3.3774,0.0,0.0,0.0,0.0,0.0,0.0,0.0,0.0,0.0,0.0,-3.0768,-2.994,-2.9299,-2.9018,-2.8858,-2.9098,-2.982,-3.002,-2.9659,-2.8829,-2.9998,-3.0515,-3.0368,-3.0889,-3.1343,-3.1623,-3.165,-3.1717,-3.1851,-3.1877,-3.2011,-3.2265,-3.2318,-3.2438,-3.2692,-3.2759,-3.2866,-3.316,-3.3187,-3.324,-3.34,-3.3547,-3.3654,-3.3641,-3.3641,-3.3681,-3.3841,-3.4122,-3.4362,-3.4509,-3.467,-3.475,-3.475,-3.475,-3.475,-3.475,-3.4629,-3.4536,-3.4523,-3.4429,-3.4322,-3.4322,-3.4322,-3.4322,-3.4322,-3.4322,-3.4242,-3.3908,-3.3868,-3.4057,-3.3307,-3.3133,-3.3133,-3.3,-3.2786,-3.2786,-3.2919,-3.312,0.0,0.0,0.0,-3.2652,-3.2652,-3.2692,-3.2585,-3.2599,-3.2692,-3.2639,-3.2652,-3.2706,-3.2759,-3.2906,-3.3133,-3.3187,-3.3334,-3.3561,-3.3574,-3.3574,-3.3574,-3.3574,-3.3547,-3.3507,-3.3547,-3.3574,-3.3587,-3.3828,-3.3988,-3.4028,-3.3935,-3.4002,-3.4229,-3.4295,-3.4055,-3.3507,-3.4082,-3.4028,-3.3253,-3.3694,-3.3507,-3.2559,-3.2492,-3.2358,-3.2078,-3.2064,-3.2118,-3.2238,-3.2251,-3.2131,-3.1851,-3.1824,-3.1824,-3.1824,-3.2038,-3.1757,-3.0742,-3.0942,-3.1303,-3.1784,-3.1824,-3.2024,-3.2492,-3.2545,-3.2572,-3.2612,-3.2625,-3.2639,-3.2692,-3.2692,-3.2812,-3.3,-3.3053,-3.3133,-3.336,-3.3454,-3.3494,-3.3534,-3.3774,-3.4002,-3.4028,-3.4002,-3.4055,-3.4322,-3.4549,-3.475,-3.4857,-3.5004,-3.5204,-3.5244,-3.5257,-3.5284,-3.5297,-3.5151,-3.5017,-3.5044,-3.475,-3.4616,-3.4563,-3.4563,-3.4482,-3.4482,-3.4469,-3.4482,-3.4469,-3.4469,-3.4429,-3.3547,-3.3761,-3.3761,-3.3734,-3.3694,-3.3694,-3.3721,-3.3734,-3.3427,-3.3293,-3.328,-3.3026,-3.3053,-3.3267,-3.2759,-3.2826,-3.3267,-3.3026,-3.3053,0.0,-3.3574,-3.3721,-3.3774,-3.4015,-3.4148,-3.4189,-3.4189,-3.4189,-3.4189,-3.4189,-3.4068,-3.3881,-3.4068,-3.4189,-3.4202,-3.4242,-3.4389,-3.4616,-3.4148,-3.3908,-3.3948,-3.4189,-3.4162,-3.3868,-3.4402,-3.4536,-3.4162,-3.4202,-3.4189,-3.4015,-3.4015,-3.3881,-3.3601,-3.3561,-3.336,-3.2906,-3.2853,-3.2732,-3.2452,-3.2425,-3.2412,-3.2425,-3.2465,-3.2305,-3.1917,-3.2131,-3.2332,-3.2425,-3.2412,-3.2452,-3.2545,-3.2572,-3.2679,-3.2879,-3.2919,-3.3013,-3.3227,-3.3253,-3.3267,-3.332,-3.3347,-3.336,-3.344,-3.3654,-3.3814,-3.3868,-3.4068,-3.4336,-3.4523,-3.4416,-3.4402,-3.4629,-3.4736,-3.4857,-3.5084,-3.5164,-3.5311,-3.5538,-3.5578,-3.5645,-3.5845,-3.5819,-3.5778,-3.5859,-3.5565,-3.5431,-3.5404,-3.5231,-3.5084,-3.5044,-3.503,-3.5017,-3.5004,-3.5017,-3.4897,-3.3841,-3.4108,-3.4122,-3.4122,-3.4122,-3.4122,-3.4122,-3.4108,-3.3961,-3.3908,-3.3881,-3.3761,-3.3774,-3.3881,-3.3627,-3.3654,-3.3895,-3.3761,-3.3774,-3.3908,-3.4055,-3.4122,-3.4135,-3.4255,-3.4322,-3.4322,-3.4322,-3.4322,-3.4322,-3.4322,-3.4255,-3.4135,-3.4255,-3.4322,-3.4336,-3.4482,-3.4629,-3.475,-3.4496,-3.4442,-3.4603,-3.4736,-3.4723,-3.4603,-3.487,-3.487,-3.4576,-3.4563,-3.4482,-3.4322,-3.4322,-3.4255,-3.4135,-3.4122,-3.3988,-3.3721,-3.3561,-3.3414,-3.328,-3.3106,-3.3013,-3.3013,-3.3013,-3.2959,-3.2826,-3.2639,-3.2612,-3.2759,-3.2786,-3.2853,-3.3,-3.3013,-3.3066,-3.32,-3.3213,-3.3267,-3.3374,-3.3414,-3.3414,-3.3427,-3.3574,-3.3668,-3.3668,-3.3935,-3.4122,-3.4148,-3.4376,-3.467,-3.495,-3.4897,-3.4843,-3.4977,-3.5004,-3.5124,-3.5364,-3.5431,-3.5551,-3.5819,-3.5872,-3.5925,-3.6059,-3.6086,-3.6086,-3.6072,-3.5952,-3.5885,-3.5872,-3.5631,-3.5471,-3.5418,-3.5284,-3.5217,-3.5204,-3.5311,-3.5271,-3.4162,-3.4416,-3.4416,-3.4416,-3.4416,-3.4349,-3.4349,-3.4416,-3.4416,-3.4456,-3.4496,-3.4389,-3.4322,-3.4322,-3.4322,-3.4322,-3.4322,-3.4322,-3.4322,-3.4322,-3.4389,-3.4416,-3.4429,-3.4482,-3.4523,-3.4523,-3.4523,-3.4523,-3.4509,-3.4523,-3.4523,-3.4509,-3.4456,-3.4456,-3.4523,-3.475,-3.4857,-3.487,-3.4857,-3.4977,-3.5191,-3.5204,-3.5204,-3.5204,-3.5191,-3.5084,-3.487,-3.4857,-3.475,-3.4536,-3.4523,-3.4482,-3.4429,-3.4416,-3.4389,-3.4309,-3.4108,-3.3988,-3.3975,-3.3761,-3.3587,-3.3521,-3.3521,-3.348,-3.3387,-3.3013,-3.2826,-3.304,-3.308,-3.3173,-3.3347,-3.3467,-3.3507,-3.3521,-3.3574,-3.3641,-3.3627,-3.3614,-3.3614,-3.3641,-3.3841,-3.3988,-3.4028,-3.4242,-3.4442,-3.4549,-3.4763,-3.5044,-3.5244,-3.5338,-3.5391,-3.5378,-3.5338,-3.5378,-3.5605,-3.5685,-3.5845,-3.6112,-3.6233,-3.6286,-3.6326,-3.6326,-3.6326,-3.634,-3.6219,-3.6179,-3.6153,-3.5939,-3.5765,-3.5712,-3.5578,-3.5444,-3.5458,-3.5591,-3.5658,-3.4456,-3.471,-3.4723,-3.4723,-3.4696,-3.4442,-3.4496,-3.471,-3.471,-3.487,-3.503,-3.4563,-3.4336,-3.4322,-3.4336,-3.4349,-3.4349,-3.4322,-3.4336,-3.4376,-3.4603,-3.4723,-3.475,-3.4977,-3.511,-3.5097,-3.5084,-3.507,-3.507,-3.5084,-3.511,-3.5084,-3.4857,-3.4843,-3.507,-3.5124,-3.5151,-3.5164,-3.5164,-3.5164,-3.5191,-3.5204,-3.5204,-3.5204,-3.5204,-3.5191,-3.5164,-3.5151,-3.5151,-3.5124,-3.5097,-3.499,-3.4763,-3.4723,-3.4603,-3.4349,-3.4295,-3.4282,-3.4269,-3.4255,-3.4108,-3.3881,-3.3841,-3.3721,-3.348,-3.3374,-3.3334,-3.3387,-3.3374,-3.3387,-3.3427,-3.3668,-3.3828,-3.3855,-3.4042,-3.4242,-3.4202,-3.4242,-3.4242,-3.4242,-3.4229,-3.4282,-3.4309,-3.4563,-3.483,-3.5044,-3.5311,-3.5511,-3.5591,-3.5765,-3.5899,-3.5899,-3.5778,-3.5631,-3.5712,-3.5872,-3.6126,-3.642,-3.6687,-3.678,-3.6821,-3.6994,-3.7181,-3.6794,-3.6647,-3.6513,-3.6406,-3.6246,-3.6046,-3.6019,-3.5979,-3.5965,-3.5992,-3.6006,-3.5992,-3.475,-3.5017,-3.5017,-3.5017,-3.5004,-3.4883,-3.491,-3.5017,-3.5017,-3.5084,-3.5164,-3.4937,-3.483,-3.4843,-3.483,-3.4843,-3.4843,-3.4843,-3.483,-3.4843,-3.4977,-3.5017,-3.503,-3.5137,-3.5204,-3.5204,-3.5204,-3.5204,-3.5204,-3.5204,-3.5204,-3.5191,-3.507,-3.5084,-3.5191,-3.5204,-3.5204,-3.5204,-3.5204,-3.5271,-3.5418,-3.5284,-3.5204,-3.5217,-3.5364,-3.5458,-3.5444,-3.5458,-3.5458,-3.5431,-3.5297,-3.5151,-3.503,-3.5017,-3.4963,-3.4843,-3.467,-3.4509,-3.4336,-3.4322,-3.4269,-3.4148,-3.4148,-3.4082,-3.3975,-3.3948,-3.3948,-3.3935,-3.3801,-3.3694,-3.3721,-3.3961,-3.4135,-3.4162,-3.4255,-3.4322,-3.4322,-3.4322,-3.4322,-3.4322,-3.4469,-3.4576,-3.4656,-3.499,-3.5297,-3.5471,-3.5698,-3.5885,-3.5899,-3.6006,-3.6059,-3.6086,-3.6099,-3.6153,-3.6153,-3.6233,-3.646,-3.6687,-3.6861,-3.6967,-3.7195,-3.7261,-3.7315,-3.7208,-3.7074,-3.6914,-3.678,-3.654,-3.6326,-3.6313,-3.6166,-3.6112,-3.6286,-3.6326,-3.638,-3.5004,-3.5177,-3.5204,-3.5204,-3.5204,-3.5204,-3.5204,-3.5204,-3.5204,-3.5204,-3.5204,-3.5204,-3.5204,-3.5204,-3.5204,-3.5204,-3.5204,-3.5204,-3.5204,-3.5204,-3.5204,-3.5204,-3.5204,-3.5204,-3.5204,-3.5204,-3.5204,-3.5204,-3.5204,-3.5204,-3.5204,-3.5204,-3.5204,-3.5204,-3.5204,-3.5204,-3.5204,-3.5204,-3.5271,-3.5418,-3.5578,-3.5498,-3.5431,-3.5458,-3.5645,-3.5752,-3.5738,-3.5672,-3.5631,-3.5618,-3.5351,-3.5204,-3.5204,-3.5204,-3.5204,-3.5191,-3.5004,-3.479,-3.4576,-3.4563,-3.4523,-3.4456,-3.4442,-3.4402,-3.4336,-3.4322,-3.4322,-3.4295,-3.4202,-3.4108,-3.4042,-3.4269,-3.4429,-3.4442,-3.4496,-3.4563,-3.4576,-3.4563,-3.4576,-3.4576,-3.4776,-3.4923,-3.503,-3.5351,-3.5618,-3.5752,-3.6006,-3.6193,-3.6219,-3.6259,-3.634,-3.6313,-3.65,-3.6553,-3.654,-3.658,-3.674,-3.6981,-3.7128,-3.7301,-3.7489,-3.7542,-3.7542,-3.7555,-3.7475,-3.7328,-3.7101,-3.6847,-3.662,-3.658,-3.6473,-3.638,-3.658,-3.662,-3.67,-3.5191,-3.5204,-3.5204,-3.5204,-3.5204,-3.5204,-3.5204,-3.5204,-3.5204,-3.5204,-3.5204,-3.5204,-3.5204,-3.5204,-3.5204,-3.5204,-3.5204,-3.5204,-3.5204,-3.5204,-3.5204,-3.5204,-3.5204,-3.5204,-3.5204,-3.5204,-3.5204,-3.5204,-3.5204,-3.5204,-3.5204,-3.5204,-3.5204,-3.5204,-3.5217,-3.5217,-3.5204,-3.5244,-3.5458,-3.5618,-3.5672,-3.5912,-3.6019,-3.6032,-3.6046,-3.6059,-3.6032,-3.5792,-3.5645,-3.5645,-3.5391,-3.5231,-3.5204,-3.5204,-3.5204,-3.5191,-3.5177,-3.5164,-3.5124,-3.5097,-3.5004,-3.479,-3.4736,-3.4629,-3.4429,-3.4402,-3.4402,-3.4336,-3.4576,-3.4589,-3.4402,-3.4589,-3.4736,-3.4763,-3.4977,-3.5097,-3.5124,-3.507,-3.5151,-3.5124,-3.5137,-3.5257,-3.5511,-3.5605,-3.5805,-3.6032,-3.6299,-3.6487,-3.6513,-3.67,-3.6807,-3.6821,-3.6847,-3.6821,-3.6607,-3.6767,-3.7034,-3.7235,-3.7435,-3.7729,-3.7876,-3.7969,-3.7929,-3.7849,-3.7662,-3.7502,-3.7355,-3.7181,-3.6981,-3.6914,-3.6901,-3.6901,-3.7008,-3.6954,-3.7021,-3.5204,-3.5204,-3.5204,-3.5204,-3.5204,-3.5204,-3.5204,-3.5204,-3.5204,-3.5204,-3.5204,-3.5204,-3.5204,-3.5204,-3.5204,-3.5204,-3.5204,-3.5204,-3.5204,-3.5204,-3.5204,-3.5204,-3.5204,-3.5204,-3.5204,-3.5204,-3.5204,-3.5204,-3.5204,-3.5204,-3.5297,-3.5418,-3.5284,-3.5284,-3.5404,-3.5284,-3.5284,-3.5458,-3.5591,-3.5805,-3.6153,-3.6299,-3.6433,-3.6607,-3.6446,-3.6353,-3.6353,-3.6246,-3.6193,-3.6193,-3.5912,-3.5672,-3.5485,-3.5297,-3.5204,-3.5204,-3.5204,-3.5204,-3.5204,-3.5204,-3.5151,-3.5057,-3.5044,-3.499,-3.491,-3.4883,-3.4883,-3.4897,-3.495,-3.4963,-3.4937,-3.499,-3.5044,-3.5057,-3.5137,-3.5204,-3.5204,-3.5204,-3.5204,-3.5231,-3.5351,-3.5525,-3.5685,-3.5952,-3.6219,-3.6353,-3.6593,-3.674,-3.678,-3.6887,-3.6941,-3.6941,-3.6941,-3.6981,-3.7101,-3.7141,-3.7288,-3.7408,-3.7595,-3.7863,-3.8063,-3.8157,-3.8143,-3.8143,-3.7943,-3.7769,-3.7649,-3.7422,-3.7261,-3.7221,-3.7221,-3.7288,-3.7462,-3.7368,-3.7408,-3.5257,-3.5324,-3.5338,-3.5391,-3.5471,-3.5485,-3.5471,-3.5485,-3.5485,-3.5485,-3.5485,-3.5471,-3.5485,-3.5485,-3.5471,-3.5485,-3.5458,-3.5391,-3.5391,-3.5471,-3.5471,-3.5471,-3.5485,-3.5485,-3.5471,-3.5485,-3.5485,-3.5444,-3.5364,-3.5431,-3.5578,-3.5752,-3.5565,-3.5578,-3.5712,-3.5578,-3.5591,-3.5752,-3.5859,-3.6112,-3.6473,-3.6607,-3.6727,-3.6874,-3.674,-3.6647,-3.6633,-3.6553,-3.6513,-3.6473,-3.6219,-3.5979,-3.5778,-3.5591,-3.5485,-3.5485,-3.5485,-3.5431,-3.5351,-3.5338,-3.5297,-3.5204,-3.5204,-3.5204,-3.5204,-3.5204,-3.5204,-3.5204,-3.5204,-3.5217,-3.5311,-3.5338,-3.5297,-3.5231,-3.5204,-3.5244,-3.5324,-3.5338,-3.5391,-3.5511,-3.5658,-3.5792,-3.5925,-3.6259,-3.65,-3.662,-3.6834,-3.6927,-3.6941,-3.6941,-3.6941,-3.6954,-3.7048,-3.7168,-3.7342,-3.7489,-3.7676,-3.7809,-3.7836,-3.8076,-3.825,-3.8344,-3.8384,-3.8384,-3.829,-3.8103,-3.7903,-3.7676,-3.7569,-3.7529,-3.7515,-3.7569,-3.7676,-3.7756,-3.7756,-3.5378,-3.5618,-3.5631,-3.5778,-3.5979,-3.5992,-3.6046,-3.6032,-3.6046,-3.6046,-3.6072,-3.6059,-3.6019,-3.6046,-3.5992,-3.6032,-3.5992,-3.5792,-3.5792,-3.5979,-3.6006,-3.6006,-3.5992,-3.5979,-3.5979,-3.5979,-3.6032,-3.5899,-3.5658,-3.5859,-3.6006,-3.6059,-3.6032,-3.5992,-3.6072,-3.6019,-3.6032,-3.6112,-3.6299,-3.6473,-3.654,-3.6767,-3.6914,-3.6941,-3.6914,-3.6901,-3.6914,-3.6674,-3.6553,-3.6513,-3.6286,-3.6099,-3.6086,-3.6019,-3.6032,-3.5992,-3.6032,-3.5899,-3.5672,-3.5631,-3.5525,-3.5351,-3.5244,-3.5297,-3.5324,-3.5297,-3.5284,-3.5257,-3.5284,-3.5338,-3.5551,-3.5618,-3.5551,-3.5284,-3.5311,-3.5418,-3.5565,-3.5631,-3.5738,-3.5952,-3.6046,-3.6193,-3.6406,-3.6527,-3.666,-3.6874,-3.6981,-3.7034,-3.7074,-3.7088,-3.6994,-3.7048,-3.7221,-3.7435,-3.7635,-3.7836,-3.8063,-3.825,-3.825,-3.8357,-3.8491,-3.8597,-3.8571,-3.8571,-3.8477,-3.8303,-3.805,-3.7849,-3.7849,-3.7823,-3.7823,-3.7863,-3.7996,-3.8076,-3.7996,-3.5672,-3.5925,-3.5939,-3.5979,-3.6072,-3.6072,-3.6179,-3.6366,-3.6366,-3.6487,-3.6607,-3.646,-3.6366,-3.6313,-3.6179,-3.6193,-3.6353,-3.6273,-3.6179,-3.6099,-3.6086,-3.6086,-3.6086,-3.6086,-3.6072,-3.6072,-3.6072,-3.6032,-3.5979,-3.6046,-3.6166,-3.6299,-3.6166,-3.6193,-3.6353,-3.6179,-3.6153,-3.6366,-3.646,-3.6593,-3.678,-3.6887,-3.6941,-3.6941,-3.6941,-3.6941,-3.6927,-3.6847,-3.6807,-3.6794,-3.6714,-3.658,-3.6393,-3.6179,-3.6072,-3.6072,-3.6072,-3.6046,-3.5952,-3.5939,-3.5899,-3.5805,-3.5792,-3.5805,-3.5805,-3.5778,-3.5685,-3.5565,-3.5672,-3.5792,-3.5685,-3.5819,-3.5885,-3.5805,-3.5805,-3.5805,-3.5912,-3.5952,-3.5965,-3.6072,-3.6246,-3.6406,-3.6527,-3.6647,-3.6914,-3.7168,-3.7235,-3.7288,-3.7475,-3.7475,-3.7542,-3.7569,-3.7676,-3.7729,-3.7916,-3.809,-3.8277,-3.8437,-3.8491,-3.8491,-3.8638,-3.8718,-3.8718,-3.8691,-3.8597,-3.8464,-3.8223,-3.8116,-3.8116,-3.8116,-3.813,-3.8237,-3.8384,-3.8384,-3.829,-3.5965,-3.6219,-3.6233,-3.6299,-3.6393,-3.6393,-3.65,-3.6647,-3.6674,-3.678,-3.6874,-3.6754,-3.6674,-3.6633,-3.6473,-3.65,-3.666,-3.666,-3.6567,-3.642,-3.6393,-3.6393,-3.6393,-3.6393,-3.6326,-3.6273,-3.634,-3.634,-3.6246,-3.6353,-3.6487,-3.6593,-3.6487,-3.6487,-3.6647,-3.65,-3.65,-3.6647,-3.6674,-3.6754,-3.6914,-3.7048,-3.7101,-3.7114,-3.7208,-3.7208,-3.7128,-3.7101,-3.7048,-3.6954,-3.6941,-3.6834,-3.666,-3.65,-3.6393,-3.6393,-3.638,-3.6366,-3.6259,-3.6233,-3.6166,-3.6099,-3.6072,-3.6059,-3.6072,-3.6072,-3.5965,-3.5872,-3.5939,-3.6032,-3.6006,-3.6112,-3.6273,-3.638,-3.6166,-3.6139,-3.6206,-3.634,-3.6393,-3.646,-3.6567,-3.6647,-3.6727,-3.6927,-3.7155,-3.7355,-3.7475,-3.7569,-3.7769,-3.7796,-3.7823,-3.7876,-3.7929,-3.8023,-3.8197,-3.8357,-3.8504,-3.8597,-3.8664,-3.8651,-3.8704,-3.8718,-3.8718,-3.8718,-3.8664,-3.8638,-3.8437,-3.8437,-3.8437,-3.8437,-3.841,-3.8491,-3.8584,-3.8624,-3.8571,-3.6259,-3.6513,-3.6527,-3.6674,-3.6874,-3.6887,-3.6914,-3.6954,-3.6967,-3.6994,-3.7021,-3.6994,-3.6967,-3.6967,-3.6874,-3.6887,-3.6967,-3.6967,-3.6954,-3.6927,-3.6927,-3.6901,-3.6847,-3.6834,-3.6714,-3.6593,-3.6767,-3.6754,-3.6553,-3.674,-3.6941,-3.6887,-3.6874,-3.6914,-3.6887,-3.6927,-3.6874,-3.6887,-3.6914,-3.6927,-3.6954,-3.7221,-3.7355,-3.7368,-3.7595,-3.7635,-3.7448,-3.7395,-3.7261,-3.6994,-3.6941,-3.6927,-3.6927,-3.6927,-3.6874,-3.6861,-3.6914,-3.6767,-3.6593,-3.6527,-3.6446,-3.6246,-3.6219,-3.6112,-3.6206,-3.6233,-3.6193,-3.6112,-3.6166,-3.6246,-3.6406,-3.6513,-3.6633,-3.6807,-3.6487,-3.634,-3.6513,-3.6754,-3.6807,-3.6861,-3.6927,-3.6954,-3.6954,-3.7195,-3.7355,-3.7529,-3.7716,-3.7849,-3.7956,-3.8023,-3.7916,-3.801,-3.8197,-3.8277,-3.8437,-3.8491,-3.8624,-3.8651,-3.8718,-3.8731,-3.8731,-3.8731,-3.8718,-3.8718,-3.8771,-3.8744,-3.8704,-3.8651,-3.8638,-3.8611,-3.8624,-3.8704,-3.8718,-3.8718,-3.8718,-3.6567,-3.6821,-3.6821,-3.6874,-3.6941,-3.6941,-3.7061,-3.7248,-3.7248,-3.7328,-3.7489,-3.7355,-3.7248,-3.7248,-3.7048,-3.7048,-3.7221,-3.7261,-3.7261,-3.7261,-3.7261,-3.7128,-3.6981,-3.6941,-3.6901,-3.6834,-3.6887,-3.6901,-3.6834,-3.6901,-3.6941,-3.6941,-3.6941,-3.6941,-3.6941,-3.6941,-3.6941,-3.6941,-3.6941,-3.6941,-3.6994,-3.7248,-3.7368,-3.7408,-3.7676,-3.7782,-3.7702,-3.7702,-3.7448,-3.6994,-3.6941,-3.6941,-3.6941,-3.6941,-3.6941,-3.6941,-3.6941,-3.6914,-3.6834,-3.6807,-3.6767,-3.6727,-3.6647,-3.67,-3.6714,-3.6714,-3.6607,-3.65,-3.6567,-3.6633,-3.658,-3.6687,-3.6847,-3.6901,-3.6767,-3.6714,-3.6794,-3.6874,-3.6941,-3.6941,-3.6941,-3.7048,-3.7208,-3.7368,-3.7569,-3.7889,-3.8076,-3.8197,-3.8303,-3.837,-3.833,-3.8437,-3.8571,-3.8584,-3.8638,-3.8678,-3.8704,-3.8704,-3.8718,-3.8731,-3.8744,-3.8758,-3.8744,-3.8718,-3.8878,-3.8905,-3.8798,-3.8704,-3.8731,-3.8784,-3.8731,-3.8731,-3.8718,-3.8718,-3.8718,-3.678,-3.6941,-3.6941,-3.6941,-3.6941,-3.6941,-3.7034,-3.7168,-3.7195,-3.7275,-3.7408,-3.7422,-3.7382,-3.7368,-3.7328,-3.7395,-3.7542,-3.7569,-3.7555,-3.7569,-3.7569,-3.7328,-3.7034,-3.6941,-3.6941,-3.6941,-3.6941,-3.6941,-3.6927,-3.6941,-3.6941,-3.6941,-3.6941,-3.6941,-3.6941,-3.6941,-3.6941,-3.6941,-3.6941,-3.6981,-3.7128,-3.7422,-3.7635,-3.7769,-3.8023,-3.8157,-3.8023,-3.7889,-3.7542,-3.7101,-3.7034,-3.7074,-3.6954,-3.6941,-3.6941,-3.6941,-3.6941,-3.6941,-3.6941,-3.6941,-3.6941,-3.6941,-3.6941,-3.6941,-3.6927,-3.6941,-3.6834,-3.674,-3.6861,-3.6834,-3.6767,-3.6847,-3.6927,-3.6954,-3.7048,-3.7061,-3.6954,-3.6927,-3.6941,-3.6967,-3.7061,-3.7181,-3.7395,-3.7582,-3.7876,-3.817,-3.8357,-3.8504,-3.8638,-3.8704,-3.8718,-3.8718,-3.8718,-3.8691,-3.8678,-3.8704,-3.8718,-3.8718,-3.8784,-3.8784,-3.8891,-3.8905,-3.8972,-3.8998,-3.9052,-3.9065,-3.9012,-3.8958,-3.8931,-3.8931,-3.8825,-3.8744,-3.8744,-3.8838,-3.8825,-3.6941,-3.6941,-3.6941,-3.6954,-3.6994,-3.6981,-3.7061,-3.7061,-3.7114,-3.7114,-3.7181,-3.7342,-3.7462,-3.7448,-3.7635,-3.7809,-3.7849,-3.7863,-3.7863,-3.7849,-3.7782,-3.7529,-3.7168,-3.7061,-3.7048,-3.7021,-3.6967,-3.6941,-3.6941,-3.6941,-3.6941,-3.6941,-3.6941,-3.6941,-3.6941,-3.6941,-3.6941,-3.6941,-3.6941,-3.7074,-3.7328,-3.7609,-3.7876,-3.8157,-3.845,-3.845,-3.825,-3.8036,-3.7689,-3.7074,-3.7288,-3.7288,-3.7088,-3.7034,-3.6994,-3.6994,-3.6981,-3.6941,-3.6941,-3.6941,-3.6941,-3.6941,-3.6941,-3.6941,-3.6941,-3.6941,-3.6927,-3.6887,-3.6927,-3.6954,-3.6994,-3.6994,-3.7061,-3.7141,-3.7315,-3.7275,-3.7114,-3.7034,-3.7021,-3.7034,-3.7288,-3.7408,-3.7595,-3.7889,-3.8263,-3.837,-3.8531,-3.8624,-3.8704,-3.8718,-3.8718,-3.8718,-3.8718,-3.8718,-3.8718,-3.8718,-3.8718,-3.8731,-3.8838,-3.8918,-3.9118,-3.9199,-3.9319,-3.9372,-3.9332,-3.9359,-3.9426,-3.9346,-3.9199,-3.9078,-3.8958,-3.8865,-3.8811,-3.8998,-3.9065,-3.6941,-3.6941,-3.6941,-3.7074,-3.7261,-3.7288,-3.7408,-3.7595,-3.7609,-3.7569,-3.7635,-3.7689,-3.7729,-3.7729,-3.7836,-3.7929,-3.8143,-3.817,-3.817,-3.813,-3.7903,-3.7782,-3.7569,-3.7422,-3.7301,-3.7248,-3.7048,-3.6954,-3.6967,-3.7008,-3.6941,-3.6954,-3.6981,-3.6941,-3.6941,-3.6941,-3.6941,-3.6941,-3.6941,-3.7114,-3.7408,-3.7689,-3.7983,-3.8277,-3.8571,-3.8544,-3.8384,-3.8437,-3.8223,-3.7809,-3.7689,-3.7702,-3.7555,-3.7395,-3.7288,-3.7248,-3.7074,-3.6967,-3.6954,-3.6994,-3.6954,-3.6994,-3.6994,-3.6941,-3.6941,-3.6941,-3.6941,-3.6941,-3.6941,-3.7034,-3.7208,-3.7275,-3.7355,-3.7502,-3.7649,-3.7702,-3.7635,-3.7609,-3.7569,-3.7609,-3.7662,-3.7796,-3.801,-3.8116,-3.837,-3.8557,-3.8651,-3.8704,-3.8718,-3.8718,-3.8718,-3.8718,-3.8718,-3.8718,-3.8718,-3.8718,-3.8718,-3.8771,-3.8878,-3.9065,-3.9279,-3.9439,-3.9533,-3.9559,-3.9559,-3.964,-3.9773,-3.9426,-3.9212,-3.9159,-3.9118,-3.9025,-3.9025,-3.9185,-3.9292,-3.6941,-3.6954,-3.7088,-3.7235,-3.7395,-3.7529,-3.7676,-3.7796,-3.7809,-3.7809,-3.7849,-3.7956,-3.8023,-3.805,-3.8183,-3.8357,-3.8437,-3.8477,-3.8477,-3.845,-3.8303,-3.825,-3.817,-3.7943,-3.7742,-3.7595,-3.7448,-3.7355,-3.7355,-3.7315,-3.7301,-3.7155,-3.7141,-3.7061,-3.6954,-3.6954,-3.6941,-3.6981,-3.7088,-3.7288,-3.7582,-3.7863,-3.817,-3.8424,-3.8638,-3.8624,-3.8517,-3.8624,-3.8531,-3.833,-3.8223,-3.809,-3.7849,-3.7676,-3.7595,-3.7555,-3.7462,-3.7355,-3.7355,-3.7355,-3.7368,-3.7328,-3.7235,-3.7168,-3.7101,-3.7034,-3.6941,-3.6941,-3.6967,-3.7061,-3.7328,-3.7368,-3.7529,-3.7769,-3.7956,-3.801,-3.7996,-3.7903,-3.7809,-3.7849,-3.7916,-3.8063,-3.821,-3.8344,-3.8477,-3.8664,-3.8664,-3.8718,-3.8718,-3.8718,-3.8718,-3.8718,-3.8718,-3.8718,-3.8718,-3.8718,-3.8718,-3.8811,-3.8945,-3.9185,-3.9452,-3.9599,-3.972,-3.9813,-3.9933,-4.0027,-4.0067,-3.9666,-3.9359,-3.9346,-3.9319,-3.9225,-3.9225,-3.9359,-3.9452,-3.6954,-3.7021,-3.7275,-3.7435,-3.7555,-3.7782,-3.7929,-3.7969,-3.7956,-3.8023,-3.7996,-3.8223,-3.833,-3.8384,-3.8571,-3.8704,-3.8704,-3.8704,-3.8664,-3.8651,-3.8638,-3.8611,-3.8571,-3.8384,-3.8183,-3.7956,-3.7782,-3.7769,-3.7756,-3.7796,-3.7609,-3.7475,-3.7448,-3.7368,-3.7141,-3.7088,-3.7141,-3.7195,-3.7355,-3.7595,-3.7849,-3.8116,-3.837,-3.8624,-3.8704,-3.8718,-3.8678,-3.8704,-3.8704,-3.8718,-3.8718,-3.8437,-3.8103,-3.7889,-3.7889,-3.7876,-3.7796,-3.7716,-3.7702,-3.7742,-3.7756,-3.7796,-3.7595,-3.7462,-3.7395,-3.7275,-3.7141,-3.7061,-3.7074,-3.7208,-3.7462,-3.7595,-3.7716,-3.7956,-3.821,-3.8303,-3.829,-3.809,-3.8036,-3.805,-3.821,-3.837,-3.8437,-3.8531,-3.8638,-3.8718,-3.8718,-3.8718,-3.8718,-3.8718,-3.8718,-3.8718,-3.8718,-3.8718,-3.8718,-3.8718,-3.8718,-3.8838,-3.8985,-3.9292,-3.9599,-3.9867,-4.0054,-4.0241,-4.0374,-4.0401,-4.0281,-3.9947,-3.972,-3.964,-3.9573,-3.9533,-3.9546,-3.9559,-3.9666,-3.7088,-3.7315,-3.7368,-3.7649,-3.8076,-3.817,-3.833,-3.8557,-3.8517,-3.8557,-3.8557,-3.8611,-3.8624,-3.8651,-3.8678,-3.8718,-3.8718,-3.8718,-3.8718,-3.8718,-3.8718,-3.8718,-3.8691,-3.8638,-3.8557,-3.8437,-3.8143,-3.7903,-3.7876,-3.7796,-3.7849,-3.7769,-3.7742,-3.7689,-3.7635,-3.7662,-3.7582,-3.7569,-3.7689,-3.7889,-3.809,-3.8263,-3.8424,-3.8691,-3.8718,-3.8718,-3.8718,-3.8718,-3.8718,-3.8718,-3.8718,-3.8651,-3.8491,-3.8303,-3.821,-3.8143,-3.801,-3.7929,-3.7916,-3.7863,-3.7836,-3.7809,-3.7769,-3.7756,-3.7729,-3.7662,-3.7489,-3.7355,-3.7342,-3.7515,-3.8063,-3.8023,-3.8237,-3.8464,-3.8557,-3.8611,-3.8597,-3.8544,-3.8477,-3.845,-3.8557,-3.8611,-3.8611,-3.8624,-3.8678,-3.8718,-3.8718,-3.8718,-3.8718,-3.8718,-3.8718,-3.8718,-3.8718,-3.8718,-3.8718,-3.8718,-3.8731,-3.8878,-3.9065,-3.9399,-3.9733,-4.0134,-4.0388,-4.0454,-4.0481,-4.0454,-4.0308,-4.0107,-3.9987,-3.984,-3.984,-3.9853,-3.9853,-3.9867,-4.0107,-3.7248,-3.7408,-3.7702,-3.7996,-3.8263,-3.8437,-3.8584,-3.8704,-3.8718,-3.8718,-3.8718,-3.8718,-3.8718,-3.8718,-3.8718,-3.8718,-3.8718,-3.8718,-3.8718,-3.8718,-3.8718,-3.8718,-3.8718,-3.8718,-3.8718,-3.8638,-3.841,-3.8263,-3.829,-3.829,-3.8183,-3.8063,-3.805,-3.7969,-3.7836,-3.7782,-3.7823,-3.7849,-3.7969,-3.8116,-3.8277,-3.8384,-3.8597,-3.8664,-3.8718,-3.8718,-3.8718,-3.8718,-3.8718,-3.8718,-3.8718,-3.8718,-3.8678,-3.8597,-3.8491,-3.8464,-3.8344,-3.8277,-3.8277,-3.8277,-3.8303,-3.8277,-3.8143,-3.805,-3.7996,-3.7903,-3.7769,-3.7662,-3.7622,-3.7782,-3.8197,-3.8263,-3.841,-3.8638,-3.8718,-3.8718,-3.8718,-3.8718,-3.8718,-3.8718,-3.8691,-3.8678,-3.8691,-3.8704,-3.8718,-3.8718,-3.8718,-3.8718,-3.8718,-3.8718,-3.8718,-3.8718,-3.8718,-3.8718,-3.8718,-3.8718,-3.8771,-3.8918,-3.9145,-3.9479,-3.98,-4.0161,-4.0361,-4.0468,-4.0481,-4.0481,-4.0374,-4.0201,-4.012,-4.004,-4.0014,-4.0,-4.008,-4.0214,-4.0388,-3.7448,-3.7595,-3.8063,-3.829,-3.8397,-3.8611,-3.8718,-3.8718,-3.8718,-3.8718,-3.8718,-3.8718,-3.8718,-3.8718,-3.8718,-3.8718,-3.8718,-3.8718,-3.8718,-3.8718,-3.8718,-3.8718,-3.8718,-3.8718,-3.8718,-3.8718,-3.8678,-3.8718,-3.8638,-3.8638,-3.8544,-3.8424,-3.8344,-3.825,-3.8076,-3.809,-3.7996,-3.8063,-3.821,-3.8344,-3.841,-3.8571,-3.8718,-3.8718,-3.8718,-3.8718,-3.8718,-3.8718,-3.8718,-3.8718,-3.8718,-3.8718,-3.8718,-3.8718,-3.8718,-3.8718,-3.8718,-3.8718,-3.8704,-3.8678,-3.8624,-3.8597,-3.8477,-3.8384,-3.8277,-3.8143,-3.7943,-3.7969,-3.7929,-3.8036,-3.833,-3.8357,-3.8477,-3.8624,-3.8718,-3.8718,-3.8718,-3.8718,-3.8718,-3.8718,-3.8718,-3.8718,-3.8718,-3.8718,-3.8718,-3.8718,-3.8718,-3.8718,-3.8718,-3.8718,-3.8718,-3.8718,-3.8718,-3.8718,-3.8718,-3.8718,-3.8811,-3.8958,-3.9252,-3.9599,-3.9867,-4.0147,-4.0321,-4.0481,-4.0481,-4.0468,-4.0374,-4.0334,-4.0267,-4.0214,-4.0147,-4.0161,-4.0254,-4.0321,-4.0428,-3.7689,-3.8157,-3.8237,-3.841,-3.8638,-3.8704,-3.8718,-3.8718,-3.8718,-3.8718,-3.8718,-3.8718,-3.8718,-3.8718,-3.8718,-3.8718,-3.8718,-3.8718,-3.8718,-3.8718,-3.8718,-3.8718,-3.8718,-3.8718,-3.8718,-3.8718,-3.8718,-3.8718,-3.8718,-3.8718,-3.8704,-3.8638,-3.8611,-3.8624,-3.8504,-3.8477,-3.8611,-3.8611,-3.8624,-3.8651,-3.8651,-3.8691,-3.8718,-3.8718,-3.8718,-3.8718,-3.8718,-3.8718,-3.8718,-3.8718,-3.8718,-3.8718,-3.8718,-3.8718,-3.8718,-3.8718,-3.8718,-3.8718,-3.8718,-3.8718,-3.8718,-3.8718,-3.8651,-3.8664,-3.8557,-3.8397,-3.8303,-3.8584,-3.837,-3.8317,-3.8544,-3.8638,-3.8691,-3.8691,-3.8718,-3.8718,-3.8718,-3.8718,-3.8718,-3.8718,-3.8718,-3.8718,-3.8718,-3.8718,-3.8718,-3.8718,-3.8718,-3.8718,-3.8718,-3.8718,-3.8718,-3.8718,-3.8718,-3.8718,-3.8718,-3.8718,-3.8851,-3.9012,-3.9332,-3.968,-3.9933,-4.0174,-4.0361,-4.0481,-4.0481,-4.0481,-4.0441,-4.0414,-4.0401,-4.0374,-4.0308,-4.0361,-4.0441,-4.0481,-4.0481,-3.8023,-3.8263,-3.845,-3.8597,-3.8718,-3.8718,-3.8718,-3.8718,-3.8718,-3.8718,-3.8718,-3.8718,-3.8718,-3.8718,-3.8718,-3.8718,-3.8718,-3.8718,-3.8718,-3.8718,-3.8718,-3.8718,-3.8718,-3.8718,-3.8718,-3.8718,-3.8718,-3.8718,-3.8718,-3.8718,-3.8718,-3.8718,-3.8718,-3.8704,-3.8718,-3.8718,-3.8704,-3.8704,-3.8718,-3.8718,-3.8718,-3.8718,-3.8718,-3.8718,-3.8718,-3.8718,-3.8718,-3.8718,-3.8718,-3.8718,-3.8718,-3.8718,-3.8718,-3.8718,-3.8718,-3.8718,-3.8718,-3.8718,-3.8718,-3.8718,-3.8718,-3.8718,-3.8718,-3.8704,-3.8691,-3.8611,-3.8544,-3.8691,-3.8611,-3.8597,-3.8678,-3.8718,-3.8718,-3.8718,-3.8718,-3.8718,-3.8718,-3.8718,-3.8718,-3.8718,-3.8718,-3.8718,-3.8718,-3.8718,-3.8718,-3.8718,-3.8718,-3.8718,-3.8718,-3.8718,-3.8718,-3.8718,-3.8718,-3.8718,-3.8718,-3.8718,-3.8891,-3.9078,-3.9359,-3.9693,-3.9974,-4.0214,-4.0388,-4.0481,-4.0481,-4.0481,-4.0481,-4.0468,-4.0441,-4.0454,-4.0481,-4.0481,-4.0481,-4.0481,-4.0481,-3.837,-3.8397,-3.8624,-3.8718,-3.8718,-3.8718,-3.8718,-3.8718,-3.8718,-3.8718,-3.8718,-3.8718,-3.8718,-3.8718,-3.8718,-3.8718,-3.8718,-3.8718,-3.8718,-3.8718,-3.8718,-3.8718,-3.8718,-3.8718,-3.8718,-3.8718,-3.8718,-3.8718,-3.8718,-3.8718,-3.8718,-3.8718,-3.8718,-3.8718,-3.8718,-3.8718,-3.8718,-3.8718,-3.8718,-3.8718,-3.8718,-3.8718,-3.8718,-3.8718,-3.8718,-3.8718,-3.8718,-3.8718,-3.8718,-3.8718,-3.8718,-3.8718,-3.8718,-3.8718,-3.8718,-3.8718,-3.8718,-3.8718,-3.8718,-3.8718,-3.8718,-3.8718,-3.8718,-3.8718,-3.8718,-3.8718,-3.8718,-3.8718,-3.8704,-3.8691,-3.8718,-3.8718,-3.8718,-3.8718,-3.8718,-3.8718,-3.8718,-3.8718,-3.8718,-3.8718,-3.8718,-3.8718,-3.8718,-3.8718,-3.8718,-3.8718,-3.8718,-3.8718,-3.8718,-3.8718,-3.8718,-3.8718,-3.8718,-3.8718,-3.8718,-3.8771,-3.8931,-3.9159,-3.9439,-3.9773,-4.0107,-4.0281,-4.0441,-4.0481,-4.0481,-4.0481,-4.0481,-4.0481,-4.0481,-4.0481,-4.0481,-4.0481,-4.0481,-4.0481,-4.0481,-3.8691,-3.8691,-3.8718,-3.8718,-3.8718,-3.8718,-3.8731,-3.8718,-3.8718,-3.8718,-3.8718,-3.8718,-3.8718,-3.8718,-3.8718,-3.8718,-3.8718,-3.8718,-3.8718,-3.8718,-3.8718,-3.8718,-3.8718,-3.8718,-3.8718,-3.8718,-3.8718,-3.8718,-3.8718,-3.8718,-3.8718,-3.8718,-3.8718,-3.8718,-3.8718,-3.8718,-3.8718,-3.8718,-3.8718,-3.8718,-3.8718,-3.8718,-3.8718,-3.8718,-3.8718,-3.8718,-3.8718,-3.8718,-3.8718,-3.8718,-3.8718,-3.8718,-3.8718,-3.8718,-3.8718,-3.8718,-3.8718,-3.8718,-3.8718,-3.8718,-3.8718,-3.8718,-3.8718,-3.8718,-3.8718,-3.8718,-3.8718,-3.8718,-3.8718,-3.8718,-3.8718,-3.8718,-3.8718,-3.8718,-3.8718,-3.8718,-3.8718,-3.8718,-3.8718,-3.8718,-3.8718,-3.8718,-3.8718,-3.8718,-3.8718,-3.8718,-3.8718,-3.8718,-3.8718,-3.8718,-3.8718,-3.8718,-3.8718,-3.8718,-3.8718,-3.8811,-3.8945,-3.9225,-3.9519,-3.992,-4.0321,-4.0441,-4.0481,-4.0481,-4.0481,-4.0481,-4.0481,-4.0481,-4.0481,-4.0481,-4.0481,-4.0481,-4.0481,-4.0481,-4.0481,-3.8825,-3.8972,-3.8798,-3.8718,-3.8731,-3.8918,-3.8891,-3.8731,-3.8718,-3.8718,-3.8718,-3.8718,-3.8718,-3.8718,-3.8718,-3.8718,-3.8718,-3.8718,-3.8718,-3.8718,-3.8718,-3.8718,-3.8718,-3.8718,-3.8718,-3.8718,-3.8718,-3.8718,-3.8718,-3.8718,-3.8718,-3.8718,-3.8718,-3.8718,-3.8718,-3.8718,-3.8718,-3.8718,-3.8718,-3.8718,-3.8718,-3.8718,-3.8718,-3.8718,-3.8718,-3.8718,-3.8718,-3.8718,-3.8718,-3.8718,-3.8718,-3.8718,-3.8718,-3.8718,-3.8718,-3.8718,-3.8718,-3.8718,-3.8718,-3.8718,-3.8718,-3.8718,-3.8718,-3.8718,-3.8718,-3.8718,-3.8718,-3.8718,-3.8718,-3.8718,-3.8718,-3.8718,-3.8718,-3.8718,-3.8718,-3.8718,-3.8718,-3.8718,-3.8718,-3.8718,-3.8718,-3.8718,-3.8718,-3.8718,-3.8718,-3.8718,-3.8718,-3.8718,-3.8718,-3.8718,-3.8718,-3.8718,-3.8718,-3.8718,-3.8718,-3.8825,-3.8958,-3.9279,-3.9599,-3.9974,-4.0334,-4.0441,-4.0481,-4.0481,-4.0481,-4.0481,-4.0481,-4.0481,-4.0481,-4.0481,-4.0481,-4.0481,-4.0481,-4.0481,-4.0481,-3.8838,-3.8998,-3.8905,-3.8798,-3.8758,-3.8945,-3.8905,-3.8744,-3.8718,-3.8718,-3.8718,-3.8718,-3.8718,-3.8718,-3.8718,-3.8718,-3.8718,-3.8718,-3.8718,-3.8718,-3.8718,-3.8718,-3.8718,-3.8718,-3.8718,-3.8718,-3.8718,-3.8718,-3.8718,-3.8718,-3.8718,-3.8718,-3.8718,-3.8718,-3.8718,-3.8718,-3.8718,-3.8718,-3.8718,-3.8718,-3.8718,-3.8718,-3.8718,-3.8718,-3.8718,-3.8718,-3.8718,-3.8718,-3.8718,-3.8718,-3.8718,-3.8718,-3.8718,-3.8718,-3.8718,-3.8718,-3.8718,-3.8718,-3.8718,-3.8718,-3.8718,-3.8718,-3.8718,-3.8718,-3.8718,-3.8718,-3.8718,-3.8718,-3.8718,-3.8718,-3.8718,-3.8718,-3.8718,-3.8718,-3.8718,-3.8718,-3.8718,-3.8718,-3.8718,-3.8718,-3.8718,-3.8718,-3.8718,-3.8718,-3.8718,-3.8718,-3.8718,-3.8718,-3.8718,-3.8718,-3.8718,-3.8718,-3.8718,-3.8718,-3.8731,-3.8798,-3.8918,-3.9346,-3.9666,-3.9947,-4.0227,-4.0374,-4.0481,-4.0481,-4.0481,-4.0481,-4.0481,-4.0481,-4.0481,-4.0481,-4.0481,-4.0481,-4.0481,-4.0481,-4.0481,-3.8731,-3.8771,-3.9012,-3.8958,-3.8744,-3.8731,-3.8744,-3.8718,-3.8718,-3.8718,-3.8718,-3.8718,-3.8718,-3.8718,-3.8718,-3.8718,-3.8718,-3.8718,-3.8718,-3.8718,-3.8718,-3.8718,-3.8718,-3.8718,-3.8718,-3.8718,-3.8718,-3.8718,-3.8718,-3.8718,-3.8718,-3.8718,-3.8718,-3.8718,-3.8718,-3.8718,-3.8718,-3.8718,-3.8718,-3.8718,-3.8718,-3.8718,-3.8718,-3.8718,-3.8718,-3.8718,-3.8718,-3.8718,-3.8718,-3.8718,-3.8718,-3.8718,-3.8718,-3.8718,-3.8718,-3.8718,-3.8718,-3.8718,-3.8718,-3.8718,-3.8718,-3.8718,-3.8718,-3.8718,-3.8718,-3.8718,-3.8718,-3.8718,-3.8718,-3.8718,-3.8718,-3.8718,-3.8718,-3.8718,-3.8718,-3.8718,-3.8718,-3.8718,-3.8718,-3.8718,-3.8718,-3.8718,-3.8718,-3.8718,-3.8718,-3.8718,-3.8718,-3.8718,-3.8718,-3.8718,-3.8718,-3.8718,-3.8718,-3.8718,-3.8718,-3.8718,-3.8905,-3.9359,-3.9706,-3.9947,-4.0201,-4.0414,-4.0481,-4.0481,-4.0481,-4.0481,-4.0481,-4.0481,-4.0481,-4.0481,-4.0481,-4.0481,-4.0481,-4.0481,-4.0481,-3.8838,-3.8998,-3.8905,-3.8811,-3.8758,-3.8931,-3.8905,-3.8744,-3.8718,-3.8718,-3.8718,-3.8718,-3.8718,-3.8718,-3.8718,-3.8718,-3.8718,-3.8718,-3.8718,-3.8718,-3.8718,-3.8718,-3.8718,-3.8718,-3.8718,-3.8718,-3.8718,-3.8718,-3.8718,-3.8718,-3.8718,-3.8718,-3.8718,-3.8718,-3.8718,-3.8718,-3.8718,-3.8718,-3.8718,-3.8718,-3.8718,-3.8718,-3.8718,-3.8718,-3.8718,-3.8718,-3.8718,-3.8718,-3.8718,-3.8718,-3.8718,-3.8718,-3.8718,-3.8718,-3.8718,-3.8718,-3.8718,-3.8718,-3.8718,-3.8718,-3.8718,-3.8718,-3.8718,-3.8718,-3.8718,-3.8718,-3.8718,-3.8718,-3.8718,-3.8718,-3.8718,-3.8718,-3.8718,-3.8718,-3.8718,-3.8718,-3.8718,-3.8718,-3.8718,-3.8718,-3.8718,-3.8718,-3.8718,-3.8718,-3.8718,-3.8718,-3.8718,-3.8718,-3.8718,-3.8718,-3.8718,-3.8718,-3.8718,-3.8718,-3.8718,-3.8718,-3.8972,-3.9439,-3.9693,-3.988,-4.0134,-4.0428,-4.0481,-4.0481,-4.0481,-4.0481,-4.0481,-4.0481,-4.0481,-4.0481,-4.0481,-4.0481,-4.0481,-4.0481,-4.0481,-3.8838,-3.8985,-3.8798,-3.8718,-3.8758,-3.8931,-3.8891,-3.8731,-3.8718,-3.8718,-3.8718,-3.8718,-3.8718,-3.8718,-3.8718,-3.8718,-3.8718,-3.8718,-3.8718,-3.8718,-3.8718,-3.8718,-3.8718,-3.8718,-3.8718,-3.8718,-3.8718,-3.8718,-3.8718,-3.8718,-3.8718,-3.8718,-3.8718,-3.8718,-3.8718,-3.8718,-3.8718,-3.8718,-3.8718,-3.8718,-3.8718,-3.8718,-3.8718,-3.8718,-3.8718,-3.8718,-3.8718,-3.8718,-3.8718,-3.8718,-3.8718,-3.8718,-3.8718,-3.8718,-3.8718,-3.8718,-3.8718,-3.8718,-3.8718,-3.8718,-3.8718,-3.8718,-3.8718,-3.8718,-3.8718,-3.8718,-3.8718,-3.8718,-3.8718,-3.8718,-3.8718,-3.8718,-3.8718,-3.8718,-3.8718,-3.8718,-3.8718,-3.8718,-3.8731,-3.8731,-3.8771,-3.8758,-3.8744,-3.8718,-3.8718,-3.8718,-3.8718,-3.8718,-3.8718,-3.8718,-3.8718,-3.8718,-3.8718,-3.8718,-3.8718,-3.8718,-3.9038,-3.9519,-3.972,-3.9867,-4.0187,-4.0481,-4.0481,-4.0481,-4.0481,-4.0481,-4.0481,-4.0481,-4.0481,-4.0481,-4.0481,-4.0481,-4.0481,-4.0481,-4.0481,-3.8718,-3.8718,-3.8718,-3.8718,-3.8718,-3.8744,-3.8731,-3.8718,-3.8718,-3.8718,-3.8718,-3.8718,-3.8718,-3.8718,-3.8718,-3.8718,-3.8718,-3.8718,-3.8718,-3.8718,-3.8718,-3.8718,-3.8718,-3.8718,-3.8718,-3.8718,-3.8718,-3.8718,-3.8718,-3.8718,-3.8718,-3.8718,-3.8718,-3.8718,-3.8718,-3.8718,-3.8718,-3.8718,-3.8718,-3.8718,-3.8718,-3.8718,-3.8718,-3.8718,-3.8718,-3.8718,-3.8718,-3.8718,-3.8718,-3.8718,-3.8718,-3.8718,-3.8718,-3.8718,-3.8718,-3.8718,-3.8718,-3.8718,-3.8718,-3.8718,-3.8718,-3.8718,-3.8718,-3.8718,-3.8718,-3.8718,-3.8718,-3.8718,-3.8718,-3.8718,-3.8718,-3.8718,-3.8718,-3.8718,-3.8718,-3.8718,-3.8718,-3.8731,-3.8758,-3.8784,-3.8865,-3.8878,-3.8838,-3.8811,-3.8811,-3.8718,-3.8718,-3.8718,-3.8718,-3.8718,-3.8718,-3.8718,-3.8718,-3.8718,-3.8731,-3.8771,-3.9065,-3.9533,-3.972,-3.9893,-4.0214,-4.0481,-4.0481,-4.0481,-4.0481,-4.0481,-4.0481,-4.0481,-4.0481,-4.0481,-4.0481,-4.0481,-4.0481,-4.0481,-4.0481,-3.8718,-3.8718,-3.8718,-3.8718,-3.8718,-3.8718,-3.8718,-3.8718,-3.8718,-3.8718,-3.8718,-3.8718,-3.8718,-3.8718,-3.8718,-3.8718,-3.8718,-3.8718,-3.8718,-3.8718,-3.8718,-3.8718,-3.8718,-3.8718,-3.8718,-3.8718,-3.8718,-3.8718,-3.8718,-3.8718,-3.8718,-3.8718,-3.8718,-3.8718,-3.8718,-3.8718,-3.8718,-3.8718,-3.8718,-3.8718,-3.8718,-3.8718,-3.8718,-3.8718,-3.8718,-3.8718,-3.8718,-3.8718,-3.8718,-3.8718,-3.8718,-3.8718,-3.8718,-3.8718,-3.8718,-3.8718,-3.8718,-3.8718,-3.8718,-3.8718,-3.8718,-3.8718,-3.8718,-3.8718,-3.8718,-3.8718,-3.8718,-3.8718,-3.8718,-3.8718,-3.8718,-3.8718,-3.8718,-3.8718,-3.8718,-3.8718,-3.8731,-3.8784,-3.8825,-3.9038,-3.9105,-3.9078,-3.9038,-3.8985,-3.8958,-3.8811,-3.8718,-3.8731,-3.8771,-3.8784,-3.8731,-3.8731,-3.8784,-3.8798,-3.8838,-3.8878,-3.9199,-3.9506,-3.9706,-3.9947,-4.0281,-4.0481,-4.0481,-4.0481,-4.0481,-4.0481,-4.0481,-4.0481,-4.0481,-4.0481,-4.0481,-4.0481,-4.0481,-4.0481,-4.0481,-3.8718,-3.8718,-3.8718,-3.8718,-3.8718,-3.8718,-3.8718,-3.8718,-3.8718,-3.8718,-3.8718,-3.8718,-3.8718,-3.8718,-3.8718,-3.8718,-3.8718,-3.8718,-3.8718,-3.8718,-3.8718,-3.8718,-3.8718,-3.8718,-3.8718,-3.8718,-3.8718,-3.8718,-3.8718,-3.8718,-3.8718,-3.8718,-3.8718,-3.8718,-3.8718,-3.8718,-3.8718,-3.8718,-3.8718,-3.8718,-3.8718,-3.8718,-3.8718,-3.8718,-3.8718,-3.8718,-3.8718,-3.8718,-3.8718,-3.8718,-3.8718,-3.8718,-3.8758,-3.8811,-3.8784,-3.8798,-3.8865,-3.8811,-3.8758,-3.8718,-3.8718,-3.8718,-3.8718,-3.8718,-3.8718,-3.8718,-3.8718,-3.8718,-3.8718,-3.8718,-3.8718,-3.8718,-3.8718,-3.8718,-3.8718,-3.8718,-3.8771,-3.8851,-3.9052,-3.9292,-3.9359,-3.9332,-3.9292,-3.9212,-3.9065,-3.8838,-3.8771,-3.8825,-3.8891,-3.8958,-3.8838,-3.8744,-3.8838,-3.8918,-3.8945,-3.8998,-3.9265,-3.9546,-3.9813,-4.0067,-4.0374,-4.0481,-4.0481,-4.0481,-4.0481,-4.0481,-4.0481,-4.0481,-4.0481,-4.0481,-4.0481,-4.0481,-4.0481,-4.0481,-4.0481,-3.8718,-3.8718,-3.8718,-3.8718,-3.8718,-3.8718,-3.8718,-3.8718,-3.8718,-3.8718,-3.8718,-3.8718,-3.8718,-3.8718,-3.8718,-3.8718,-3.8718,-3.8718,-3.8718,-3.8718,-3.8718,-3.8718,-3.8718,-3.8718,-3.8718,-3.8718,-3.8718,-3.8718,-3.8718,-3.8718,-3.8718,-3.8718,-3.8718,-3.8718,-3.8718,-3.8718,-3.8718,-3.8718,-3.8718,-3.8718,-3.8718,-3.8718,-3.8718,-3.8718,-3.8718,-3.8718,-3.8718,-3.8718,-3.8718,-3.8718,-3.8718,-3.8718,-3.8865,-3.8972,-3.8931,-3.8931,-3.8998,-3.8905,-3.8798,-3.8718,-3.8718,-3.8718,-3.8718,-3.8718,-3.8718,-3.8718,-3.8718,-3.8838,-3.8865,-3.8958,-3.8998,-3.9025,-3.9038,-3.9025,-3.9025,-3.9025,-3.9052,-3.9185,-3.9426,-3.9613,-3.9653,-3.9599,-3.9372,-3.9279,-3.9052,-3.8825,-3.8825,-3.8931,-3.9065,-3.9159,-3.9105,-3.8918,-3.8931,-3.9025,-3.9012,-3.9105,-3.9319,-3.9586,-3.988,-4.0134,-4.0414,-4.0481,-4.0481,-4.0481,-4.0481,-4.0481,-4.0481,-4.0481,-4.0481,-4.0481,-4.0481,-4.0481,-4.0481,-4.0481,-4.0481,-3.8718,-3.8718,-3.8718,-3.8718,-3.8718,-3.8718,-3.8718,-3.8718,-3.8718,-3.8718,-3.8718,-3.8718,-3.8718,-3.8718,-3.8718,-3.8718,-3.8718,-3.8718,-3.8718,-3.8718,-3.8718,-3.8718,-3.8718,-3.8718,-3.8718,-3.8718,-3.8718,-3.8718,-3.8718,-3.8718,-3.8718,-3.8718,-3.8718,-3.8718,-3.8718,-3.8718,-3.8718,-3.8718,-3.8718,-3.8718,-3.8718,-3.8718,-3.8718,-3.8718,-3.8718,-3.8718,-3.8718,-3.8718,-3.8718,-3.8718,-3.8718,-3.8838,-3.9038,-3.9118,-3.9118,-3.9078,-3.9078,-3.8972,-3.8811,-3.8718,-3.8718,-3.8718,-3.8718,-3.8718,-3.8718,-3.8718,-3.8798,-3.8945,-3.9065,-3.9172,-3.9279,-3.9306,-3.9346,-3.9346,-3.9346,-3.9346,-3.9346,-3.9573,-3.98,-3.988,-3.992,-3.9746,-3.9506,-3.9265,-3.9025,-3.8972,-3.9038,-3.9132,-3.9306,-3.9426,-3.9546,-3.9386,-3.9145,-3.9145,-3.9145,-3.9225,-3.9452,-3.9733,-4.004,-4.0267,-4.0468,-4.0468,-4.0481,-4.0481,-4.0481,-4.0481,-4.0481,-4.0481,-4.0481,-4.0481,-4.0481,-4.0481,-4.0481,-4.0481,-4.0481,-3.8718,-3.8718,-3.8718,-3.8718,-3.8718,-3.8718,-3.8718,-3.8718,-3.8718,-3.8718,-3.8718,-3.8718,-3.8718,-3.8718,-3.8718,-3.8718,-3.8718,-3.8718,-3.8718,-3.8718,-3.8718,-3.8718,-3.8718,-3.8718,-3.8718,-3.8718,-3.8718,-3.8718,-3.8718,-3.8718,-3.8718,-3.8718,-3.8718,-3.8718,-3.8718,-3.8718,-3.8718,-3.8718,-3.8718,-3.8718,-3.8718,-3.8718,-3.8718,-3.8718,-3.8718,-3.8718,-3.8718,-3.8718,-3.8718,-3.8718,-3.8718,-3.8758,-3.8931,-3.9065,-3.9065,-3.9025,-3.9012,-3.9025,-3.8838,-3.8758,-3.8758,-3.8758,-3.8731,-3.8731,-3.8718,-3.8731,-3.8865,-3.8998,-3.9092,-3.9199,-3.9399,-3.9493,-3.9493,-3.9493,-3.9519,-3.9533,-3.964,-3.9827,-4.004,-4.0201,-4.012,-3.984,-3.9586,-3.9292,-3.9065,-3.8878,-3.8985,-3.9292,-3.9466,-3.9693,-3.9813,-3.9773,-3.9479,-3.9359,-3.9386,-3.9466,-3.9613,-3.9893,-4.0174,-4.0334,-4.0481,-4.0481,-4.0481,-4.0481,-4.0481,-4.0481,-4.0481,-4.0481,-4.0481,-4.0481,-4.0481,-4.0481,-4.0481,-4.0481,-4.0481,-3.8718,-3.8718,-3.8718,-3.8718,-3.8718,-3.8718,-3.8718,-3.8718,-3.8718,-3.8718,-3.8718,-3.8718,-3.8718,-3.8718,-3.8718,-3.8718,-3.8718,-3.8718,-3.8718,-3.8718,-3.8718,-3.8718,-3.8718,-3.8718,-3.8718,-3.8718,-3.8718,-3.8718,-3.8718,-3.8718,-3.8718,-3.8718,-3.8718,-3.8718,-3.8718,-3.8718,-3.8718,-3.8718,-3.8718,-3.8718,-3.8718,-3.8718,-3.8718,-3.8718,-3.8718,-3.8718,-3.8718,-3.8718,-3.8718,-3.8718,-3.8731,-3.8811,-3.8958,-3.9132,-3.9118,-3.9118,-3.9279,-3.9199,-3.8998,-3.8945,-3.8878,-3.8825,-3.8784,-3.8771,-3.8771,-3.8838,-3.8958,-3.9118,-3.9199,-3.9372,-3.9586,-3.9733,-3.9733,-3.9746,-3.9773,-3.98,-3.996,-4.008,-4.0241,-4.0428,-4.0134,-3.9853,-3.9573,-3.9279,-3.9092,-3.8891,-3.9025,-3.9319,-3.9613,-3.9853,-4.0054,-3.992,-3.9653,-3.9599,-3.9586,-3.9613,-3.968,-3.996,-4.0214,-4.0361,-4.0481,-4.0481,-4.0481,-4.0481,-4.0481,-4.0481,-4.0481,-4.0481,-4.0481,-4.0481,-4.0481,-4.0481,-4.0481,-4.0481,-4.0481,-3.8718,-3.8718,-3.8718,-3.8718,-3.8718,-3.8718,-3.8718,-3.8718,-3.8718,-3.8718,-3.8718,-3.8718,-3.8718,-3.8718,-3.8718,-3.8718,-3.8718,-3.8718,-3.8718,-3.8718,-3.8718,-3.8718,-3.8718,-3.8718,-3.8718,-3.8731,-3.8744,-3.8718,-3.8718,-3.8718,-3.8718,-3.8718,-3.8718,-3.8718,-3.8718,-3.8718,-3.8718,-3.8718,-3.8718,-3.8718,-3.8718,-3.8718,-3.8718,-3.8718,-3.8718,-3.8718,-3.8718,-3.8718,-3.8718,-3.8718,-3.8758,-3.8865,-3.9052,-3.9279,-3.9346,-3.9372,-3.9546,-3.9506,-3.9359,-3.9292,-3.9225,-3.9025,-3.8998,-3.8958,-3.8972,-3.9012,-3.9185,-3.9452,-3.9586,-3.98,-4.0,-4.0174,-4.0214,-4.0214,-4.0241,-4.0241,-4.0308,-4.0308,-4.0334,-4.0201,-3.9907,-3.9626,-3.9332,-3.9118,-3.9232,-3.9205,-3.9722,-4.0256,-4.1228,-4.0759,-4.0509,-4.0253,-3.9998,-3.968,-3.9599,-3.9599,-3.9693,-3.9987,-4.0241,-4.0401,-4.0481,-4.0481,-4.0481,-4.0481,-4.0481,-4.0481,-4.0481,-4.0481,-4.0481,-4.0481,-4.0481,-4.0481,-4.0481,-4.0481,-4.0481]}]]